| time (UTC) | temp F | wind direction | speed MPH | gust MPH | rain 1hr in | rain 24hr in | rain mn in | humidity % | barometer mb |
| 20260504024114 | 54 | 45 | 12.0 | 16.0 | 0.00 | 0.00 | 0.00 | 33 | 1013.0 |
| 20260504024106 | 54 | 16 | 10.0 | 13.0 | 0.00 | 0.00 | 0.00 | 34 | 1013.0 |
| 20260504024047 | 54 | 33 | 10.0 | 14.0 | 0.00 | 0.00 | 0.00 | 34 | 1013.0 |
| 20260504024017 | 54 | 26 | 8.0 | 15.0 | 0.00 | 0.00 | 0.00 | 34 | 1013.0 |
| 20260504024002 | 54 | 15 | 6.0 | 21.0 | 0.00 | 0.00 | 0.00 | 33 | 1013.0 |
| 20260504023948 | 54 | 339 | 4.0 | 21.0 | 0.00 | 0.00 | 0.00 | 33 | 1013.0 |
| 20260504023922 | 54 | 45 | 6.0 | 21.0 | 0.00 | 0.00 | 0.00 | 33 | 1013.0 |
| 20260504023913 | 54 | 5 | 8.0 | 21.0 | 0.00 | 0.00 | 0.00 | 33 | 1013.0 |
| 20260504023901 | 54 | 7 | 10.0 | 21.0 | 0.00 | 0.00 | 0.00 | 34 | 1013.0 |
| 20260504023841 | 54 | 7 | 10.0 | 21.0 | 0.00 | 0.00 | 0.00 | 34 | 1013.0 |
| 20260504023813 | 54 | 50 | 12.0 | 21.0 | 0.00 | 0.00 | 0.00 | 34 | 1013.0 |
| 20260504023754 | 54 | 3 | 11.0 | 15.0 | 0.00 | 0.00 | 0.00 | 34 | 1013.0 |
| 20260504023737 | 54 | 343 | 9.0 | 13.0 | 0.00 | 0.00 | 0.00 | 34 | 1013.0 |
| 20260504023725 | 54 | 359 | 8.0 | 16.0 | 0.00 | 0.00 | 0.00 | 34 | 1013.0 |
| 20260504023705 | 54 | 7 | 8.0 | 16.0 | 0.00 | 0.00 | 0.00 | 34 | 1013.0 |
| 20260504023650 | 54 | 339 | 7.0 | 16.0 | 0.00 | 0.00 | 0.00 | 34 | 1013.0 |
| 20260504023636 | 54 | 35 | 8.0 | 16.0 | 0.00 | 0.00 | 0.00 | 34 | 1013.0 |
| 20260504023620 | 54 | 12 | 8.0 | 16.0 | 0.00 | 0.00 | 0.00 | 34 | 1013.0 |
| 20260504023546 | 54 | 30 | 12.0 | 16.0 | 0.00 | 0.00 | 0.00 | 34 | 1013.0 |
| 20260504023529 | 54 | 36 | 8.0 | 16.0 | 0.00 | 0.00 | 0.00 | 34 | 1013.0 |
| 20260504023516 | 54 | 359 | 10.0 | 16.0 | 0.00 | 0.00 | 0.00 | 34 | 1013.0 |
| 20260504023508 | 54 | 32 | 7.0 | 16.0 | 0.00 | 0.00 | 0.00 | 34 | 1013.0 |
| 20260504023441 | 54 | 20 | 9.0 | 16.0 | 0.00 | 0.00 | 0.00 | 34 | 1013.0 |
| 20260504023431 | 54 | 22 | 9.0 | 14.0 | 0.00 | 0.00 | 0.00 | 34 | 1013.0 |
| 20260504023401 | 54 | 43 | 6.0 | 14.0 | 0.00 | 0.00 | 0.00 | 34 | 1013.0 |
| 20260504023348 | 54 | 1 | 7.0 | 14.0 | 0.00 | 0.00 | 0.00 | 34 | 1013.0 |
| 20260504023330 | 54 | 57 | 10.0 | 14.0 | 0.00 | 0.00 | 0.00 | 34 | 1013.0 |
| 20260504023314 | 54 | 35 | 11.0 | 14.0 | 0.00 | 0.00 | 0.00 | 34 | 1013.0 |
| 20260504023305 | 54 | 13 | 9.0 | 14.0 | 0.00 | 0.00 | 0.00 | 34 | 1013.0 |
| 20260504023242 | 54 | 13 | 11.0 | 18.0 | 0.00 | 0.00 | 0.00 | 34 | 1013.0 |
| 20260504023234 | 54 | 68 | 11.0 | 18.0 | 0.00 | 0.00 | 0.00 | 34 | 1013.0 |
| 20260504023210 | 54 | 355 | 6.0 | 18.0 | 0.00 | 0.00 | 0.00 | 34 | 1013.0 |
| 20260504023155 | 54 | 24 | 9.0 | 18.0 | 0.00 | 0.00 | 0.00 | 34 | 1013.0 |
| 20260504023137 | 54 | 342 | 10.0 | 18.0 | 0.00 | 0.00 | 0.00 | 34 | 1013.0 |
| 20260504023124 | 54 | 8 | 12.0 | 16.0 | 0.00 | 0.00 | 0.00 | 35 | 1013.0 |
| 20260504023050 | 54 | 22 | 8.0 | 13.0 | 0.00 | 0.00 | 0.00 | 35 | 1013.0 |
| 20260504023041 | 54 | 41 | 7.0 | 13.0 | 0.00 | 0.00 | 0.00 | 35 | 1013.0 |
| 20260504023026 | 54 | 14 | 9.0 | 13.0 | 0.00 | 0.00 | 0.00 | 34 | 1013.0 |
| 20260504023013 | 54 | 25 | 7.0 | 13.0 | 0.00 | 0.00 | 0.00 | 34 | 1013.0 |
| 20260504023003 | 54 | 25 | 7.0 | 15.0 | 0.00 | 0.00 | 0.00 | 34 | 1013.0 |
| 20260504022956 | 54 | 25 | 7.0 | 15.0 | 0.00 | 0.00 | 0.00 | 34 | 1013.0 |
| 20260504022930 | 54 | 77 | 10.0 | 15.0 | 0.00 | 0.00 | 0.00 | 34 | 1013.0 |
| 20260504022922 | 54 | 77 | 10.0 | 15.0 | 0.00 | 0.00 | 0.00 | 35 | 1013.0 |
| 20260504022905 | 54 | 25 | 8.0 | 15.0 | 0.00 | 0.00 | 0.00 | 35 | 1013.0 |
| 20260504022850 | 54 | 16 | 8.0 | 15.0 | 0.00 | 0.00 | 0.00 | 35 | 1013.0 |
| 20260504022841 | 54 | 53 | 7.0 | 15.0 | 0.00 | 0.00 | 0.00 | 35 | 1013.0 |
| 20260504022828 | 54 | 346 | 10.0 | 15.0 | 0.00 | 0.00 | 0.00 | 35 | 1013.0 |
| 20260504022801 | 54 | 38 | 10.0 | 14.0 | 0.00 | 0.00 | 0.00 | 35 | 1013.0 |
| 20260504022745 | 54 | 4 | 5.0 | 14.0 | 0.00 | 0.00 | 0.00 | 35 | 1013.0 |
| 20260504022737 | 54 | 19 | 5.0 | 14.0 | 0.00 | 0.00 | 0.00 | 35 | 1013.0 |
| 20260504022641 | 54 | 28 | 8.0 | 22.0 | 0.00 | 0.00 | 0.00 | 34 | 1013.0 |
| 20260504022627 | 54 | 26 | 10.0 | 22.0 | 0.00 | 0.00 | 0.00 | 34 | 1013.0 |
| 20260504022618 | 54 | 340 | 9.0 | 22.0 | 0.00 | 0.00 | 0.00 | 34 | 1013.0 |
| 20260504022609 | 54 | 340 | 9.0 | 22.0 | 0.00 | 0.00 | 0.00 | 35 | 1013.0 |
| 20260504022545 | 54 | 40 | 13.0 | 22.0 | 0.00 | 0.00 | 0.00 | 35 | 1013.0 |
| 20260504022532 | 54 | 58 | 10.0 | 21.0 | 0.00 | 0.00 | 0.00 | 35 | 1013.0 |
| 20260504022525 | 54 | 12 | 11.0 | 21.0 | 0.00 | 0.00 | 0.00 | 35 | 1013.0 |
| 20260504022506 | 54 | 16 | 10.0 | 17.0 | 0.00 | 0.00 | 0.00 | 35 | 1013.0 |
| 20260504022449 | 54 | 53 | 6.0 | 17.0 | 0.00 | 0.00 | 0.00 | 35 | 1013.0 |
| 20260504022427 | 54 | 22 | 10.0 | 17.0 | 0.00 | 0.00 | 0.00 | 35 | 1013.0 |
| 20260504022417 | 54 | 4 | 11.0 | 17.0 | 0.00 | 0.00 | 0.00 | 35 | 1013.0 |
| 20260504022401 | 54 | 2 | 11.0 | 17.0 | 0.00 | 0.00 | 0.00 | 35 | 1013.0 |
| 20260504022339 | 54 | 61 | 14.0 | 17.0 | 0.00 | 0.00 | 0.00 | 35 | 1013.0 |
| 20260504022331 | 54 | 313 | 9.0 | 14.0 | 0.00 | 0.00 | 0.00 | 35 | 1013.0 |
| 20260504022306 | 54 | 75 | 9.0 | 14.0 | 0.00 | 0.00 | 0.00 | 35 | 1013.0 |
| 20260504022258 | 54 | 346 | 8.0 | 14.0 | 0.00 | 0.00 | 0.00 | 35 | 1013.0 |
| 20260504022241 | 54 | 7 | 12.0 | 14.0 | 0.00 | 0.00 | 0.00 | 35 | 1013.0 |
| 20260504022217 | 54 | 9 | 10.0 | 13.0 | 0.00 | 0.00 | 0.00 | 35 | 1013.0 |
| 20260504022202 | 54 | 4 | 6.0 | 11.0 | 0.00 | 0.00 | 0.00 | 35 | 1013.0 |
| 20260504022154 | 54 | 3 | 7.0 | 11.0 | 0.00 | 0.00 | 0.00 | 35 | 1013.0 |
| 20260504022137 | 54 | 25 | 5.0 | 11.0 | 0.00 | 0.00 | 0.00 | 35 | 1013.0 |
| 20260504022113 | 54 | 41 | 7.0 | 11.0 | 0.00 | 0.00 | 0.00 | 35 | 1013.0 |
| 20260504022049 | 54 | 356 | 6.0 | 11.0 | 0.00 | 0.00 | 0.00 | 35 | 1013.0 |
| 20260504022033 | 54 | 353 | 8.0 | 11.0 | 0.00 | 0.00 | 0.00 | 35 | 1013.0 |
| 20260504022018 | 54 | 357 | 8.0 | 13.0 | 0.00 | 0.00 | 0.00 | 35 | 1013.0 |
| 20260504022009 | 54 | 25 | 9.0 | 13.0 | 0.00 | 0.00 | 0.00 | 35 | 1013.0 |
| 20260504021956 | 54 | 9 | 7.0 | 13.0 | 0.00 | 0.00 | 0.00 | 35 | 1013.0 |
| 20260504021931 | 54 | 8 | 7.0 | 13.0 | 0.00 | 0.00 | 0.00 | 35 | 1013.0 |
| 20260504021914 | 54 | 24 | 8.0 | 13.0 | 0.00 | 0.00 | 0.00 | 35 | 1013.0 |
| 20260504021858 | 54 | 347 | 9.0 | 13.0 | 0.00 | 0.00 | 0.00 | 35 | 1013.0 |
| 20260504021849 | 54 | 22 | 6.0 | 10.0 | 0.00 | 0.00 | 0.00 | 35 | 1013.0 |
| 20260504021826 | 55 | 350 | 4.0 | 8.0 | 0.00 | 0.00 | 0.00 | 35 | 1013.0 |
| 20260504021817 | 55 | 358 | 4.0 | 8.0 | 0.00 | 0.00 | 0.00 | 35 | 1013.0 |
| 20260504021803 | 55 | 41 | 4.0 | 15.0 | 0.00 | 0.00 | 0.00 | 35 | 1013.0 |
| 20260504021753 | 55 | 41 | 4.0 | 15.0 | 0.00 | 0.00 | 0.00 | 35 | 1013.0 |
| 20260504021743 | 55 | 8 | 7.0 | 15.0 | 0.00 | 0.00 | 0.00 | 35 | 1013.0 |
| 20260504021723 | 55 | 39 | 6.0 | 18.0 | 0.00 | 0.00 | 0.00 | 35 | 1013.0 |
| 20260504021715 | 55 | 12 | 5.0 | 18.0 | 0.00 | 0.00 | 0.00 | 35 | 1013.0 |
| 20260504021642 | 55 | 26 | 6.0 | 18.0 | 0.00 | 0.00 | 0.00 | 35 | 1013.0 |
| 20260504021628 | 54 | 353 | 6.0 | 18.0 | 0.00 | 0.00 | 0.00 | 35 | 1013.0 |
| 20260504021621 | 54 | 349 | 9.0 | 18.0 | 0.00 | 0.00 | 0.00 | 35 | 1013.0 |
| 20260504021538 | 54 | 32 | 15.0 | 18.0 | 0.00 | 0.00 | 0.00 | 35 | 1013.0 |
| 20260504021530 | 55 | 347 | 12.0 | 15.0 | 0.00 | 0.00 | 0.00 | 35 | 1013.0 |
| 20260504021505 | 55 | 355 | 11.0 | 14.0 | 0.00 | 0.00 | 0.00 | 35 | 1013.0 |
| 20260504021451 | 55 | 29 | 11.0 | 14.0 | 0.00 | 0.00 | 0.00 | 35 | 1013.0 |
| 20260504021443 | 55 | 7 | 7.0 | 13.0 | 0.00 | 0.00 | 0.00 | 35 | 1013.0 |
| 20260504021417 | 55 | 330 | 6.0 | 18.0 | 0.00 | 0.00 | 0.00 | 36 | 1013.0 |
| 20260504021408 | 55 | 22 | 10.0 | 21.0 | 0.00 | 0.00 | 0.00 | 36 | 1013.0 |
| 20260504021346 | 55 | 2 | 8.0 | 21.0 | 0.00 | 0.00 | 0.00 | 36 | 1013.0 |
| 20260504021337 | 55 | 24 | 6.0 | 21.0 | 0.00 | 0.00 | 0.00 | 36 | 1013.0 |
| 20260504021233 | 55 | 27 | 14.0 | 21.0 | 0.00 | 0.00 | 0.00 | 36 | 1013.0 |
| 20260504021218 | 55 | 15 | 9.0 | 11.0 | 0.00 | 0.00 | 0.00 | 36 | 1013.0 |
| 20260504021209 | 55 | 354 | 8.0 | 11.0 | 0.00 | 0.00 | 0.00 | 36 | 1013.0 |
| 20260504021145 | 55 | 5 | 7.0 | 10.0 | 0.00 | 0.00 | 0.00 | 36 | 1013.0 |
| 20260504021131 | 55 | 50 | 7.0 | 10.0 | 0.00 | 0.00 | 0.00 | 36 | 1013.0 |
| 20260504021105 | 55 | 41 | 5.0 | 10.0 | 0.00 | 0.00 | 0.00 | 36 | 1013.0 |
| 20260504021052 | 55 | 30 | 5.0 | 10.0 | 0.00 | 0.00 | 0.00 | 36 | 1013.0 |
| 20260504021033 | 55 | 32 | 6.0 | 10.0 | 0.00 | 0.00 | 0.00 | 36 | 1013.0 |
| 20260504021017 | 55 | 32 | 7.0 | 10.0 | 0.00 | 0.00 | 0.00 | 36 | 1013.0 |
| 20260504021005 | 55 | 29 | 5.0 | 10.0 | 0.00 | 0.00 | 0.00 | 36 | 1013.0 |
| 20260504020956 | 55 | 29 | 5.0 | 10.0 | 0.00 | 0.00 | 0.00 | 36 | 1013.0 |
| 20260504020937 | 55 | 355 | 6.0 | 10.0 | 0.00 | 0.00 | 0.00 | 36 | 1013.0 |
| 20260504020922 | 55 | 10 | 6.0 | 11.0 | 0.00 | 0.00 | 0.00 | 36 | 1013.0 |
| 20260504020913 | 55 | 23 | 4.0 | 11.0 | 0.00 | 0.00 | 0.00 | 36 | 1013.0 |
| 20260504020857 | 55 | 17 | 6.0 | 11.0 | 0.00 | 0.00 | 0.00 | 36 | 1013.0 |
| 20260504020835 | 55 | 39 | 5.0 | 11.0 | 0.00 | 0.00 | 0.00 | 36 | 1013.0 |
| 20260504020809 | 55 | 13 | 5.0 | 11.0 | 0.00 | 0.00 | 0.00 | 36 | 1013.0 |
| 20260504020756 | 55 | 2 | 6.0 | 11.0 | 0.00 | 0.00 | 0.00 | 36 | 1013.0 |
| 20260504020739 | 55 | 5 | 8.0 | 11.0 | 0.00 | 0.00 | 0.00 | 36 | 1013.0 |
| 20260504020715 | 55 | 29 | 4.0 | 9.0 | 0.00 | 0.00 | 0.00 | 36 | 1013.0 |
| 20260504020649 | 55 | 26 | 3.0 | 11.0 | 0.00 | 0.00 | 0.00 | 36 | 1013.0 |
| 20260504020635 | 55 | 53 | 5.0 | 11.0 | 0.00 | 0.00 | 0.00 | 36 | 1013.0 |
| 20260504020627 | 55 | 4 | 5.0 | 11.0 | 0.00 | 0.00 | 0.00 | 36 | 1013.0 |
| 20260504020601 | 55 | 11 | 4.0 | 13.0 | 0.00 | 0.00 | 0.00 | 36 | 1013.0 |
| 20260504020548 | 55 | 5 | 7.0 | 13.0 | 0.00 | 0.00 | 0.00 | 35 | 1013.0 |
| 20260504020539 | 55 | 38 | 9.0 | 13.0 | 0.00 | 0.00 | 0.00 | 35 | 1013.0 |
| 20260504020531 | 55 | 38 | 9.0 | 14.0 | 0.00 | 0.00 | 0.00 | 35 | 1013.0 |
| 20260504020506 | 55 | 50 | 6.0 | 14.0 | 0.00 | 0.00 | 0.00 | 35 | 1013.0 |
| 20260504020457 | 55 | 50 | 6.0 | 14.0 | 0.00 | 0.00 | 0.00 | 35 | 1013.0 |
| 20260504020443 | 55 | 44 | 7.0 | 14.0 | 0.00 | 0.00 | 0.00 | 35 | 1013.0 |
| 20260504020434 | 55 | 22 | 11.0 | 14.0 | 0.00 | 0.00 | 0.00 | 35 | 1013.0 |
| 20260504020425 | 55 | 22 | 11.0 | 21.0 | 0.00 | 0.00 | 0.00 | 35 | 1013.0 |
| 20260504020411 | 55 | 68 | 10.0 | 21.0 | 0.00 | 0.00 | 0.00 | 35 | 1013.0 |
| 20260504020404 | 55 | 318 | 8.0 | 21.0 | 0.00 | 0.00 | 0.00 | 35 | 1013.0 |
| 20260504020332 | 55 | 38 | 8.0 | 21.0 | 0.00 | 0.00 | 0.00 | 35 | 1013.0 |
| 20260504020323 | 55 | 37 | 7.0 | 21.0 | 0.00 | 0.00 | 0.00 | 35 | 1013.0 |
| 20260504020259 | 55 | 18 | 8.0 | 21.0 | 0.00 | 0.00 | 0.00 | 35 | 1013.0 |
| 20260504020250 | 55 | 16 | 14.0 | 21.0 | 0.00 | 0.00 | 0.00 | 35 | 1013.0 |
| 20260504020234 | 55 | 22 | 16.0 | 17.0 | 0.00 | 0.00 | 0.00 | 35 | 1013.0 |
| 20260504020209 | 55 | 35 | 10.0 | 14.0 | 0.00 | 0.00 | 0.00 | 35 | 1013.0 |
| 20260504020155 | 55 | 18 | 8.0 | 14.0 | 0.00 | 0.00 | 0.00 | 35 | 1013.0 |
| 20260504020146 | 55 | 37 | 10.0 | 14.0 | 0.00 | 0.00 | 0.00 | 35 | 1013.0 |
| 20260504020130 | 55 | 46 | 7.0 | 14.0 | 0.00 | 0.00 | 0.00 | 36 | 1013.0 |
| 20260504020105 | 55 | 42 | 10.0 | 14.0 | 0.00 | 0.00 | 0.00 | 36 | 1013.0 |
| 20260504020051 | 55 | 14 | 7.0 | 10.0 | 0.00 | 0.00 | 0.00 | 36 | 1013.0 |
| 20260504020043 | 55 | 62 | 7.0 | 10.0 | 0.00 | 0.00 | 0.00 | 36 | 1013.0 |
| 20260504020034 | 55 | 62 | 7.0 | 10.0 | 0.00 | 0.00 | 0.00 | 35 | 1013.0 |
| 20260504020020 | 55 | 320 | 4.0 | 10.0 | 0.00 | 0.00 | 0.00 | 35 | 1013.0 |
| 20260504015947 | 55 | 3 | 5.0 | 18.0 | 0.00 | 0.00 | 0.00 | 35 | 1013.0 |
| 20260504015938 | 55 | 6 | 7.0 | 18.0 | 0.00 | 0.00 | 0.00 | 35 | 1013.0 |
| 20260504015917 | 55 | 38 | 5.0 | 18.0 | 0.00 | 0.00 | 0.00 | 35 | 1013.0 |
| 20260504015857 | 55 | 116 | 6.0 | 18.0 | 0.00 | 0.00 | 0.00 | 35 | 1013.0 |
| 20260504015836 | 55 | 1 | 11.0 | 18.0 | 0.00 | 0.00 | 0.00 | 35 | 1013.0 |
| 20260504015809 | 55 | 31 | 13.0 | 18.0 | 0.00 | 0.00 | 0.00 | 35 | 1013.0 |
| 20260504015800 | 55 | 20 | 9.0 | 16.0 | 0.00 | 0.00 | 0.00 | 35 | 1013.0 |
| 20260504015717 | 55 | 355 | 7.0 | 16.0 | 0.00 | 0.00 | 0.00 | 36 | 1013.0 |
| 20260504015709 | 55 | 31 | 7.0 | 16.0 | 0.00 | 0.00 | 0.00 | 36 | 1013.0 |
| 20260504015650 | 55 | 31 | 7.0 | 16.0 | 0.00 | 0.00 | 0.00 | 36 | 1013.0 |
| 20260504015635 | 55 | 5 | 9.0 | 15.0 | 0.00 | 0.00 | 0.00 | 36 | 1013.0 |
| 20260504015627 | 55 | 5 | 9.0 | 17.0 | 0.00 | 0.00 | 0.00 | 36 | 1013.0 |
| 20260504015618 | 55 | 28 | 7.0 | 17.0 | 0.00 | 0.00 | 0.00 | 35 | 1013.0 |
| 20260504015603 | 55 | 15 | 11.0 | 17.0 | 0.00 | 0.00 | 0.00 | 35 | 1013.0 |
| 20260504015554 | 55 | 15 | 11.0 | 17.0 | 0.00 | 0.00 | 0.00 | 35 | 1013.0 |
| 20260504015539 | 55 | 324 | 10.0 | 17.0 | 0.00 | 0.00 | 0.00 | 35 | 1013.0 |
| 20260504015522 | 55 | 44 | 9.0 | 17.0 | 0.00 | 0.00 | 0.00 | 35 | 1013.0 |
| 20260504015501 | 55 | 5 | 14.0 | 17.0 | 0.00 | 0.00 | 0.00 | 35 | 1013.0 |
| 20260504015442 | 55 | 68 | 11.0 | 17.0 | 0.00 | 0.00 | 0.00 | 35 | 1013.0 |
| 20260504015428 | 55 | 13 | 8.0 | 15.0 | 0.00 | 0.00 | 0.00 | 35 | 1013.0 |
| 20260504015420 | 55 | 343 | 5.0 | 14.0 | 0.00 | 0.00 | 0.00 | 35 | 1013.0 |
| 20260504015355 | 55 | 20 | 6.0 | 14.0 | 0.00 | 0.00 | 0.00 | 35 | 1013.0 |
| 20260504015345 | 55 | 20 | 5.0 | 14.0 | 0.00 | 0.00 | 0.00 | 35 | 1013.0 |
| 20260504015323 | 55 | 59 | 7.0 | 14.0 | 0.00 | 0.00 | 0.00 | 35 | 1013.0 |
| 20260504015314 | 55 | 34 | 9.0 | 14.0 | 0.00 | 0.00 | 0.00 | 35 | 1013.0 |
| 20260504015250 | 55 | 350 | 5.0 | 11.0 | 0.00 | 0.00 | 0.00 | 35 | 1013.0 |
| 20260504015236 | 55 | 42 | 3.0 | 11.0 | 0.00 | 0.00 | 0.00 | 35 | 1013.0 |
| 20260504015218 | 55 | 98 | 7.0 | 11.0 | 0.00 | 0.00 | 0.00 | 35 | 1013.0 |
| 20260504015204 | 55 | 325 | 6.0 | 11.0 | 0.00 | 0.00 | 0.00 | 35 | 1013.0 |
| 20260504015139 | 55 | 18 | 7.0 | 11.0 | 0.00 | 0.00 | 0.00 | 35 | 1013.0 |
| 20260504015131 | 55 | 18 | 7.0 | 13.0 | 0.00 | 0.00 | 0.00 | 35 | 1013.0 |
| 20260504015122 | 55 | 348 | 8.0 | 13.0 | 0.00 | 0.00 | 0.00 | 35 | 1013.0 |
| 20260504015105 | 55 | 15 | 7.0 | 13.0 | 0.00 | 0.00 | 0.00 | 35 | 1013.0 |
| 20260504015045 | 55 | 17 | 6.0 | 13.0 | 0.00 | 0.00 | 0.00 | 35 | 1013.0 |
| 20260504015026 | 55 | 3 | 6.0 | 13.0 | 0.00 | 0.00 | 0.00 | 35 | 1013.0 |
| 20260504015001 | 55 | 18 | 11.0 | 13.0 | 0.00 | 0.00 | 0.00 | 35 | 1013.0 |
| 20260504014945 | 55 | 4 | 8.0 | 11.0 | 0.00 | 0.00 | 0.00 | 35 | 1013.0 |
| 20260504014930 | 55 | 338 | 5.0 | 13.0 | 0.00 | 0.00 | 0.00 | 35 | 1013.0 |
| 20260504014921 | 55 | 25 | 5.0 | 13.0 | 0.00 | 0.00 | 0.00 | 35 | 1013.0 |
| 20260504014907 | 55 | 49 | 6.0 | 13.0 | 0.00 | 0.00 | 0.00 | 35 | 1013.0 |
| 20260504014858 | 55 | 49 | 6.0 | 16.0 | 0.00 | 0.00 | 0.00 | 35 | 1013.0 |
| 20260504014850 | 55 | 48 | 6.0 | 16.0 | 0.00 | 0.00 | 0.00 | 35 | 1013.0 |
| 20260504014825 | 55 | 13 | 4.0 | 16.0 | 0.00 | 0.00 | 0.00 | 35 | 1013.0 |
| 20260504014812 | 55 | 354 | 8.0 | 16.0 | 0.00 | 0.00 | 0.00 | 35 | 1013.0 |
| 20260504014802 | 55 | 350 | 9.0 | 16.0 | 0.00 | 0.00 | 0.00 | 35 | 1013.0 |
| 20260504014753 | 55 | 350 | 9.0 | 16.0 | 0.00 | 0.00 | 0.00 | 35 | 1013.0 |
| 20260504014739 | 55 | 346 | 9.0 | 16.0 | 0.00 | 0.00 | 0.00 | 35 | 1013.0 |
| 20260504014729 | 55 | 37 | 11.0 | 16.0 | 0.00 | 0.00 | 0.00 | 35 | 1013.0 |
| 20260504014710 | 55 | 100 | 6.0 | 16.0 | 0.00 | 0.00 | 0.00 | 35 | 1013.0 |
| 20260504014634 | 56 | 12 | 8.0 | 16.0 | 0.00 | 0.00 | 0.00 | 35 | 1013.0 |
| 20260504014619 | 56 | 5 | 9.0 | 18.0 | 0.00 | 0.00 | 0.00 | 35 | 1013.0 |
| 20260504014610 | 56 | 349 | 8.0 | 18.0 | 0.00 | 0.00 | 0.00 | 35 | 1013.0 |
| 20260504014602 | 56 | 349 | 8.0 | 21.0 | 0.00 | 0.00 | 0.00 | 35 | 1013.0 |
| 20260504014546 | 56 | 348 | 12.0 | 21.0 | 0.00 | 0.00 | 0.00 | 35 | 1013.0 |
| 20260504014534 | 56 | 34 | 12.0 | 21.0 | 0.00 | 0.00 | 0.00 | 35 | 1013.0 |
| 20260504014516 | 56 | 22 | 9.0 | 21.0 | 0.00 | 0.00 | 0.00 | 35 | 1013.0 |
| 20260504014450 | 56 | 21 | 11.0 | 21.0 | 0.00 | 0.00 | 0.00 | 35 | 1013.0 |
| 20260504014442 | 56 | 55 | 13.0 | 21.0 | 0.00 | 0.00 | 0.00 | 35 | 1013.0 |
| 20260504014425 | 56 | 40 | 7.0 | 18.0 | 0.00 | 0.00 | 0.00 | 35 | 1013.0 |
| 20260504014414 | 56 | 351 | 11.0 | 18.0 | 0.00 | 0.00 | 0.00 | 35 | 1013.0 |
| 20260504014338 | 56 | 25 | 11.0 | 18.0 | 0.00 | 0.00 | 0.00 | 35 | 1013.0 |
| 20260504014317 | 56 | 2 | 13.0 | 18.0 | 0.00 | 0.00 | 0.00 | 35 | 1013.0 |
| 20260504014257 | 56 | 25 | 14.0 | 17.0 | 0.00 | 0.00 | 0.00 | 35 | 1013.0 |
| 20260504014242 | 56 | 50 | 10.0 | 17.0 | 0.00 | 0.00 | 0.00 | 35 | 1013.0 |
| 20260504014233 | 56 | 29 | 12.0 | 17.0 | 0.00 | 0.00 | 0.00 | 35 | 1013.0 |
| 20260504014217 | 56 | 25 | 13.0 | 16.0 | 0.00 | 0.00 | 0.00 | 34 | 1013.0 |
| 20260504014203 | 56 | 12 | 9.0 | 16.0 | 0.00 | 0.00 | 0.00 | 34 | 1013.0 |
| 20260504014129 | 56 | 12 | 9.0 | 16.0 | 0.00 | 0.00 | 0.00 | 34 | 1013.0 |
| 20260504014117 | 56 | 47 | 6.0 | 16.0 | 0.00 | 0.00 | 0.00 | 34 | 1013.0 |
| 20260504014107 | 56 | 17 | 7.0 | 16.0 | 0.00 | 0.00 | 0.00 | 34 | 1013.0 |
| 20260504014059 | 56 | 17 | 7.0 | 16.0 | 0.00 | 0.00 | 0.00 | 34 | 1013.0 |
| 20260504014050 | 56 | 354 | 6.0 | 16.0 | 0.00 | 0.00 | 0.00 | 34 | 1013.0 |
| 20260504014030 | 56 | 29 | 9.0 | 16.0 | 0.00 | 0.00 | 0.00 | 34 | 1013.0 |
| 20260504014009 | 56 | 343 | 9.0 | 16.0 | 0.00 | 0.00 | 0.00 | 34 | 1013.0 |
| 20260504013957 | 56 | 14 | 10.0 | 15.0 | 0.00 | 0.00 | 0.00 | 34 | 1013.0 |
| 20260504013939 | 56 | 41 | 9.0 | 15.0 | 0.00 | 0.00 | 0.00 | 34 | 1013.0 |
| 20260504013922 | 56 | 32 | 7.0 | 15.0 | 0.00 | 0.00 | 0.00 | 34 | 1013.0 |
| 20260504013906 | 56 | 27 | 11.0 | 15.0 | 0.00 | 0.00 | 0.00 | 34 | 1013.0 |
| 20260504013857 | 56 | 29 | 11.0 | 15.0 | 0.00 | 0.00 | 0.00 | 34 | 1013.0 |
| 20260504013835 | 56 | 52 | 12.0 | 15.0 | 0.00 | 0.00 | 0.00 | 34 | 1013.0 |
| 20260504013825 | 56 | 26 | 8.0 | 14.0 | 0.00 | 0.00 | 0.00 | 34 | 1013.0 |
| 20260504013801 | 56 | 42 | 10.0 | 14.0 | 0.00 | 0.00 | 0.00 | 34 | 1013.0 |
| 20260504013748 | 56 | 45 | 11.0 | 14.0 | 0.00 | 0.00 | 0.00 | 34 | 1013.0 |
| 20260504013741 | 56 | 7 | 8.0 | 10.0 | 0.00 | 0.00 | 0.00 | 34 | 1013.0 |
| 20260504013706 | 56 | 14 | 4.0 | 10.0 | 0.00 | 0.00 | 0.00 | 34 | 1013.0 |
| 20260504013651 | 56 | 31 | 6.0 | 21.0 | 0.00 | 0.00 | 0.00 | 34 | 1013.0 |
| 20260504013633 | 56 | 58 | 8.0 | 21.0 | 0.00 | 0.00 | 0.00 | 34 | 1013.0 |
| 20260504013618 | 56 | 34 | 4.0 | 21.0 | 0.00 | 0.00 | 0.00 | 34 | 1013.0 |
| 20260504013604 | 56 | 2 | 6.0 | 21.0 | 0.00 | 0.00 | 0.00 | 33 | 1013.0 |
| 20260504013557 | 56 | 28 | 6.0 | 21.0 | 0.00 | 0.00 | 0.00 | 33 | 1013.0 |
| 20260504013514 | 56 | 35 | 15.0 | 21.0 | 0.00 | 0.00 | 0.00 | 33 | 1013.0 |
| 20260504013459 | 56 | 20 | 12.0 | 18.0 | 0.00 | 0.00 | 0.00 | 33 | 1013.0 |
| 20260504013441 | 56 | 26 | 6.0 | 18.0 | 0.00 | 0.00 | 0.00 | 33 | 1013.0 |
| 20260504013430 | 56 | 11 | 9.0 | 18.0 | 0.00 | 0.00 | 0.00 | 33 | 1013.0 |
| 20260504013356 | 56 | 28 | 10.0 | 21.0 | 0.00 | 0.00 | 0.00 | 33 | 1013.0 |
| 20260504013349 | 56 | 26 | 9.0 | 21.0 | 0.00 | 0.00 | 0.00 | 33 | 1013.0 |
| 20260504013329 | 56 | 41 | 9.0 | 21.0 | 0.00 | 0.00 | 0.00 | 33 | 1013.0 |
| 20260504013305 | 56 | 17 | 8.0 | 21.0 | 0.00 | 0.00 | 0.00 | 33 | 1013.0 |
| 20260504013249 | 56 | 350 | 12.0 | 21.0 | 0.00 | 0.00 | 0.00 | 33 | 1013.0 |
| 20260504013226 | 56 | 20 | 9.0 | 21.0 | 0.00 | 0.00 | 0.00 | 33 | 1013.0 |
| 20260504013210 | 56 | 27 | 10.0 | 21.0 | 0.00 | 0.00 | 0.00 | 33 | 1013.0 |
| 20260504013202 | 56 | 25 | 11.0 | 16.0 | 0.00 | 0.00 | 0.00 | 33 | 1013.0 |
| 20260504013145 | 56 | 357 | 10.0 | 14.0 | 0.00 | 0.00 | 0.00 | 33 | 1013.0 |
| 20260504013121 | 56 | 5 | 12.0 | 14.0 | 0.00 | 0.00 | 0.00 | 33 | 1013.0 |
| 20260504013108 | 56 | 13 | 7.0 | 13.0 | 0.00 | 0.00 | 0.00 | 33 | 1013.0 |
| 20260504013042 | 56 | 53 | 6.0 | 13.0 | 0.00 | 0.00 | 0.00 | 33 | 1013.0 |
| 20260504013019 | 56 | 2 | 8.0 | 16.0 | 0.00 | 0.00 | 0.00 | 33 | 1012.0 |
| 20260504013009 | 56 | 359 | 8.0 | 16.0 | 0.00 | 0.00 | 0.00 | 33 | 1012.0 |
| 20260504012953 | 56 | 47 | 8.0 | 16.0 | 0.00 | 0.00 | 0.00 | 33 | 1012.0 |
| 20260504012941 | 56 | 33 | 7.0 | 16.0 | 0.00 | 0.00 | 0.00 | 33 | 1012.0 |
| 20260504012931 | 56 | 33 | 7.0 | 17.0 | 0.00 | 0.00 | 0.00 | 33 | 1012.0 |
| 20260504012923 | 56 | 43 | 7.0 | 17.0 | 0.00 | 0.00 | 0.00 | 33 | 1012.0 |
| 20260504012859 | 56 | 28 | 8.0 | 17.0 | 0.00 | 0.00 | 0.00 | 33 | 1012.0 |
| 20260504012835 | 56 | 16 | 10.0 | 17.0 | 0.00 | 0.00 | 0.00 | 33 | 1012.0 |
| 20260504012817 | 56 | 16 | 10.0 | 17.0 | 0.00 | 0.00 | 0.00 | 33 | 1013.0 |
| 20260504012801 | 56 | 8 | 10.0 | 17.0 | 0.00 | 0.00 | 0.00 | 33 | 1013.0 |
| 20260504012753 | 56 | 39 | 13.0 | 17.0 | 0.00 | 0.00 | 0.00 | 33 | 1013.0 |
| 20260504012708 | 56 | 347 | 9.0 | 15.0 | 0.00 | 0.00 | 0.00 | 33 | 1012.0 |
| 20260504012650 | 56 | 29 | 11.0 | 15.0 | 0.00 | 0.00 | 0.00 | 33 | 1012.0 |
| 20260504012609 | 56 | 32 | 3.0 | 15.0 | 0.00 | 0.00 | 0.00 | 32 | 1013.0 |
| 20260504012554 | 56 | 24 | 7.0 | 19.0 | 0.00 | 0.00 | 0.00 | 32 | 1013.0 |
| 20260504012545 | 56 | 1 | 9.0 | 19.0 | 0.00 | 0.00 | 0.00 | 32 | 1013.0 |
| 20260504012529 | 56 | 6 | 11.0 | 19.0 | 0.00 | 0.00 | 0.00 | 32 | 1012.0 |
| 20260504012505 | 56 | 6 | 7.0 | 19.0 | 0.00 | 0.00 | 0.00 | 33 | 1012.0 |
| 20260504012452 | 56 | 323 | 9.0 | 19.0 | 0.00 | 0.00 | 0.00 | 33 | 1012.0 |
| 20260504012425 | 56 | 355 | 8.0 | 14.0 | 0.00 | 0.00 | 0.00 | 33 | 1012.0 |
| 20260504012410 | 56 | 310 | 9.0 | 13.0 | 0.00 | 0.00 | 0.00 | 32 | 1012.0 |
| 20260504012401 | 56 | 310 | 9.0 | 15.0 | 0.00 | 0.00 | 0.00 | 32 | 1012.0 |
| 20260504012337 | 56 | 357 | 6.0 | 15.0 | 0.00 | 0.00 | 0.00 | 32 | 1012.0 |
| 20260504012321 | 56 | 59 | 6.0 | 15.0 | 0.00 | 0.00 | 0.00 | 32 | 1012.0 |
| 20260504012309 | 56 | 8 | 8.0 | 15.0 | 0.00 | 0.00 | 0.00 | 32 | 1012.0 |
| 20260504012249 | 56 | 5 | 9.0 | 16.0 | 0.00 | 0.00 | 0.00 | 32 | 1012.0 |
| 20260504012234 | 56 | 25 | 11.0 | 16.0 | 0.00 | 0.00 | 0.00 | 32 | 1012.0 |
| 20260504012226 | 56 | 36 | 10.0 | 18.0 | 0.00 | 0.00 | 0.00 | 32 | 1013.0 |
| 20260504012208 | 56 | 55 | 9.0 | 18.0 | 0.00 | 0.00 | 0.00 | 32 | 1013.0 |
| 20260504012152 | 56 | 31 | 8.0 | 18.0 | 0.00 | 0.00 | 0.00 | 32 | 1013.0 |
| 20260504012122 | 56 | 46 | 11.0 | 18.0 | 0.00 | 0.00 | 0.00 | 32 | 1013.0 |
| 20260504012105 | 56 | 345 | 11.0 | 18.0 | 0.00 | 0.00 | 0.00 | 32 | 1013.0 |
| 20260504012041 | 56 | 357 | 13.0 | 18.0 | 0.00 | 0.00 | 0.00 | 32 | 1013.0 |
| 20260504012026 | 56 | 56 | 7.0 | 21.0 | 0.00 | 0.00 | 0.00 | 32 | 1013.0 |
| 20260504012018 | 56 | 12 | 7.0 | 21.0 | 0.00 | 0.00 | 0.00 | 32 | 1013.0 |
| 20260504012006 | 57 | 7 | 8.0 | 21.0 | 0.00 | 0.00 | 0.00 | 33 | 1013.0 |
| 20260504011959 | 57 | 7 | 8.0 | 21.0 | 0.00 | 0.00 | 0.00 | 33 | 1013.0 |
| 20260504011940 | 57 | 6 | 11.0 | 21.0 | 0.00 | 0.00 | 0.00 | 33 | 1013.0 |
| 20260504011921 | 57 | 55 | 9.0 | 21.0 | 0.00 | 0.00 | 0.00 | 33 | 1012.0 |
| 20260504011905 | 57 | 35 | 11.0 | 21.0 | 0.00 | 0.00 | 0.00 | 33 | 1012.0 |
| 20260504011841 | 57 | 0 | 9.0 | 21.0 | 0.00 | 0.00 | 0.00 | 33 | 1012.0 |
| 20260504011826 | 57 | 50 | 13.0 | 21.0 | 0.00 | 0.00 | 0.00 | 33 | 1012.0 |
| 20260504011818 | 57 | 38 | 6.0 | 16.0 | 0.00 | 0.00 | 0.00 | 33 | 1012.0 |
| 20260504011801 | 57 | 35 | 5.0 | 18.0 | 0.00 | 0.00 | 0.00 | 33 | 1012.0 |
| 20260504011741 | 57 | 55 | 7.0 | 18.0 | 0.00 | 0.00 | 0.00 | 33 | 1012.0 |
| 20260504011722 | 57 | 17 | 9.0 | 19.0 | 0.00 | 0.00 | 0.00 | 33 | 1012.0 |
| 20260504011713 | 57 | 33 | 9.0 | 19.0 | 0.00 | 0.00 | 0.00 | 33 | 1012.0 |
| 20260504011700 | 57 | 24 | 13.0 | 19.0 | 0.00 | 0.00 | 0.00 | 33 | 1012.0 |
| 20260504011640 | 57 | 23 | 9.0 | 19.0 | 0.00 | 0.00 | 0.00 | 33 | 1012.0 |
| 20260504011601 | 57 | 31 | 11.0 | 19.0 | 0.00 | 0.00 | 0.00 | 33 | 1013.0 |
| 20260504011546 | 57 | 347 | 11.0 | 19.0 | 0.00 | 0.00 | 0.00 | 33 | 1013.0 |
| 20260504011537 | 57 | 353 | 12.0 | 16.0 | 0.00 | 0.00 | 0.00 | 33 | 1013.0 |
| 20260504011523 | 57 | 353 | 12.0 | 26.0 | 0.00 | 0.00 | 0.00 | 33 | 1012.0 |
| 20260504011505 | 57 | 6 | 8.0 | 26.0 | 0.00 | 0.00 | 0.00 | 33 | 1012.0 |
| 20260504011450 | 57 | 340 | 4.0 | 26.0 | 0.00 | 0.00 | 0.00 | 33 | 1012.0 |
| 20260504011441 | 57 | 328 | 7.0 | 26.0 | 0.00 | 0.00 | 0.00 | 33 | 1012.0 |
| 20260504011421 | 57 | 12 | 9.0 | 26.0 | 0.00 | 0.00 | 0.00 | 33 | 1012.0 |
| 20260504011402 | 57 | 74 | 8.0 | 26.0 | 0.00 | 0.00 | 0.00 | 33 | 1012.0 |
| 20260504011348 | 57 | 357 | 17.0 | 26.0 | 0.00 | 0.00 | 0.00 | 33 | 1012.0 |
| 20260504011329 | 57 | 35 | 12.0 | 22.0 | 0.00 | 0.00 | 0.00 | 33 | 1012.0 |
| 20260504011315 | 57 | 30 | 11.0 | 16.0 | 0.00 | 0.00 | 0.00 | 33 | 1012.0 |
| 20260504011306 | 57 | 43 | 12.0 | 16.0 | 0.00 | 0.00 | 0.00 | 33 | 1012.0 |
| 20260504011257 | 57 | 43 | 12.0 | 16.0 | 0.00 | 0.00 | 0.00 | 33 | 1012.0 |
| 20260504011242 | 57 | 6 | 5.0 | 15.0 | 0.00 | 0.00 | 0.00 | 33 | 1012.0 |
| 20260504011233 | 57 | 341 | 5.0 | 15.0 | 0.00 | 0.00 | 0.00 | 33 | 1012.0 |
| 20260504011213 | 57 | 12 | 7.0 | 15.0 | 0.00 | 0.00 | 0.00 | 33 | 1012.0 |
| 20260504011154 | 57 | 2 | 7.0 | 16.0 | 0.00 | 0.00 | 0.00 | 33 | 1012.0 |
| 20260504011137 | 57 | 47 | 4.0 | 16.0 | 0.00 | 0.00 | 0.00 | 33 | 1012.0 |
| 20260504011122 | 57 | 335 | 8.0 | 16.0 | 0.00 | 0.00 | 0.00 | 34 | 1012.0 |
| 20260504011113 | 57 | 20 | 11.0 | 16.0 | 0.00 | 0.00 | 0.00 | 34 | 1012.0 |
| 20260504011049 | 57 | 29 | 4.0 | 16.0 | 0.00 | 0.00 | 0.00 | 34 | 1012.0 |
| 20260504011033 | 57 | 28 | 6.0 | 16.0 | 0.00 | 0.00 | 0.00 | 34 | 1012.0 |
| 20260504011009 | 57 | 15 | 11.0 | 16.0 | 0.00 | 0.00 | 0.00 | 34 | 1012.0 |
| 20260504010954 | 57 | 30 | 8.0 | 16.0 | 0.00 | 0.00 | 0.00 | 34 | 1012.0 |
| 20260504010929 | 57 | 12 | 4.0 | 16.0 | 0.00 | 0.00 | 0.00 | 34 | 1012.0 |
| 20260504010905 | 57 | 38 | 6.0 | 16.0 | 0.00 | 0.00 | 0.00 | 34 | 1012.0 |
| 20260504010850 | 57 | 21 | 7.0 | 17.0 | 0.00 | 0.00 | 0.00 | 34 | 1012.0 |
| 20260504010841 | 57 | 42 | 8.0 | 17.0 | 0.00 | 0.00 | 0.00 | 34 | 1012.0 |
| 20260504010825 | 57 | 28 | 8.0 | 17.0 | 0.00 | 0.00 | 0.00 | 34 | 1012.0 |
| 20260504010801 | 57 | 37 | 11.0 | 17.0 | 0.00 | 0.00 | 0.00 | 34 | 1012.0 |
| 20260504010747 | 57 | 41 | 10.0 | 17.0 | 0.00 | 0.00 | 0.00 | 34 | 1012.0 |
| 20260504010740 | 57 | 20 | 13.0 | 17.0 | 0.00 | 0.00 | 0.00 | 34 | 1012.0 |
| 20260504010715 | 57 | 22 | 12.0 | 17.0 | 0.00 | 0.00 | 0.00 | 34 | 1012.0 |
| 20260504010644 | 57 | 6 | 11.0 | 14.0 | 0.00 | 0.00 | 0.00 | 34 | 1012.0 |
| 20260504010618 | 57 | 33 | 8.0 | 14.0 | 0.00 | 0.00 | 0.00 | 34 | 1012.0 |
| 20260504010609 | 57 | 314 | 7.0 | 14.0 | 0.00 | 0.00 | 0.00 | 34 | 1012.0 |
| 20260504010549 | 57 | 22 | 6.0 | 14.0 | 0.00 | 0.00 | 0.00 | 34 | 1012.0 |
| 20260504010530 | 57 | 22 | 8.0 | 14.0 | 0.00 | 0.00 | 0.00 | 34 | 1012.0 |
| 20260504010522 | 57 | 17 | 11.0 | 14.0 | 0.00 | 0.00 | 0.00 | 34 | 1012.0 |
| 20260504010506 | 57 | 27 | 7.0 | 11.0 | 0.00 | 0.00 | 0.00 | 34 | 1012.0 |
| 20260504010457 | 57 | 27 | 7.0 | 11.0 | 0.00 | 0.00 | 0.00 | 34 | 1012.0 |
| 20260504010446 | 57 | 0 | 6.0 | 11.0 | 0.00 | 0.00 | 0.00 | 34 | 1012.0 |
| 20260504010410 | 57 | 343 | 9.0 | 14.0 | 0.00 | 0.00 | 0.00 | 34 | 1012.0 |
| 20260504010401 | 57 | 348 | 8.0 | 14.0 | 0.00 | 0.00 | 0.00 | 33 | 1012.0 |
| 20260504010340 | 57 | 22 | 10.0 | 14.0 | 0.00 | 0.00 | 0.00 | 33 | 1012.0 |
| 20260504010316 | 57 | 342 | 6.0 | 14.0 | 0.00 | 0.00 | 0.00 | 33 | 1012.0 |
| 20260504010252 | 57 | 42 | 8.0 | 14.0 | 0.00 | 0.00 | 0.00 | 34 | 1012.0 |
| 20260504010234 | 57 | 39 | 10.0 | 13.0 | 0.00 | 0.00 | 0.00 | 34 | 1012.0 |
| 20260504010217 | 57 | 26 | 10.0 | 13.0 | 0.00 | 0.00 | 0.00 | 34 | 1012.0 |
| 20260504010205 | 57 | 8 | 8.0 | 16.0 | 0.00 | 0.00 | 0.00 | 34 | 1012.0 |
| 20260504010157 | 57 | 8 | 8.0 | 16.0 | 0.00 | 0.00 | 0.00 | 34 | 1012.0 |
| 20260504010138 | 57 | 45 | 9.0 | 16.0 | 0.00 | 0.00 | 0.00 | 34 | 1012.0 |
| 20260504010122 | 57 | 309 | 7.0 | 16.0 | 0.00 | 0.00 | 0.00 | 34 | 1012.0 |
| 20260504010114 | 57 | 40 | 7.0 | 16.0 | 0.00 | 0.00 | 0.00 | 34 | 1012.0 |
| 20260504010100 | 57 | 4 | 8.0 | 16.0 | 0.00 | 0.00 | 0.00 | 34 | 1012.0 |
| 20260504010034 | 57 | 26 | 10.0 | 16.0 | 0.00 | 0.00 | 0.00 | 34 | 1012.0 |
| 20260504010019 | 57 | 27 | 8.0 | 14.0 | 0.00 | 0.00 | 0.00 | 34 | 1012.0 |
| 20260504010003 | 57 | 334 | 5.0 | 14.0 | 0.00 | 0.00 | 0.00 | 34 | 1012.0 |
| 20260504005947 | 57 | 1 | 6.0 | 14.0 | 0.00 | 0.00 | 0.00 | 34 | 1012.0 |
| 20260504005938 | 57 | 29 | 4.0 | 14.0 | 0.00 | 0.00 | 0.00 | 34 | 1012.0 |
| 20260504005914 | 57 | 0 | 6.0 | 14.0 | 0.00 | 0.00 | 0.00 | 34 | 1012.0 |
| 20260504005905 | 57 | 7 | 8.0 | 14.0 | 0.00 | 0.00 | 0.00 | 34 | 1012.0 |
| 20260504005842 | 57 | 16 | 8.0 | 14.0 | 0.00 | 0.00 | 0.00 | 34 | 1012.0 |
| 20260504005828 | 57 | 10 | 4.0 | 15.0 | 0.00 | 0.00 | 0.00 | 34 | 1012.0 |
| 20260504005821 | 57 | 17 | 6.0 | 15.0 | 0.00 | 0.00 | 0.00 | 34 | 1012.0 |
| 20260504005802 | 57 | 7 | 7.0 | 17.0 | 0.00 | 0.00 | 0.00 | 34 | 1012.0 |
| 20260504005730 | 57 | 29 | 10.0 | 17.0 | 0.00 | 0.00 | 0.00 | 34 | 1012.0 |
| 20260504005722 | 57 | 1 | 11.0 | 17.0 | 0.00 | 0.00 | 0.00 | 34 | 1012.0 |
| 20260504005708 | 57 | 4 | 6.0 | 17.0 | 0.00 | 0.00 | 0.00 | 34 | 1012.0 |
| 20260504005641 | 57 | 24 | 10.0 | 17.0 | 0.00 | 0.00 | 0.00 | 34 | 1012.0 |
| 20260504005627 | 57 | 20 | 12.0 | 17.0 | 0.00 | 0.00 | 0.00 | 34 | 1012.0 |
| 20260504005609 | 57 | 354 | 8.0 | 11.0 | 0.00 | 0.00 | 0.00 | 34 | 1012.0 |
| 20260504005553 | 57 | 358 | 8.0 | 13.0 | 0.00 | 0.00 | 0.00 | 34 | 1012.0 |
| 20260504005542 | 57 | 329 | 8.0 | 13.0 | 0.00 | 0.00 | 0.00 | 34 | 1012.0 |
| 20260504005508 | 57 | 13 | 7.0 | 13.0 | 0.00 | 0.00 | 0.00 | 35 | 1012.0 |
| 20260504005450 | 57 | 344 | 7.0 | 13.0 | 0.00 | 0.00 | 0.00 | 35 | 1012.0 |
| 20260504005434 | 57 | 351 | 8.0 | 13.0 | 0.00 | 0.00 | 0.00 | 35 | 1012.0 |
| 20260504005425 | 57 | 325 | 9.0 | 13.0 | 0.00 | 0.00 | 0.00 | 35 | 1012.0 |
| 20260504005405 | 57 | 2 | 4.0 | 9.0 | 0.00 | 0.00 | 0.00 | 35 | 1012.0 |
| 20260504005346 | 57 | 345 | 6.0 | 9.0 | 0.00 | 0.00 | 0.00 | 35 | 1012.0 |
| 20260504005329 | 57 | 8 | 4.0 | 16.0 | 0.00 | 0.00 | 0.00 | 35 | 1012.0 |
| 20260504005306 | 57 | 28 | 6.0 | 16.0 | 0.00 | 0.00 | 0.00 | 35 | 1012.0 |
| 20260504005250 | 57 | 17 | 7.0 | 16.0 | 0.00 | 0.00 | 0.00 | 35 | 1012.0 |
| 20260504005242 | 57 | 341 | 7.0 | 16.0 | 0.00 | 0.00 | 0.00 | 35 | 1012.0 |
| 20260504005225 | 57 | 14 | 7.0 | 16.0 | 0.00 | 0.00 | 0.00 | 35 | 1012.0 |
| 20260504005202 | 57 | 356 | 11.0 | 16.0 | 0.00 | 0.00 | 0.00 | 35 | 1012.0 |
| 20260504005146 | 57 | 23 | 11.0 | 15.0 | 0.00 | 0.00 | 0.00 | 35 | 1012.0 |
| 20260504005140 | 57 | 38 | 7.0 | 15.0 | 0.00 | 0.00 | 0.00 | 35 | 1012.0 |
| 20260504005121 | 57 | 4 | 9.0 | 15.0 | 0.00 | 0.00 | 0.00 | 35 | 1012.0 |
| 20260504005106 | 57 | 7 | 11.0 | 15.0 | 0.00 | 0.00 | 0.00 | 34 | 1012.0 |
| 20260504005057 | 57 | 7 | 11.0 | 15.0 | 0.00 | 0.00 | 0.00 | 34 | 1012.0 |
| 20260504005043 | 57 | 53 | 8.0 | 13.0 | 0.00 | 0.00 | 0.00 | 34 | 1012.0 |
| 20260504005034 | 57 | 357 | 5.0 | 9.0 | 0.00 | 0.00 | 0.00 | 34 | 1012.0 |
| 20260504005018 | 57 | 351 | 6.0 | 9.0 | 0.00 | 0.00 | 0.00 | 34 | 1012.0 |
| 20260504005002 | 57 | 14 | 8.0 | 14.0 | 0.00 | 0.00 | 0.00 | 35 | 1012.0 |
| 20260504004954 | 57 | 14 | 8.0 | 14.0 | 0.00 | 0.00 | 0.00 | 35 | 1012.0 |
| 20260504004938 | 57 | 5 | 6.0 | 14.0 | 0.00 | 0.00 | 0.00 | 35 | 1012.0 |
| 20260504004930 | 57 | 357 | 5.0 | 14.0 | 0.00 | 0.00 | 0.00 | 35 | 1012.0 |
| 20260504004914 | 57 | 18 | 6.0 | 14.0 | 0.00 | 0.00 | 0.00 | 35 | 1012.0 |
| 20260504004850 | 57 | 8 | 6.0 | 14.0 | 0.00 | 0.00 | 0.00 | 35 | 1012.0 |
| 20260504004826 | 57 | 18 | 8.0 | 14.0 | 0.00 | 0.00 | 0.00 | 35 | 1012.0 |
| 20260504004810 | 57 | 357 | 9.0 | 14.0 | 0.00 | 0.00 | 0.00 | 35 | 1012.0 |
| 20260504004754 | 57 | 7 | 6.0 | 11.0 | 0.00 | 0.00 | 0.00 | 35 | 1012.0 |
| 20260504004745 | 57 | 19 | 8.0 | 11.0 | 0.00 | 0.00 | 0.00 | 35 | 1012.0 |
| 20260504004722 | 57 | 62 | 6.0 | 11.0 | 0.00 | 0.00 | 0.00 | 35 | 1012.0 |
| 20260504004709 | 57 | 8 | 7.0 | 11.0 | 0.00 | 0.00 | 0.00 | 35 | 1012.0 |
| 20260504004650 | 57 | 39 | 6.0 | 11.0 | 0.00 | 0.00 | 0.00 | 36 | 1012.0 |
| 20260504004635 | 57 | 3 | 5.0 | 11.0 | 0.00 | 0.00 | 0.00 | 36 | 1012.0 |
| 20260504004628 | 57 | 10 | 5.0 | 11.0 | 0.00 | 0.00 | 0.00 | 36 | 1012.0 |
| 20260504004603 | 57 | 314 | 8.0 | 14.0 | 0.00 | 0.00 | 0.00 | 36 | 1012.0 |
| 20260504004554 | 57 | 359 | 6.0 | 14.0 | 0.00 | 0.00 | 0.00 | 35 | 1012.0 |
| 20260504004543 | 57 | 332 | 8.0 | 14.0 | 0.00 | 0.00 | 0.00 | 35 | 1012.0 |
| 20260504004514 | 57 | 20 | 7.0 | 14.0 | 0.00 | 0.00 | 0.00 | 35 | 1012.0 |
| 20260504004457 | 57 | 26 | 6.0 | 15.0 | 0.00 | 0.00 | 0.00 | 35 | 1012.0 |
| 20260504004444 | 57 | 310 | 8.0 | 15.0 | 0.00 | 0.00 | 0.00 | 35 | 1012.0 |
| 20260504004434 | 57 | 41 | 7.0 | 15.0 | 0.00 | 0.00 | 0.00 | 35 | 1012.0 |
| 20260504004425 | 57 | 41 | 7.0 | 17.0 | 0.00 | 0.00 | 0.00 | 35 | 1012.0 |
| 20260504004412 | 57 | 56 | 10.0 | 17.0 | 0.00 | 0.00 | 0.00 | 35 | 1012.0 |
| 20260504004406 | 57 | 56 | 10.0 | 21.0 | 0.00 | 0.00 | 0.00 | 35 | 1012.0 |
| 20260504004346 | 57 | 37 | 7.0 | 21.0 | 0.00 | 0.00 | 0.00 | 35 | 1012.0 |
| 20260504004332 | 57 | 4 | 7.0 | 21.0 | 0.00 | 0.00 | 0.00 | 35 | 1012.0 |
| 20260504004326 | 57 | 16 | 9.0 | 21.0 | 0.00 | 0.00 | 0.00 | 35 | 1012.0 |
| 20260504004249 | 57 | 350 | 10.0 | 21.0 | 0.00 | 0.00 | 0.00 | 35 | 1012.0 |
| 20260504004226 | 57 | 358 | 11.0 | 21.0 | 0.00 | 0.00 | 0.00 | 35 | 1012.0 |
| 20260504004210 | 57 | 41 | 12.0 | 19.0 | 0.00 | 0.00 | 0.00 | 35 | 1012.0 |
| 20260504004201 | 57 | 17 | 14.0 | 19.0 | 0.00 | 0.00 | 0.00 | 35 | 1012.0 |
| 20260504004145 | 57 | 3 | 14.0 | 19.0 | 0.00 | 0.00 | 0.00 | 35 | 1012.0 |
| 20260504004124 | 57 | 26 | 11.0 | 19.0 | 0.00 | 0.00 | 0.00 | 35 | 1012.0 |
| 20260504004058 | 57 | 29 | 6.0 | 19.0 | 0.00 | 0.00 | 0.00 | 35 | 1012.0 |
| 20260504004038 | 57 | 351 | 5.0 | 19.0 | 0.00 | 0.00 | 0.00 | 35 | 1012.0 |
| 20260504004017 | 57 | 350 | 11.0 | 19.0 | 0.00 | 0.00 | 0.00 | 35 | 1012.0 |
| 20260504004004 | 57 | 31 | 7.0 | 14.0 | 0.00 | 0.00 | 0.00 | 35 | 1012.0 |
| 20260504003941 | 57 | 354 | 9.0 | 14.0 | 0.00 | 0.00 | 0.00 | 35 | 1012.0 |
| 20260504003921 | 58 | 6 | 4.0 | 13.0 | 0.00 | 0.00 | 0.00 | 35 | 1012.0 |
| 20260504003908 | 58 | 331 | 4.0 | 13.0 | 0.00 | 0.00 | 0.00 | 35 | 1012.0 |
| 20260504003850 | 58 | 11 | 6.0 | 13.0 | 0.00 | 0.00 | 0.00 | 35 | 1012.0 |
| 20260504003835 | 58 | 5 | 6.0 | 13.0 | 0.00 | 0.00 | 0.00 | 35 | 1012.0 |
| 20260504003805 | 58 | 5 | 7.0 | 15.0 | 0.00 | 0.00 | 0.00 | 34 | 1012.0 |
| 20260504003746 | 58 | 7 | 7.0 | 15.0 | 0.00 | 0.00 | 0.00 | 34 | 1012.0 |
| 20260504003729 | 58 | 38 | 6.0 | 15.0 | 0.00 | 0.00 | 0.00 | 34 | 1012.0 |
| 20260504003714 | 58 | 47 | 8.0 | 15.0 | 0.00 | 0.00 | 0.00 | 34 | 1012.0 |
| 20260504003705 | 58 | 38 | 10.0 | 15.0 | 0.00 | 0.00 | 0.00 | 34 | 1012.0 |
| 20260504003642 | 58 | 18 | 9.0 | 15.0 | 0.00 | 0.00 | 0.00 | 34 | 1012.0 |
| 20260504003626 | 58 | 17 | 11.0 | 15.0 | 0.00 | 0.00 | 0.00 | 34 | 1012.0 |
| 20260504003610 | 58 | 39 | 7.0 | 11.0 | 0.00 | 0.00 | 0.00 | 34 | 1012.0 |
| 20260504003601 | 58 | 30 | 7.0 | 11.0 | 0.00 | 0.00 | 0.00 | 34 | 1012.0 |
| 20260504003538 | 58 | 2 | 8.0 | 11.0 | 0.00 | 0.00 | 0.00 | 34 | 1012.0 |
| 20260504003522 | 58 | 339 | 5.0 | 15.0 | 0.00 | 0.00 | 0.00 | 34 | 1012.0 |
| 20260504003506 | 58 | 339 | 4.0 | 15.0 | 0.00 | 0.00 | 0.00 | 33 | 1012.0 |
| 20260504003458 | 58 | 339 | 4.0 | 15.0 | 0.00 | 0.00 | 0.00 | 33 | 1012.0 |
| 20260504003444 | 58 | 30 | 5.0 | 15.0 | 0.00 | 0.00 | 0.00 | 33 | 1012.0 |
| 20260504003417 | 58 | 359 | 9.0 | 15.0 | 0.00 | 0.00 | 0.00 | 33 | 1012.0 |
| 20260504003403 | 58 | 24 | 11.0 | 15.0 | 0.00 | 0.00 | 0.00 | 34 | 1012.0 |
| 20260504003353 | 58 | 24 | 11.0 | 15.0 | 0.00 | 0.00 | 0.00 | 34 | 1012.0 |
| 20260504003338 | 58 | 350 | 8.0 | 15.0 | 0.00 | 0.00 | 0.00 | 34 | 1012.0 |
| 20260504003313 | 58 | 1 | 6.0 | 13.0 | 0.00 | 0.00 | 0.00 | 34 | 1012.0 |
| 20260504003249 | 58 | 17 | 9.0 | 16.0 | 0.00 | 0.00 | 0.00 | 34 | 1012.0 |
| 20260504003234 | 58 | 34 | 6.0 | 16.0 | 0.00 | 0.00 | 0.00 | 34 | 1012.0 |
| 20260504003225 | 58 | 4 | 6.0 | 16.0 | 0.00 | 0.00 | 0.00 | 34 | 1012.0 |
| 20260504003202 | 58 | 348 | 10.0 | 16.0 | 0.00 | 0.00 | 0.00 | 34 | 1012.0 |
| 20260504003153 | 58 | 54 | 8.0 | 16.0 | 0.00 | 0.00 | 0.00 | 34 | 1012.0 |
| 20260504003133 | 58 | 28 | 9.0 | 16.0 | 0.00 | 0.00 | 0.00 | 34 | 1012.0 |
| 20260504003114 | 58 | 31 | 9.0 | 16.0 | 0.00 | 0.00 | 0.00 | 34 | 1012.0 |
| 20260504003101 | 58 | 338 | 8.0 | 23.0 | 0.00 | 0.00 | 0.00 | 34 | 1012.0 |
| 20260504003052 | 58 | 338 | 8.0 | 23.0 | 0.00 | 0.00 | 0.00 | 34 | 1012.0 |
| 20260504003044 | 58 | 16 | 8.0 | 23.0 | 0.00 | 0.00 | 0.00 | 34 | 1012.0 |
| 20260504003024 | 58 | 355 | 8.0 | 23.0 | 0.00 | 0.00 | 0.00 | 34 | 1012.0 |
| 20260504003002 | 58 | 7 | 8.0 | 23.0 | 0.00 | 0.00 | 0.00 | 34 | 1012.0 |
| 20260504002949 | 58 | 323 | 14.0 | 23.0 | 0.00 | 0.00 | 0.00 | 34 | 1012.0 |
| 20260504002929 | 58 | 358 | 12.0 | 23.0 | 0.00 | 0.00 | 0.00 | 34 | 1012.0 |
| 20260504002914 | 58 | 23 | 12.0 | 21.0 | 0.00 | 0.00 | 0.00 | 34 | 1012.0 |
| 20260504002906 | 58 | 342 | 12.0 | 21.0 | 0.00 | 0.00 | 0.00 | 34 | 1012.0 |
| 20260504002844 | 58 | 15 | 13.0 | 18.0 | 0.00 | 0.00 | 0.00 | 34 | 1012.0 |
| 20260504002817 | 58 | 17 | 9.0 | 17.0 | 0.00 | 0.00 | 0.00 | 34 | 1012.0 |
| 20260504002808 | 58 | 2 | 11.0 | 17.0 | 0.00 | 0.00 | 0.00 | 34 | 1012.0 |
| 20260504002750 | 58 | 290 | 13.0 | 15.0 | 0.00 | 0.00 | 0.00 | 34 | 1012.0 |
| 20260504002721 | 58 | 348 | 8.0 | 18.0 | 0.00 | 0.00 | 0.00 | 34 | 1012.0 |
| 20260504002708 | 58 | 24 | 7.0 | 18.0 | 0.00 | 0.00 | 0.00 | 34 | 1012.0 |
| 20260504002643 | 58 | 34 | 6.0 | 18.0 | 0.00 | 0.00 | 0.00 | 34 | 1012.0 |
| 20260504002625 | 58 | 347 | 8.0 | 18.0 | 0.00 | 0.00 | 0.00 | 34 | 1012.0 |
| 20260504002609 | 58 | 29 | 8.0 | 18.0 | 0.00 | 0.00 | 0.00 | 34 | 1012.0 |
| 20260504002558 | 58 | 5 | 6.0 | 18.0 | 0.00 | 0.00 | 0.00 | 34 | 1012.0 |
| 20260504002539 | 58 | 351 | 12.0 | 18.0 | 0.00 | 0.00 | 0.00 | 35 | 1012.0 |
| 20260504002529 | 58 | 37 | 10.0 | 13.0 | 0.00 | 0.00 | 0.00 | 35 | 1012.0 |
| 20260504002516 | 58 | 18 | 6.0 | 10.0 | 0.00 | 0.00 | 0.00 | 35 | 1012.0 |
| 20260504002449 | 58 | 6 | 4.0 | 10.0 | 0.00 | 0.00 | 0.00 | 35 | 1012.0 |
| 20260504002434 | 58 | 335 | 6.0 | 10.0 | 0.00 | 0.00 | 0.00 | 35 | 1012.0 |
| 20260504002425 | 58 | 23 | 7.0 | 14.0 | 0.00 | 0.00 | 0.00 | 35 | 1012.0 |
| 20260504002401 | 58 | 9 | 5.0 | 14.0 | 0.00 | 0.00 | 0.00 | 35 | 1012.0 |
| 20260504002345 | 58 | 355 | 6.0 | 14.0 | 0.00 | 0.00 | 0.00 | 35 | 1012.0 |
| 20260504002331 | 58 | 74 | 4.0 | 14.0 | 0.00 | 0.00 | 0.00 | 34 | 1012.0 |
| 20260504002313 | 58 | 327 | 8.0 | 14.0 | 0.00 | 0.00 | 0.00 | 34 | 1012.0 |
| 20260504002257 | 58 | 39 | 8.0 | 14.0 | 0.00 | 0.00 | 0.00 | 34 | 1012.0 |
| 20260504002244 | 58 | 356 | 11.0 | 14.0 | 0.00 | 0.00 | 0.00 | 34 | 1012.0 |
| 20260504002237 | 58 | 15 | 10.0 | 14.0 | 0.00 | 0.00 | 0.00 | 34 | 1012.0 |
| 20260504002217 | 58 | 15 | 10.0 | 16.0 | 0.00 | 0.00 | 0.00 | 34 | 1012.0 |
| 20260504002202 | 58 | 20 | 10.0 | 16.0 | 0.00 | 0.00 | 0.00 | 34 | 1012.0 |
| 20260504002154 | 58 | 311 | 9.0 | 16.0 | 0.00 | 0.00 | 0.00 | 34 | 1012.0 |
| 20260504002140 | 58 | 347 | 6.0 | 16.0 | 0.00 | 0.00 | 0.00 | 34 | 1012.0 |
| 20260504002122 | 58 | 5 | 8.0 | 16.0 | 0.00 | 0.00 | 0.00 | 35 | 1012.0 |
| 20260504002110 | 58 | 25 | 11.0 | 16.0 | 0.00 | 0.00 | 0.00 | 35 | 1012.0 |
| 20260504002028 | 58 | 6 | 7.0 | 16.0 | 0.00 | 0.00 | 0.00 | 35 | 1012.0 |
| 20260504002010 | 58 | 39 | 7.0 | 16.0 | 0.00 | 0.00 | 0.00 | 35 | 1012.0 |
| 20260504001954 | 58 | 355 | 11.0 | 16.0 | 0.00 | 0.00 | 0.00 | 35 | 1012.0 |
| 20260504001945 | 58 | 7 | 13.0 | 16.0 | 0.00 | 0.00 | 0.00 | 35 | 1012.0 |
| 20260504001929 | 58 | 24 | 8.0 | 18.0 | 0.00 | 0.00 | 0.00 | 35 | 1012.0 |
| 20260504001908 | 58 | 2 | 10.0 | 18.0 | 0.00 | 0.00 | 0.00 | 35 | 1012.0 |
| 20260504001841 | 58 | 33 | 6.0 | 18.0 | 0.00 | 0.00 | 0.00 | 35 | 1012.0 |
| 20260504001817 | 58 | 319 | 8.0 | 18.0 | 0.00 | 0.00 | 0.00 | 35 | 1012.0 |
| 20260504001802 | 58 | 22 | 10.0 | 18.0 | 0.00 | 0.00 | 0.00 | 35 | 1012.0 |
| 20260504001753 | 58 | 22 | 10.0 | 18.0 | 0.00 | 0.00 | 0.00 | 35 | 1012.0 |
| 20260504001739 | 58 | 9 | 12.0 | 18.0 | 0.00 | 0.00 | 0.00 | 35 | 1012.0 |
| 20260504001721 | 58 | 26 | 10.0 | 16.0 | 0.00 | 0.00 | 0.00 | 35 | 1012.0 |
| 20260504001706 | 58 | 32 | 9.0 | 16.0 | 0.00 | 0.00 | 0.00 | 35 | 1012.0 |
| 20260504001657 | 58 | 43 | 8.0 | 16.0 | 0.00 | 0.00 | 0.00 | 35 | 1012.0 |
| 20260504001636 | 58 | 352 | 13.0 | 16.0 | 0.00 | 0.00 | 0.00 | 35 | 1012.0 |
| 20260504001601 | 58 | 326 | 6.0 | 11.0 | 0.00 | 0.00 | 0.00 | 35 | 1012.0 |
| 20260504001546 | 58 | 353 | 8.0 | 11.0 | 0.00 | 0.00 | 0.00 | 35 | 1012.0 |
| 20260504001537 | 58 | 59 | 9.0 | 11.0 | 0.00 | 0.00 | 0.00 | 35 | 1012.0 |
| 20260504001521 | 58 | 349 | 6.0 | 10.0 | 0.00 | 0.00 | 0.00 | 35 | 1012.0 |
| 20260504001506 | 58 | 14 | 5.0 | 10.0 | 0.00 | 0.00 | 0.00 | 35 | 1012.0 |
| 20260504001457 | 58 | 14 | 5.0 | 10.0 | 0.00 | 0.00 | 0.00 | 35 | 1012.0 |
| 20260504001443 | 58 | 4 | 6.0 | 10.0 | 0.00 | 0.00 | 0.00 | 35 | 1012.0 |
| 20260504001426 | 58 | 14 | 4.0 | 10.0 | 0.00 | 0.00 | 0.00 | 35 | 1012.0 |
| 20260504001410 | 58 | 332 | 8.0 | 10.0 | 0.00 | 0.00 | 0.00 | 35 | 1012.0 |
| 20260504001401 | 58 | 44 | 4.0 | 8.0 | 0.00 | 0.00 | 0.00 | 35 | 1012.0 |
| 20260504001339 | 57 | 317 | 2.0 | 8.0 | 0.00 | 0.00 | 0.00 | 35 | 1012.0 |
| 20260504001315 | 57 | 280 | 4.0 | 8.0 | 0.00 | 0.00 | 0.00 | 35 | 1012.0 |
| 20260504001245 | 57 | 344 | 6.0 | 16.0 | 0.00 | 0.00 | 0.00 | 35 | 1012.0 |
| 20260504001226 | 57 | 6 | 5.0 | 16.0 | 0.00 | 0.00 | 0.00 | 35 | 1012.0 |
| 20260504001218 | 57 | 347 | 7.0 | 16.0 | 0.00 | 0.00 | 0.00 | 35 | 1012.0 |
| 20260504001202 | 57 | 17 | 7.0 | 16.0 | 0.00 | 0.00 | 0.00 | 35 | 1012.0 |
| 20260504001153 | 57 | 17 | 7.0 | 16.0 | 0.00 | 0.00 | 0.00 | 35 | 1012.0 |
| 20260504001139 | 57 | 1 | 5.0 | 16.0 | 0.00 | 0.00 | 0.00 | 35 | 1012.0 |
| 20260504001121 | 57 | 340 | 9.0 | 16.0 | 0.00 | 0.00 | 0.00 | 35 | 1012.0 |
| 20260504001106 | 57 | 355 | 8.0 | 11.0 | 0.00 | 0.00 | 0.00 | 35 | 1012.0 |
| 20260504001057 | 57 | 12 | 7.0 | 13.0 | 0.00 | 0.00 | 0.00 | 35 | 1012.0 |
| 20260504001034 | 57 | 359 | 6.0 | 13.0 | 0.00 | 0.00 | 0.00 | 35 | 1012.0 |
| 20260504001025 | 57 | 36 | 6.0 | 14.0 | 0.00 | 0.00 | 0.00 | 35 | 1012.0 |
| 20260504001012 | 57 | 12 | 8.0 | 14.0 | 0.00 | 0.00 | 0.00 | 35 | 1012.0 |
| 20260504000947 | 57 | 2 | 7.0 | 14.0 | 0.00 | 0.00 | 0.00 | 35 | 1012.0 |
| 20260504000940 | 57 | 4 | 8.0 | 14.0 | 0.00 | 0.00 | 0.00 | 35 | 1012.0 |
| 20260504000913 | 57 | 331 | 8.0 | 15.0 | 0.00 | 0.00 | 0.00 | 35 | 1012.0 |
| 20260504000900 | 57 | 3 | 11.0 | 15.0 | 0.00 | 0.00 | 0.00 | 35 | 1012.0 |
| 20260504000851 | 57 | 3 | 11.0 | 15.0 | 0.00 | 0.00 | 0.00 | 35 | 1012.0 |
| 20260504000843 | 57 | 22 | 5.0 | 15.0 | 0.00 | 0.00 | 0.00 | 35 | 1012.0 |
| 20260504000818 | 57 | 353 | 8.0 | 15.0 | 0.00 | 0.00 | 0.00 | 35 | 1012.0 |
| 20260504000809 | 57 | 32 | 11.0 | 15.0 | 0.00 | 0.00 | 0.00 | 35 | 1012.0 |
| 20260504000753 | 57 | 350 | 11.0 | 14.0 | 0.00 | 0.00 | 0.00 | 35 | 1012.0 |
| 20260504000738 | 57 | 41 | 7.0 | 10.0 | 0.00 | 0.00 | 0.00 | 35 | 1012.0 |
| 20260504000729 | 58 | 41 | 7.0 | 10.0 | 0.00 | 0.00 | 0.00 | 34 | 1012.0 |
| 20260504000714 | 58 | 341 | 8.0 | 10.0 | 0.00 | 0.00 | 0.00 | 34 | 1012.0 |
| 20260504000705 | 58 | 20 | 8.0 | 9.0 | 0.00 | 0.00 | 0.00 | 34 | 1012.0 |
| 20260504000652 | 58 | 359 | 7.0 | 14.0 | 0.00 | 0.00 | 0.00 | 34 | 1012.0 |
| 20260504000633 | 58 | 11 | 5.0 | 14.0 | 0.00 | 0.00 | 0.00 | 34 | 1012.0 |
| 20260504000601 | 58 | 337 | 7.0 | 14.0 | 0.00 | 0.00 | 0.00 | 35 | 1012.0 |
| 20260504000537 | 58 | 24 | 10.0 | 14.0 | 0.00 | 0.00 | 0.00 | 35 | 1012.0 |
| 20260504000527 | 58 | 352 | 8.0 | 13.0 | 0.00 | 0.00 | 0.00 | 35 | 1012.0 |
| 20260504000441 | 58 | 354 | 3.0 | 9.0 | 0.00 | 0.00 | 0.00 | 35 | 1012.0 |
| 20260504000427 | 58 | 347 | 2.0 | 9.0 | 0.00 | 0.00 | 0.00 | 35 | 1012.0 |
| 20260504000403 | 58 | 20 | 6.0 | 9.0 | 0.00 | 0.00 | 0.00 | 35 | 1012.0 |
| 20260504000354 | 58 | 20 | 6.0 | 9.0 | 0.00 | 0.00 | 0.00 | 35 | 1012.0 |
| 20260504000346 | 58 | 4 | 7.0 | 9.0 | 0.00 | 0.00 | 0.00 | 35 | 1012.0 |
| 20260504000322 | 58 | 322 | 5.0 | 10.0 | 0.00 | 0.00 | 0.00 | 35 | 1012.0 |
| 20260504000244 | 58 | 14 | 7.0 | 15.0 | 0.00 | 0.00 | 0.00 | 34 | 1012.0 |
| 20260504000219 | 58 | 354 | 4.0 | 15.0 | 0.00 | 0.00 | 0.00 | 34 | 1012.0 |
| 20260504000146 | 58 | 356 | 6.0 | 15.0 | 0.00 | 0.00 | 0.00 | 35 | 1012.0 |
| 20260504000138 | 58 | 42 | 8.0 | 15.0 | 0.00 | 0.00 | 0.00 | 35 | 1012.0 |
| 20260504000113 | 58 | 343 | 13.0 | 15.0 | 0.00 | 0.00 | 0.00 | 35 | 1012.0 |
| 20260504000100 | 58 | 34 | 10.0 | 13.0 | 0.00 | 0.00 | 0.00 | 35 | 1012.0 |
| 20260504000041 | 58 | 25 | 9.0 | 13.0 | 0.00 | 0.00 | 0.00 | 35 | 1012.0 |
| 20260504000017 | 58 | 356 | 8.0 | 10.0 | 0.00 | 0.00 | 0.00 | 35 | 1012.0 |
| 20260504000006 | 58 | 30 | 3.0 | 13.0 | 0.00 | 0.00 | 0.00 | 35 | 1012.0 |
| 20260503235957 | 58 | 314 | 3.0 | 13.0 | 0.00 | 0.00 | 0.00 | 35 | 1012.0 |
| 20260503235937 | 58 | 20 | 5.0 | 13.0 | 0.00 | 0.00 | 0.00 | 35 | 1012.0 |
| 20260503235917 | 58 | 8 | 5.0 | 14.0 | 0.00 | 0.00 | 0.00 | 35 | 1012.0 |
| 20260503235858 | 58 | 330 | 5.0 | 14.0 | 0.00 | 0.00 | 0.00 | 35 | 1012.0 |
| 20260503235849 | 58 | 0 | 6.0 | 14.0 | 0.00 | 0.00 | 0.00 | 35 | 1012.0 |
| 20260503235836 | 58 | 15 | 4.0 | 14.0 | 0.00 | 0.00 | 0.00 | 35 | 1012.0 |
| 20260503235815 | 58 | 323 | 9.0 | 14.0 | 0.00 | 0.00 | 0.00 | 35 | 1012.0 |
| 20260503235807 | 58 | 43 | 9.0 | 14.0 | 0.00 | 0.00 | 0.00 | 35 | 1012.0 |
| 20260503235749 | 58 | 20 | 4.0 | 10.0 | 0.00 | 0.00 | 0.00 | 35 | 1012.0 |
| 20260503235721 | 58 | 10 | 6.0 | 10.0 | 0.00 | 0.00 | 0.00 | 35 | 1012.0 |
| 20260503235706 | 58 | 351 | 8.0 | 10.0 | 0.00 | 0.00 | 0.00 | 35 | 1012.0 |
| 20260503235634 | 58 | 354 | 6.0 | 13.0 | 0.00 | 0.00 | 0.00 | 35 | 1012.0 |
| 20260503235625 | 58 | 7 | 6.0 | 15.0 | 0.00 | 0.00 | 0.00 | 35 | 1012.0 |
| 20260503235603 | 58 | 352 | 7.0 | 15.0 | 0.00 | 0.00 | 0.00 | 35 | 1012.0 |
| 20260503235555 | 58 | 352 | 7.0 | 15.0 | 0.00 | 0.00 | 0.00 | 35 | 1012.0 |
| 20260503235521 | 58 | 346 | 7.0 | 15.0 | 0.00 | 0.00 | 0.00 | 35 | 1012.0 |
| 20260503235505 | 58 | 24 | 8.0 | 15.0 | 0.00 | 0.00 | 0.00 | 35 | 1012.0 |
| 20260503235450 | 58 | 11 | 12.0 | 16.0 | 0.00 | 0.00 | 0.00 | 35 | 1012.0 |
| 20260503235441 | 58 | 354 | 9.0 | 16.0 | 0.00 | 0.00 | 0.00 | 35 | 1012.0 |
| 20260503235409 | 58 | 17 | 8.0 | 16.0 | 0.00 | 0.00 | 0.00 | 35 | 1012.0 |
| 20260503235345 | 58 | 353 | 8.0 | 16.0 | 0.00 | 0.00 | 0.00 | 35 | 1012.0 |
| 20260503235330 | 58 | 12 | 6.0 | 16.0 | 0.00 | 0.00 | 0.00 | 35 | 1012.0 |
| 20260503235314 | 58 | 356 | 9.0 | 16.0 | 0.00 | 0.00 | 0.00 | 35 | 1012.0 |
| 20260503235305 | 58 | 18 | 8.0 | 10.0 | 0.00 | 0.00 | 0.00 | 35 | 1012.0 |
| 20260503235243 | 58 | 37 | 6.0 | 14.0 | 0.00 | 0.00 | 0.00 | 35 | 1012.0 |
| 20260503235234 | 58 | 12 | 6.0 | 14.0 | 0.00 | 0.00 | 0.00 | 35 | 1012.0 |
| 20260503235209 | 58 | 39 | 7.0 | 14.0 | 0.00 | 0.00 | 0.00 | 35 | 1012.0 |
| 20260503235154 | 58 | 359 | 6.0 | 14.0 | 0.00 | 0.00 | 0.00 | 35 | 1012.0 |
| 20260503235138 | 58 | 328 | 6.0 | 14.0 | 0.00 | 0.00 | 0.00 | 35 | 1012.0 |
| 20260503235129 | 58 | 328 | 6.0 | 16.0 | 0.00 | 0.00 | 0.00 | 35 | 1012.0 |
| 20260503235115 | 58 | 2 | 7.0 | 16.0 | 0.00 | 0.00 | 0.00 | 35 | 1012.0 |
| 20260503235049 | 58 | 355 | 5.0 | 16.0 | 0.00 | 0.00 | 0.00 | 35 | 1012.0 |
| 20260503235027 | 58 | 289 | 8.0 | 16.0 | 0.00 | 0.00 | 0.00 | 35 | 1012.0 |
| 20260503235001 | 58 | 354 | 7.0 | 16.0 | 0.00 | 0.00 | 0.00 | 35 | 1012.0 |
| 20260503234937 | 58 | 327 | 10.0 | 16.0 | 0.00 | 0.00 | 0.00 | 35 | 1012.0 |
| 20260503234923 | 58 | 0 | 12.0 | 15.0 | 0.00 | 0.00 | 0.00 | 34 | 1012.0 |
| 20260503234914 | 58 | 18 | 10.0 | 15.0 | 0.00 | 0.00 | 0.00 | 34 | 1012.0 |
| 20260503234903 | 58 | 8 | 13.0 | 15.0 | 0.00 | 0.00 | 0.00 | 34 | 1012.0 |
| 20260503234855 | 58 | 8 | 13.0 | 15.0 | 0.00 | 0.00 | 0.00 | 34 | 1012.0 |
| 20260503234837 | 58 | 44 | 9.0 | 15.0 | 0.00 | 0.00 | 0.00 | 34 | 1012.0 |
| 20260503234819 | 58 | 335 | 10.0 | 15.0 | 0.00 | 0.00 | 0.00 | 35 | 1012.0 |
| 20260503234755 | 58 | 353 | 7.0 | 15.0 | 0.00 | 0.00 | 0.00 | 35 | 1012.0 |
| 20260503234731 | 58 | 359 | 8.0 | 23.0 | 0.00 | 0.00 | 0.00 | 35 | 1012.0 |
| 20260503234713 | 58 | 21 | 6.0 | 23.0 | 0.00 | 0.00 | 0.00 | 35 | 1012.0 |
| 20260503234650 | 58 | 9 | 10.0 | 23.0 | 0.00 | 0.00 | 0.00 | 35 | 1012.0 |
| 20260503234634 | 58 | 33 | 8.0 | 23.0 | 0.00 | 0.00 | 0.00 | 35 | 1012.0 |
| 20260503234626 | 58 | 85 | 10.0 | 23.0 | 0.00 | 0.00 | 0.00 | 35 | 1012.0 |
| 20260503234604 | 58 | 52 | 7.0 | 23.0 | 0.00 | 0.00 | 0.00 | 34 | 1012.0 |
| 20260503234546 | 58 | 3 | 14.0 | 23.0 | 0.00 | 0.00 | 0.00 | 34 | 1012.0 |
| 20260503234537 | 58 | 18 | 11.0 | 17.0 | 0.00 | 0.00 | 0.00 | 34 | 1012.0 |
| 20260503234514 | 58 | 43 | 6.0 | 17.0 | 0.00 | 0.00 | 0.00 | 34 | 1012.0 |
| 20260503234459 | 58 | 25 | 9.0 | 18.0 | 0.00 | 0.00 | 0.00 | 35 | 1012.0 |
| 20260503234450 | 58 | 349 | 8.0 | 18.0 | 0.00 | 0.00 | 0.00 | 35 | 1012.0 |
| 20260503234434 | 58 | 322 | 8.0 | 18.0 | 0.00 | 0.00 | 0.00 | 35 | 1012.0 |
| 20260503234408 | 58 | 12 | 12.0 | 18.0 | 0.00 | 0.00 | 0.00 | 35 | 1012.0 |
| 20260503234356 | 58 | 22 | 10.0 | 18.0 | 0.00 | 0.00 | 0.00 | 34 | 1012.0 |
| 20260503234338 | 58 | 31 | 11.0 | 18.0 | 0.00 | 0.00 | 0.00 | 34 | 1012.0 |
| 20260503234322 | 58 | 14 | 13.0 | 18.0 | 0.00 | 0.00 | 0.00 | 34 | 1012.0 |
| 20260503234312 | 58 | 19 | 8.0 | 18.0 | 0.00 | 0.00 | 0.00 | 34 | 1012.0 |
| 20260503234242 | 58 | 20 | 10.0 | 18.0 | 0.00 | 0.00 | 0.00 | 34 | 1012.0 |
| 20260503234225 | 58 | 18 | 7.0 | 18.0 | 0.00 | 0.00 | 0.00 | 34 | 1012.0 |
| 20260503234209 | 58 | 348 | 11.0 | 18.0 | 0.00 | 0.00 | 0.00 | 34 | 1012.0 |
| 20260503234201 | 58 | 14 | 11.0 | 16.0 | 0.00 | 0.00 | 0.00 | 34 | 1012.0 |
| 20260503234137 | 58 | 69 | 9.0 | 16.0 | 0.00 | 0.00 | 0.00 | 35 | 1012.0 |
| 20260503234122 | 58 | 9 | 7.0 | 18.0 | 0.00 | 0.00 | 0.00 | 35 | 1012.0 |
| 20260503234106 | 58 | 45 | 10.0 | 18.0 | 0.00 | 0.00 | 0.00 | 35 | 1012.0 |
| 20260503234058 | 58 | 340 | 14.0 | 18.0 | 0.00 | 0.00 | 0.00 | 35 | 1012.0 |
| 20260503234034 | 58 | 16 | 7.0 | 18.0 | 0.00 | 0.00 | 0.00 | 34 | 1012.0 |
| 20260503234018 | 58 | 17 | 6.0 | 18.0 | 0.00 | 0.00 | 0.00 | 34 | 1012.0 |
| 20260503234003 | 58 | 30 | 8.0 | 18.0 | 0.00 | 0.00 | 0.00 | 34 | 1012.0 |
| 20260503233947 | 58 | 34 | 11.0 | 18.0 | 0.00 | 0.00 | 0.00 | 34 | 1012.0 |
| 20260503233941 | 58 | 22 | 11.0 | 15.0 | 0.00 | 0.00 | 0.00 | 34 | 1012.0 |
| 20260503233921 | 58 | 5 | 7.0 | 13.0 | 0.00 | 0.00 | 0.00 | 34 | 1012.0 |
| 20260503233907 | 58 | 10 | 7.0 | 13.0 | 0.00 | 0.00 | 0.00 | 34 | 1012.0 |
| 20260503233859 | 58 | 10 | 7.0 | 13.0 | 0.00 | 0.00 | 0.00 | 34 | 1012.0 |
| 20260503233850 | 58 | 73 | 8.0 | 13.0 | 0.00 | 0.00 | 0.00 | 34 | 1012.0 |
| 20260503233835 | 58 | 36 | 7.0 | 13.0 | 0.00 | 0.00 | 0.00 | 34 | 1012.0 |
| 20260503233809 | 58 | 25 | 10.0 | 13.0 | 0.00 | 0.00 | 0.00 | 34 | 1012.0 |
| 20260503233747 | 58 | 14 | 8.0 | 13.0 | 0.00 | 0.00 | 0.00 | 34 | 1012.0 |
| 20260503233738 | 58 | 25 | 9.0 | 13.0 | 0.00 | 0.00 | 0.00 | 34 | 1012.0 |
| 20260503233722 | 58 | 35 | 10.0 | 16.0 | 0.00 | 0.00 | 0.00 | 34 | 1012.0 |
| 20260503233710 | 58 | 25 | 7.0 | 16.0 | 0.00 | 0.00 | 0.00 | 34 | 1012.0 |
| 20260503233652 | 58 | 14 | 9.0 | 16.0 | 0.00 | 0.00 | 0.00 | 34 | 1012.0 |
| 20260503233626 | 59 | 43 | 9.0 | 16.0 | 0.00 | 0.00 | 0.00 | 34 | 1012.0 |
| 20260503233617 | 59 | 357 | 6.0 | 16.0 | 0.00 | 0.00 | 0.00 | 34 | 1012.0 |
| 20260503233555 | 59 | 26 | 11.0 | 16.0 | 0.00 | 0.00 | 0.00 | 34 | 1012.0 |
| 20260503233545 | 59 | 26 | 7.0 | 10.0 | 0.00 | 0.00 | 0.00 | 34 | 1012.0 |
| 20260503233506 | 59 | 10 | 7.0 | 17.0 | 0.00 | 0.00 | 0.00 | 34 | 1012.0 |
| 20260503233452 | 59 | 10 | 6.0 | 17.0 | 0.00 | 0.00 | 0.00 | 34 | 1012.0 |
| 20260503233433 | 59 | 26 | 5.0 | 17.0 | 0.00 | 0.00 | 0.00 | 34 | 1012.0 |
| 20260503233417 | 59 | 40 | 5.0 | 17.0 | 0.00 | 0.00 | 0.00 | 34 | 1012.0 |
| 20260503233409 | 59 | 25 | 8.0 | 17.0 | 0.00 | 0.00 | 0.00 | 34 | 1012.0 |
| 20260503233323 | 59 | 48 | 13.0 | 18.0 | 0.00 | 0.00 | 0.00 | 34 | 1012.0 |
| 20260503233314 | 59 | 28 | 7.0 | 18.0 | 0.00 | 0.00 | 0.00 | 34 | 1012.0 |
| 20260503233303 | 59 | 32 | 10.0 | 18.0 | 0.00 | 0.00 | 0.00 | 34 | 1012.0 |
| 20260503233226 | 59 | 348 | 10.0 | 18.0 | 0.00 | 0.00 | 0.00 | 34 | 1012.0 |
| 20260503233217 | 59 | 348 | 10.0 | 18.0 | 0.00 | 0.00 | 0.00 | 33 | 1012.0 |
| 20260503233202 | 59 | 28 | 11.0 | 18.0 | 0.00 | 0.00 | 0.00 | 33 | 1012.0 |
| 20260503233149 | 59 | 37 | 12.0 | 18.0 | 0.00 | 0.00 | 0.00 | 33 | 1012.0 |
| 20260503233132 | 59 | 22 | 6.0 | 11.0 | 0.00 | 0.00 | 0.00 | 33 | 1012.0 |
| 20260503233106 | 59 | 27 | 7.0 | 11.0 | 0.00 | 0.00 | 0.00 | 33 | 1012.0 |
| 20260503233058 | 59 | 27 | 7.0 | 15.0 | 0.00 | 0.00 | 0.00 | 33 | 1012.0 |
| 20260503233042 | 59 | 0 | 4.0 | 15.0 | 0.00 | 0.00 | 0.00 | 33 | 1012.0 |
| 20260503233027 | 59 | 355 | 5.0 | 15.0 | 0.00 | 0.00 | 0.00 | 33 | 1012.0 |
| 20260503233017 | 59 | 350 | 6.0 | 15.0 | 0.00 | 0.00 | 0.00 | 33 | 1012.0 |
| 20260503233004 | 59 | 14 | 7.0 | 15.0 | 0.00 | 0.00 | 0.00 | 34 | 1012.0 |
| 20260503232954 | 59 | 14 | 7.0 | 15.0 | 0.00 | 0.00 | 0.00 | 34 | 1012.0 |
| 20260503232938 | 59 | 48 | 11.0 | 15.0 | 0.00 | 0.00 | 0.00 | 34 | 1012.0 |
| 20260503232913 | 59 | 33 | 6.0 | 13.0 | 0.00 | 0.00 | 0.00 | 34 | 1012.0 |
| 20260503232859 | 59 | 3 | 8.0 | 17.0 | 0.00 | 0.00 | 0.00 | 33 | 1012.0 |
| 20260503232850 | 59 | 0 | 8.0 | 17.0 | 0.00 | 0.00 | 0.00 | 33 | 1012.0 |
| 20260503232834 | 59 | 32 | 10.0 | 17.0 | 0.00 | 0.00 | 0.00 | 33 | 1012.0 |
| 20260503232810 | 59 | 62 | 10.0 | 17.0 | 0.00 | 0.00 | 0.00 | 33 | 1012.0 |
| 20260503232756 | 59 | 61 | 8.0 | 17.0 | 0.00 | 0.00 | 0.00 | 33 | 1012.0 |
| 20260503232730 | 59 | 47 | 12.0 | 17.0 | 0.00 | 0.00 | 0.00 | 33 | 1012.0 |
| 20260503232705 | 59 | 34 | 7.0 | 13.0 | 0.00 | 0.00 | 0.00 | 33 | 1012.0 |
| 20260503232652 | 59 | 13 | 6.0 | 11.0 | 0.00 | 0.00 | 0.00 | 33 | 1012.0 |
| 20260503232618 | 59 | 359 | 6.0 | 11.0 | 0.00 | 0.00 | 0.00 | 33 | 1012.0 |
| 20260503232609 | 59 | 19 | 8.0 | 11.0 | 0.00 | 0.00 | 0.00 | 33 | 1012.0 |
| 20260503232547 | 59 | 22 | 5.0 | 10.0 | 0.00 | 0.00 | 0.00 | 32 | 1012.0 |
| 20260503232537 | 59 | 348 | 6.0 | 10.0 | 0.00 | 0.00 | 0.00 | 32 | 1012.0 |
| 20260503232524 | 59 | 20 | 5.0 | 11.0 | 0.00 | 0.00 | 0.00 | 32 | 1012.0 |
| 20260503232500 | 59 | 18 | 6.0 | 11.0 | 0.00 | 0.00 | 0.00 | 32 | 1012.0 |
| 20260503232453 | 59 | 18 | 6.0 | 11.0 | 0.00 | 0.00 | 0.00 | 33 | 1012.0 |
| 20260503232434 | 59 | 14 | 6.0 | 11.0 | 0.00 | 0.00 | 0.00 | 33 | 1012.0 |
| 20260503232417 | 59 | 330 | 5.0 | 11.0 | 0.00 | 0.00 | 0.00 | 33 | 1012.0 |
| 20260503232404 | 59 | 33 | 8.0 | 11.0 | 0.00 | 0.00 | 0.00 | 33 | 1012.0 |
| 20260503232355 | 59 | 28 | 9.0 | 10.0 | 0.00 | 0.00 | 0.00 | 33 | 1012.0 |
| 20260503232345 | 59 | 28 | 9.0 | 10.0 | 0.00 | 0.00 | 0.00 | 32 | 1012.0 |
| 20260503232329 | 59 | 29 | 8.0 | 17.0 | 0.00 | 0.00 | 0.00 | 32 | 1012.0 |
| 20260503232317 | 59 | 353 | 6.0 | 17.0 | 0.00 | 0.00 | 0.00 | 32 | 1012.0 |
| 20260503232308 | 59 | 22 | 6.0 | 17.0 | 0.00 | 0.00 | 0.00 | 32 | 1012.0 |
| 20260503232300 | 59 | 22 | 6.0 | 17.0 | 0.00 | 0.00 | 0.00 | 32 | 1012.0 |
| 20260503232226 | 59 | 352 | 8.0 | 17.0 | 0.00 | 0.00 | 0.00 | 32 | 1012.0 |
| 20260503232209 | 59 | 39 | 7.0 | 17.0 | 0.00 | 0.00 | 0.00 | 32 | 1012.0 |
| 20260503232154 | 59 | 0 | 11.0 | 17.0 | 0.00 | 0.00 | 0.00 | 32 | 1012.0 |
| 20260503232146 | 59 | 9 | 8.0 | 15.0 | 0.00 | 0.00 | 0.00 | 32 | 1012.0 |
| 20260503232122 | 59 | 25 | 7.0 | 15.0 | 0.00 | 0.00 | 0.00 | 32 | 1012.0 |
| 20260503232112 | 59 | 4 | 12.0 | 15.0 | 0.00 | 0.00 | 0.00 | 32 | 1012.0 |
| 20260503232042 | 59 | 8 | 9.0 | 14.0 | 0.00 | 0.00 | 0.00 | 32 | 1012.0 |
| 20260503232033 | 59 | 9 | 8.0 | 14.0 | 0.00 | 0.00 | 0.00 | 32 | 1012.0 |
| 20260503232018 | 59 | 35 | 9.0 | 17.0 | 0.00 | 0.00 | 0.00 | 32 | 1012.0 |
| 20260503232003 | 59 | 8 | 9.0 | 17.0 | 0.00 | 0.00 | 0.00 | 32 | 1012.0 |
| 20260503231953 | 59 | 8 | 9.0 | 17.0 | 0.00 | 0.00 | 0.00 | 32 | 1012.0 |
| 20260503231937 | 59 | 355 | 10.0 | 17.0 | 0.00 | 0.00 | 0.00 | 32 | 1012.0 |
| 20260503231929 | 59 | 349 | 7.0 | 17.0 | 0.00 | 0.00 | 0.00 | 32 | 1012.0 |
| 20260503231857 | 59 | 350 | 12.0 | 17.0 | 0.00 | 0.00 | 0.00 | 32 | 1012.0 |
| 20260503231833 | 59 | 14 | 10.0 | 14.0 | 0.00 | 0.00 | 0.00 | 32 | 1012.0 |
| 20260503231819 | 59 | 32 | 7.0 | 14.0 | 0.00 | 0.00 | 0.00 | 32 | 1012.0 |
| 20260503231813 | 59 | 354 | 11.0 | 14.0 | 0.00 | 0.00 | 0.00 | 32 | 1012.0 |
| 20260503231746 | 59 | 34 | 11.0 | 14.0 | 0.00 | 0.00 | 0.00 | 32 | 1012.0 |
| 20260503231737 | 59 | 2 | 8.0 | 14.0 | 0.00 | 0.00 | 0.00 | 32 | 1012.0 |
| 20260503231714 | 59 | 357 | 10.0 | 14.0 | 0.00 | 0.00 | 0.00 | 32 | 1012.0 |
| 20260503231658 | 59 | 327 | 4.0 | 11.0 | 0.00 | 0.00 | 0.00 | 32 | 1012.0 |
| 20260503231642 | 59 | 3 | 8.0 | 11.0 | 0.00 | 0.00 | 0.00 | 32 | 1012.0 |
| 20260503231618 | 59 | 24 | 7.0 | 11.0 | 0.00 | 0.00 | 0.00 | 32 | 1012.0 |
| 20260503231609 | 59 | 16 | 8.0 | 11.0 | 0.00 | 0.00 | 0.00 | 32 | 1012.0 |
| 20260503231553 | 59 | 317 | 8.0 | 11.0 | 0.00 | 0.00 | 0.00 | 32 | 1012.0 |
| 20260503231530 | 59 | 353 | 5.0 | 11.0 | 0.00 | 0.00 | 0.00 | 32 | 1012.0 |
| 20260503231514 | 59 | 348 | 8.0 | 11.0 | 0.00 | 0.00 | 0.00 | 32 | 1012.0 |
| 20260503231505 | 59 | 15 | 7.0 | 11.0 | 0.00 | 0.00 | 0.00 | 32 | 1012.0 |
| 20260503231449 | 59 | 31 | 6.0 | 11.0 | 0.00 | 0.00 | 0.00 | 32 | 1012.0 |
| 20260503231427 | 59 | 20 | 6.0 | 11.0 | 0.00 | 0.00 | 0.00 | 32 | 1012.0 |
| 20260503231418 | 59 | 22 | 8.0 | 11.0 | 0.00 | 0.00 | 0.00 | 32 | 1012.0 |
| 20260503231401 | 59 | 357 | 6.0 | 14.0 | 0.00 | 0.00 | 0.00 | 32 | 1012.0 |
| 20260503231338 | 59 | 0 | 8.0 | 14.0 | 0.00 | 0.00 | 0.00 | 32 | 1012.0 |
| 20260503231324 | 59 | 23 | 4.0 | 14.0 | 0.00 | 0.00 | 0.00 | 32 | 1012.0 |
| 20260503231251 | 59 | 39 | 6.0 | 19.0 | 0.00 | 0.00 | 0.00 | 32 | 1012.0 |
| 20260503231218 | 59 | 5 | 9.0 | 19.0 | 0.00 | 0.00 | 0.00 | 32 | 1012.0 |
| 20260503231203 | 59 | 7 | 10.0 | 19.0 | 0.00 | 0.00 | 0.00 | 32 | 1012.0 |
| 20260503231157 | 59 | 7 | 10.0 | 19.0 | 0.00 | 0.00 | 0.00 | 32 | 1012.0 |
| 20260503231121 | 59 | 74 | 8.0 | 19.0 | 0.00 | 0.00 | 0.00 | 32 | 1012.0 |
| 20260503231106 | 59 | 11 | 10.0 | 13.0 | 0.00 | 0.00 | 0.00 | 32 | 1012.0 |
| 20260503231057 | 59 | 22 | 10.0 | 14.0 | 0.00 | 0.00 | 0.00 | 32 | 1012.0 |
| 20260503231045 | 59 | 42 | 8.0 | 14.0 | 0.00 | 0.00 | 0.00 | 32 | 1012.0 |
| 20260503231025 | 59 | 359 | 6.0 | 14.0 | 0.00 | 0.00 | 0.00 | 32 | 1012.0 |
| 20260503231002 | 59 | 60 | 8.0 | 14.0 | 0.00 | 0.00 | 0.00 | 32 | 1012.0 |
| 20260503230955 | 59 | 1 | 6.0 | 14.0 | 0.00 | 0.00 | 0.00 | 32 | 1012.0 |
| 20260503230913 | 59 | 50 | 11.0 | 15.0 | 0.00 | 0.00 | 0.00 | 32 | 1011.0 |
| 20260503230859 | 59 | 34 | 9.0 | 18.0 | 0.00 | 0.00 | 0.00 | 32 | 1011.0 |
| 20260503230853 | 59 | 5 | 9.0 | 18.0 | 0.00 | 0.00 | 0.00 | 31 | 1011.0 |
| 20260503230826 | 59 | 357 | 6.0 | 18.0 | 0.00 | 0.00 | 0.00 | 31 | 1012.0 |
| 20260503230817 | 59 | 294 | 11.0 | 18.0 | 0.00 | 0.00 | 0.00 | 31 | 1012.0 |
| 20260503230802 | 59 | 7 | 11.0 | 18.0 | 0.00 | 0.00 | 0.00 | 31 | 1012.0 |
| 20260503230754 | 59 | 7 | 11.0 | 18.0 | 0.00 | 0.00 | 0.00 | 31 | 1012.0 |
| 20260503230738 | 60 | 13 | 15.0 | 18.0 | 0.00 | 0.00 | 0.00 | 31 | 1012.0 |
| 20260503230713 | 60 | 338 | 14.0 | 16.0 | 0.00 | 0.00 | 0.00 | 31 | 1011.0 |
| 20260503230659 | 60 | 288 | 10.0 | 16.0 | 0.00 | 0.00 | 0.00 | 31 | 1011.0 |
| 20260503230642 | 60 | 327 | 10.0 | 16.0 | 0.00 | 0.00 | 0.00 | 31 | 1011.0 |
| 20260503230626 | 60 | 342 | 11.0 | 15.0 | 0.00 | 0.00 | 0.00 | 31 | 1012.0 |
| 20260503230617 | 60 | 17 | 12.0 | 15.0 | 0.00 | 0.00 | 0.00 | 31 | 1012.0 |
| 20260503230603 | 60 | 307 | 10.0 | 16.0 | 0.00 | 0.00 | 0.00 | 31 | 1012.0 |
| 20260503230554 | 60 | 307 | 10.0 | 16.0 | 0.00 | 0.00 | 0.00 | 31 | 1012.0 |
| 20260503230546 | 60 | 337 | 8.0 | 16.0 | 0.00 | 0.00 | 0.00 | 31 | 1012.0 |
| 20260503230521 | 60 | 332 | 8.0 | 16.0 | 0.00 | 0.00 | 0.00 | 31 | 1012.0 |
| 20260503230508 | 60 | 7 | 7.0 | 16.0 | 0.00 | 0.00 | 0.00 | 31 | 1012.0 |
| 20260503230502 | 60 | 333 | 8.0 | 22.0 | 0.00 | 0.00 | 0.00 | 31 | 1012.0 |
| 20260503230426 | 60 | 12 | 8.0 | 22.0 | 0.00 | 0.00 | 0.00 | 31 | 1011.0 |
| 20260503230401 | 60 | 10 | 6.0 | 22.0 | 0.00 | 0.00 | 0.00 | 31 | 1011.0 |
| 20260503230346 | 60 | 46 | 12.0 | 22.0 | 0.00 | 0.00 | 0.00 | 31 | 1011.0 |
| 20260503230337 | 60 | 14 | 17.0 | 22.0 | 0.00 | 0.00 | 0.00 | 31 | 1011.0 |
| 20260503230306 | 60 | 36 | 9.0 | 17.0 | 0.00 | 0.00 | 0.00 | 31 | 1012.0 |
| 20260503230257 | 60 | 359 | 6.0 | 17.0 | 0.00 | 0.00 | 0.00 | 31 | 1012.0 |
| 20260503230233 | 60 | 336 | 6.0 | 17.0 | 0.00 | 0.00 | 0.00 | 31 | 1012.0 |
| 20260503230220 | 60 | 34 | 11.0 | 17.0 | 0.00 | 0.00 | 0.00 | 31 | 1011.0 |
| 20260503230201 | 60 | 98 | 8.0 | 22.0 | 0.00 | 0.00 | 0.00 | 31 | 1011.0 |
| 20260503230147 | 60 | 15 | 11.0 | 22.0 | 0.00 | 0.00 | 0.00 | 31 | 1011.0 |
| 20260503230129 | 60 | 30 | 10.0 | 22.0 | 0.00 | 0.00 | 0.00 | 31 | 1011.0 |
| 20260503230114 | 60 | 87 | 9.0 | 22.0 | 0.00 | 0.00 | 0.00 | 31 | 1011.0 |
| 20260503230105 | 60 | 354 | 11.0 | 22.0 | 0.00 | 0.00 | 0.00 | 31 | 1011.0 |
| 20260503230045 | 60 | 351 | 11.0 | 22.0 | 0.00 | 0.00 | 0.00 | 31 | 1011.0 |
| 20260503230026 | 60 | 28 | 11.0 | 22.0 | 0.00 | 0.00 | 0.00 | 31 | 1011.0 |
| 20260503230018 | 60 | 322 | 12.0 | 22.0 | 0.00 | 0.00 | 0.00 | 31 | 1011.0 |
| 20260503230002 | 60 | 8 | 12.0 | 17.0 | 0.00 | 0.00 | 0.00 | 31 | 1011.0 |
| 20260503225953 | 60 | 8 | 12.0 | 17.0 | 0.00 | 0.00 | 0.00 | 31 | 1011.0 |
| 20260503225938 | 60 | 345 | 15.0 | 17.0 | 0.00 | 0.00 | 0.00 | 31 | 1011.0 |
| 20260503225929 | 60 | 20 | 8.0 | 15.0 | 0.00 | 0.00 | 0.00 | 31 | 1011.0 |
| 20260503225917 | 60 | 12 | 7.0 | 15.0 | 0.00 | 0.00 | 0.00 | 31 | 1011.0 |
| 20260503225844 | 60 | 358 | 7.0 | 15.0 | 0.00 | 0.00 | 0.00 | 31 | 1011.0 |
| 20260503225837 | 60 | 29 | 11.0 | 15.0 | 0.00 | 0.00 | 0.00 | 31 | 1011.0 |
| 20260503225818 | 60 | 20 | 13.0 | 15.0 | 0.00 | 0.00 | 0.00 | 31 | 1011.0 |
| 20260503225809 | 60 | 20 | 13.0 | 15.0 | 0.00 | 0.00 | 0.00 | 30 | 1011.0 |
| 20260503225754 | 60 | 350 | 8.0 | 10.0 | 0.00 | 0.00 | 0.00 | 30 | 1011.0 |
| 20260503225745 | 60 | 351 | 6.0 | 10.0 | 0.00 | 0.00 | 0.00 | 30 | 1011.0 |
| 20260503225725 | 60 | 351 | 6.0 | 16.0 | 0.00 | 0.00 | 0.00 | 30 | 1011.0 |
| 20260503225708 | 60 | 27 | 6.0 | 16.0 | 0.00 | 0.00 | 0.00 | 31 | 1011.0 |
| 20260503225633 | 60 | 2 | 7.0 | 16.0 | 0.00 | 0.00 | 0.00 | 31 | 1011.0 |
| 20260503225619 | 60 | 26 | 7.0 | 16.0 | 0.00 | 0.00 | 0.00 | 31 | 1012.0 |
| 20260503225612 | 60 | 359 | 11.0 | 16.0 | 0.00 | 0.00 | 0.00 | 31 | 1012.0 |
| 20260503225546 | 60 | 358 | 11.0 | 16.0 | 0.00 | 0.00 | 0.00 | 30 | 1012.0 |
| 20260503225537 | 60 | 349 | 12.0 | 16.0 | 0.00 | 0.00 | 0.00 | 30 | 1012.0 |
| 20260503225517 | 60 | 341 | 8.0 | 14.0 | 0.00 | 0.00 | 0.00 | 30 | 1011.0 |
| 20260503225500 | 61 | 6 | 12.0 | 15.0 | 0.00 | 0.00 | 0.00 | 30 | 1011.0 |
| 20260503225425 | 61 | 0 | 8.0 | 15.0 | 0.00 | 0.00 | 0.00 | 30 | 1011.0 |
| 20260503225401 | 61 | 4 | 5.0 | 15.0 | 0.00 | 0.00 | 0.00 | 30 | 1011.0 |
| 20260503225345 | 61 | 29 | 7.0 | 15.0 | 0.00 | 0.00 | 0.00 | 30 | 1011.0 |
| 20260503225330 | 61 | 24 | 8.0 | 15.0 | 0.00 | 0.00 | 0.00 | 30 | 1012.0 |
| 20260503225321 | 61 | 73 | 11.0 | 15.0 | 0.00 | 0.00 | 0.00 | 30 | 1012.0 |
| 20260503225306 | 61 | 27 | 6.0 | 14.0 | 0.00 | 0.00 | 0.00 | 30 | 1012.0 |
| 20260503225257 | 61 | 27 | 6.0 | 14.0 | 0.00 | 0.00 | 0.00 | 30 | 1012.0 |
| 20260503225243 | 61 | 328 | 7.0 | 14.0 | 0.00 | 0.00 | 0.00 | 30 | 1012.0 |
| 20260503225234 | 61 | 20 | 7.0 | 14.0 | 0.00 | 0.00 | 0.00 | 30 | 1012.0 |
| 20260503225225 | 61 | 20 | 7.0 | 17.0 | 0.00 | 0.00 | 0.00 | 30 | 1011.0 |
| 20260503225212 | 61 | 320 | 6.0 | 17.0 | 0.00 | 0.00 | 0.00 | 30 | 1011.0 |
| 20260503225204 | 61 | 2 | 6.0 | 17.0 | 0.00 | 0.00 | 0.00 | 30 | 1011.0 |
| 20260503225145 | 61 | 0 | 11.0 | 17.0 | 0.00 | 0.00 | 0.00 | 30 | 1011.0 |
| 20260503225123 | 61 | 49 | 8.0 | 17.0 | 0.00 | 0.00 | 0.00 | 30 | 1011.0 |
| 20260503225113 | 61 | 42 | 8.0 | 17.0 | 0.00 | 0.00 | 0.00 | 30 | 1011.0 |
| 20260503225049 | 61 | 33 | 14.0 | 17.0 | 0.00 | 0.00 | 0.00 | 30 | 1011.0 |
| 20260503225035 | 61 | 2 | 10.0 | 14.0 | 0.00 | 0.00 | 0.00 | 30 | 1011.0 |
| 20260503225017 | 61 | 359 | 8.0 | 14.0 | 0.00 | 0.00 | 0.00 | 30 | 1011.0 |
| 20260503225003 | 61 | 332 | 10.0 | 16.0 | 0.00 | 0.00 | 0.00 | 30 | 1011.0 |
| 20260503224955 | 61 | 332 | 10.0 | 16.0 | 0.00 | 0.00 | 0.00 | 30 | 1011.0 |
| 20260503224924 | 61 | 7 | 6.0 | 19.0 | 0.00 | 0.00 | 0.00 | 30 | 1011.0 |
| 20260503224906 | 61 | 30 | 10.0 | 19.0 | 0.00 | 0.00 | 0.00 | 30 | 1011.0 |
| 20260503224850 | 61 | 33 | 11.0 | 19.0 | 0.00 | 0.00 | 0.00 | 30 | 1011.0 |
| 20260503224842 | 61 | 24 | 11.0 | 19.0 | 0.00 | 0.00 | 0.00 | 30 | 1011.0 |
| 20260503224829 | 61 | 25 | 7.0 | 19.0 | 0.00 | 0.00 | 0.00 | 30 | 1011.0 |
| 20260503224810 | 61 | 15 | 12.0 | 19.0 | 0.00 | 0.00 | 0.00 | 30 | 1011.0 |
| 20260503224753 | 61 | 326 | 12.0 | 18.0 | 0.00 | 0.00 | 0.00 | 30 | 1011.0 |
| 20260503224729 | 61 | 15 | 10.0 | 18.0 | 0.00 | 0.00 | 0.00 | 30 | 1011.0 |
| 20260503224714 | 61 | 1 | 13.0 | 18.0 | 0.00 | 0.00 | 0.00 | 30 | 1011.0 |
| 20260503224705 | 61 | 22 | 14.0 | 18.0 | 0.00 | 0.00 | 0.00 | 30 | 1011.0 |
| 20260503224658 | 61 | 22 | 14.0 | 18.0 | 0.00 | 0.00 | 0.00 | 30 | 1011.0 |
| 20260503224617 | 61 | 333 | 10.0 | 13.0 | 0.00 | 0.00 | 0.00 | 30 | 1011.0 |
| 20260503224604 | 61 | 356 | 8.0 | 13.0 | 0.00 | 0.00 | 0.00 | 30 | 1011.0 |
| 20260503224555 | 61 | 356 | 8.0 | 13.0 | 0.00 | 0.00 | 0.00 | 30 | 1011.0 |
| 20260503224546 | 61 | 339 | 7.0 | 13.0 | 0.00 | 0.00 | 0.00 | 30 | 1011.0 |
| 20260503224529 | 61 | 339 | 7.0 | 16.0 | 0.00 | 0.00 | 0.00 | 30 | 1011.0 |
| 20260503224521 | 61 | 16 | 11.0 | 16.0 | 0.00 | 0.00 | 0.00 | 30 | 1011.0 |
| 20260503224507 | 61 | 353 | 7.0 | 16.0 | 0.00 | 0.00 | 0.00 | 30 | 1011.0 |
| 20260503224459 | 61 | 353 | 7.0 | 16.0 | 0.00 | 0.00 | 0.00 | 30 | 1011.0 |
| 20260503224450 | 61 | 325 | 6.0 | 16.0 | 0.00 | 0.00 | 0.00 | 30 | 1011.0 |
| 20260503224425 | 61 | 67 | 8.0 | 16.0 | 0.00 | 0.00 | 0.00 | 30 | 1011.0 |
| 20260503224410 | 61 | 344 | 9.0 | 16.0 | 0.00 | 0.00 | 0.00 | 30 | 1011.0 |
| 20260503224354 | 61 | 312 | 11.0 | 16.0 | 0.00 | 0.00 | 0.00 | 30 | 1011.0 |
| 20260503224337 | 61 | 292 | 11.0 | 16.0 | 0.00 | 0.00 | 0.00 | 30 | 1011.0 |
| 20260503224328 | 61 | 0 | 8.0 | 15.0 | 0.00 | 0.00 | 0.00 | 30 | 1011.0 |
| 20260503224304 | 61 | 355 | 5.0 | 15.0 | 0.00 | 0.00 | 0.00 | 29 | 1011.0 |
| 20260503224252 | 61 | 6 | 9.0 | 16.0 | 0.00 | 0.00 | 0.00 | 29 | 1011.0 |
| 20260503224234 | 61 | 10 | 6.0 | 16.0 | 0.00 | 0.00 | 0.00 | 29 | 1011.0 |
| 20260503224217 | 61 | 18 | 8.0 | 16.0 | 0.00 | 0.00 | 0.00 | 29 | 1011.0 |
| 20260503224209 | 61 | 348 | 7.0 | 16.0 | 0.00 | 0.00 | 0.00 | 29 | 1011.0 |
| 20260503224145 | 61 | 29 | 11.0 | 18.0 | 0.00 | 0.00 | 0.00 | 29 | 1011.0 |
| 20260503224132 | 61 | 356 | 8.0 | 18.0 | 0.00 | 0.00 | 0.00 | 29 | 1011.0 |
| 20260503224115 | 61 | 355 | 13.0 | 18.0 | 0.00 | 0.00 | 0.00 | 29 | 1011.0 |
| 20260503224107 | 61 | 355 | 13.0 | 18.0 | 0.00 | 0.00 | 0.00 | 30 | 1011.0 |
| 20260503224056 | 61 | 6 | 10.0 | 18.0 | 0.00 | 0.00 | 0.00 | 30 | 1011.0 |
| 20260503224033 | 61 | 331 | 15.0 | 18.0 | 0.00 | 0.00 | 0.00 | 30 | 1011.0 |
| 20260503224019 | 61 | 350 | 9.0 | 19.0 | 0.00 | 0.00 | 0.00 | 30 | 1011.0 |
| 20260503224010 | 61 | 327 | 11.0 | 19.0 | 0.00 | 0.00 | 0.00 | 30 | 1011.0 |
| 20260503223947 | 61 | 353 | 14.0 | 19.0 | 0.00 | 0.00 | 0.00 | 29 | 1011.0 |
| 20260503223937 | 61 | 330 | 10.0 | 19.0 | 0.00 | 0.00 | 0.00 | 29 | 1011.0 |
| 20260503223913 | 61 | 305 | 12.0 | 19.0 | 0.00 | 0.00 | 0.00 | 29 | 1011.0 |
| 20260503223858 | 61 | 287 | 9.0 | 19.0 | 0.00 | 0.00 | 0.00 | 29 | 1011.0 |
| 20260503223848 | 61 | 306 | 14.0 | 19.0 | 0.00 | 0.00 | 0.00 | 29 | 1011.0 |
| 20260503223825 | 61 | 6 | 9.0 | 18.0 | 0.00 | 0.00 | 0.00 | 29 | 1011.0 |
| 20260503223811 | 61 | 291 | 12.0 | 18.0 | 0.00 | 0.00 | 0.00 | 29 | 1011.0 |
| 20260503223802 | 61 | 2 | 8.0 | 18.0 | 0.00 | 0.00 | 0.00 | 29 | 1011.0 |
| 20260503223746 | 61 | 7 | 11.0 | 18.0 | 0.00 | 0.00 | 0.00 | 29 | 1011.0 |
| 20260503223727 | 61 | 333 | 10.0 | 17.0 | 0.00 | 0.00 | 0.00 | 29 | 1011.0 |
| 20260503223708 | 61 | 283 | 11.0 | 16.0 | 0.00 | 0.00 | 0.00 | 29 | 1011.0 |
| 20260503223640 | 61 | 12 | 9.0 | 16.0 | 0.00 | 0.00 | 0.00 | 29 | 1011.0 |
| 20260503223628 | 61 | 14 | 8.0 | 18.0 | 0.00 | 0.00 | 0.00 | 29 | 1011.0 |
| 20260503223605 | 61 | 357 | 6.0 | 19.0 | 0.00 | 0.00 | 0.00 | 29 | 1011.0 |
| 20260503223546 | 61 | 287 | 8.0 | 19.0 | 0.00 | 0.00 | 0.00 | 29 | 1011.0 |
| 20260503223521 | 61 | 322 | 11.0 | 19.0 | 0.00 | 0.00 | 0.00 | 29 | 1011.0 |
| 20260503223508 | 61 | 289 | 10.0 | 19.0 | 0.00 | 0.00 | 0.00 | 29 | 1011.0 |
| 20260503223450 | 61 | 283 | 13.0 | 19.0 | 0.00 | 0.00 | 0.00 | 29 | 1011.0 |
| 20260503223435 | 61 | 332 | 10.0 | 19.0 | 0.00 | 0.00 | 0.00 | 29 | 1011.0 |
| 20260503223426 | 61 | 54 | 9.0 | 24.0 | 0.00 | 0.00 | 0.00 | 29 | 1011.0 |
| 20260503223406 | 61 | 354 | 5.0 | 24.0 | 0.00 | 0.00 | 0.00 | 29 | 1011.0 |
| 20260503223347 | 61 | 342 | 10.0 | 24.0 | 0.00 | 0.00 | 0.00 | 29 | 1011.0 |
| 20260503223338 | 61 | 5 | 11.0 | 24.0 | 0.00 | 0.00 | 0.00 | 29 | 1011.0 |
| 20260503223313 | 61 | 31 | 12.0 | 24.0 | 0.00 | 0.00 | 0.00 | 29 | 1011.0 |
| 20260503223259 | 61 | 359 | 10.0 | 25.0 | 0.00 | 0.00 | 0.00 | 29 | 1011.0 |
| 20260503223241 | 61 | 15 | 15.0 | 25.0 | 0.00 | 0.00 | 0.00 | 29 | 1011.0 |
| 20260503223218 | 61 | 345 | 11.0 | 25.0 | 0.00 | 0.00 | 0.00 | 29 | 1011.0 |
| 20260503223207 | 61 | 342 | 12.0 | 25.0 | 0.00 | 0.00 | 0.00 | 29 | 1011.0 |
| 20260503223138 | 61 | 277 | 16.0 | 25.0 | 0.00 | 0.00 | 0.00 | 29 | 1011.0 |
| 20260503223115 | 61 | 322 | 15.0 | 19.0 | 0.00 | 0.00 | 0.00 | 29 | 1011.0 |
| 20260503223105 | 61 | 335 | 6.0 | 16.0 | 0.00 | 0.00 | 0.00 | 29 | 1011.0 |
| 20260503223044 | 61 | 2 | 6.0 | 19.0 | 0.00 | 0.00 | 0.00 | 29 | 1011.0 |
| 20260503223013 | 61 | 0 | 11.0 | 21.0 | 0.00 | 0.00 | 0.00 | 29 | 1011.0 |
| 20260503222954 | 61 | 10 | 10.0 | 21.0 | 0.00 | 0.00 | 0.00 | 29 | 1011.0 |
| 20260503222938 | 61 | 36 | 9.0 | 21.0 | 0.00 | 0.00 | 0.00 | 29 | 1011.0 |
| 20260503222930 | 61 | 6 | 15.0 | 21.0 | 0.00 | 0.00 | 0.00 | 29 | 1011.0 |
| 20260503222916 | 61 | 24 | 13.0 | 21.0 | 0.00 | 0.00 | 0.00 | 30 | 1011.0 |
| 20260503222859 | 61 | 6 | 12.0 | 21.0 | 0.00 | 0.00 | 0.00 | 30 | 1011.0 |
| 20260503222831 | 61 | 41 | 5.0 | 17.0 | 0.00 | 0.00 | 0.00 | 30 | 1011.0 |
| 20260503222810 | 61 | 22 | 5.0 | 17.0 | 0.00 | 0.00 | 0.00 | 29 | 1011.0 |
| 20260503222802 | 61 | 22 | 5.0 | 18.0 | 0.00 | 0.00 | 0.00 | 29 | 1011.0 |
| 20260503222737 | 61 | 336 | 6.0 | 18.0 | 0.00 | 0.00 | 0.00 | 29 | 1011.0 |
| 20260503222725 | 61 | 11 | 12.0 | 18.0 | 0.00 | 0.00 | 0.00 | 29 | 1011.0 |
| 20260503222719 | 61 | 12 | 9.0 | 18.0 | 0.00 | 0.00 | 0.00 | 29 | 1011.0 |
| 20260503222650 | 61 | 348 | 12.0 | 18.0 | 0.00 | 0.00 | 0.00 | 29 | 1011.0 |
| 20260503222635 | 61 | 2 | 15.0 | 18.0 | 0.00 | 0.00 | 0.00 | 29 | 1011.0 |
| 20260503222626 | 61 | 47 | 6.0 | 16.0 | 0.00 | 0.00 | 0.00 | 29 | 1011.0 |
| 20260503222609 | 61 | 74 | 9.0 | 16.0 | 0.00 | 0.00 | 0.00 | 29 | 1011.0 |
| 20260503222546 | 61 | 28 | 10.0 | 19.0 | 0.00 | 0.00 | 0.00 | 29 | 1011.0 |
| 20260503222537 | 61 | 335 | 7.0 | 19.0 | 0.00 | 0.00 | 0.00 | 29 | 1011.0 |
| 20260503222522 | 61 | 34 | 6.0 | 19.0 | 0.00 | 0.00 | 0.00 | 29 | 1011.0 |
| 20260503222506 | 61 | 8 | 10.0 | 19.0 | 0.00 | 0.00 | 0.00 | 30 | 1011.0 |
| 20260503222457 | 61 | 8 | 10.0 | 19.0 | 0.00 | 0.00 | 0.00 | 30 | 1011.0 |
| 20260503222442 | 61 | 31 | 8.0 | 19.0 | 0.00 | 0.00 | 0.00 | 30 | 1011.0 |
| 20260503222433 | 61 | 32 | 13.0 | 19.0 | 0.00 | 0.00 | 0.00 | 30 | 1011.0 |
| 20260503222413 | 61 | 37 | 13.0 | 16.0 | 0.00 | 0.00 | 0.00 | 30 | 1011.0 |
| 20260503222338 | 61 | 38 | 8.0 | 14.0 | 0.00 | 0.00 | 0.00 | 29 | 1011.0 |
| 20260503222324 | 61 | 339 | 7.0 | 14.0 | 0.00 | 0.00 | 0.00 | 29 | 1011.0 |
| 20260503222257 | 61 | 306 | 7.0 | 14.0 | 0.00 | 0.00 | 0.00 | 29 | 1011.0 |
| 20260503222242 | 61 | 329 | 6.0 | 14.0 | 0.00 | 0.00 | 0.00 | 29 | 1011.0 |
| 20260503222233 | 61 | 329 | 8.0 | 14.0 | 0.00 | 0.00 | 0.00 | 29 | 1011.0 |
| 20260503222220 | 61 | 343 | 9.0 | 14.0 | 0.00 | 0.00 | 0.00 | 29 | 1011.0 |
| 20260503222157 | 61 | 332 | 8.0 | 16.0 | 0.00 | 0.00 | 0.00 | 29 | 1011.0 |
| 20260503222138 | 61 | 64 | 7.0 | 16.0 | 0.00 | 0.00 | 0.00 | 29 | 1011.0 |
| 20260503222124 | 61 | 357 | 6.0 | 16.0 | 0.00 | 0.00 | 0.00 | 29 | 1011.0 |
| 20260503222105 | 61 | 6 | 8.0 | 16.0 | 0.00 | 0.00 | 0.00 | 29 | 1011.0 |
| 20260503222050 | 61 | 46 | 8.0 | 16.0 | 0.00 | 0.00 | 0.00 | 29 | 1011.0 |
| 20260503222041 | 61 | 17 | 11.0 | 16.0 | 0.00 | 0.00 | 0.00 | 29 | 1011.0 |
| 20260503222022 | 61 | 281 | 10.0 | 16.0 | 0.00 | 0.00 | 0.00 | 29 | 1011.0 |
| 20260503221945 | 61 | 332 | 7.0 | 10.0 | 0.00 | 0.00 | 0.00 | 29 | 1011.0 |
| 20260503221908 | 61 | 353 | 7.0 | 13.0 | 0.00 | 0.00 | 0.00 | 29 | 1011.0 |
| 20260503221835 | 61 | 349 | 7.0 | 14.0 | 0.00 | 0.00 | 0.00 | 29 | 1011.0 |
| 20260503221826 | 61 | 346 | 6.0 | 15.0 | 0.00 | 0.00 | 0.00 | 29 | 1011.0 |
| 20260503221812 | 61 | 342 | 8.0 | 15.0 | 0.00 | 0.00 | 0.00 | 29 | 1011.0 |
| 20260503221804 | 61 | 342 | 8.0 | 16.0 | 0.00 | 0.00 | 0.00 | 29 | 1011.0 |
| 20260503221731 | 61 | 352 | 10.0 | 16.0 | 0.00 | 0.00 | 0.00 | 29 | 1011.0 |
| 20260503221724 | 61 | 316 | 8.0 | 16.0 | 0.00 | 0.00 | 0.00 | 29 | 1011.0 |
| 20260503221658 | 61 | 339 | 11.0 | 16.0 | 0.00 | 0.00 | 0.00 | 29 | 1011.0 |
| 20260503221649 | 61 | 32 | 6.0 | 16.0 | 0.00 | 0.00 | 0.00 | 29 | 1011.0 |
| 20260503221633 | 61 | 350 | 8.0 | 16.0 | 0.00 | 0.00 | 0.00 | 29 | 1011.0 |
| 20260503221609 | 61 | 353 | 10.0 | 16.0 | 0.00 | 0.00 | 0.00 | 29 | 1011.0 |
| 20260503221554 | 61 | 14 | 6.0 | 14.0 | 0.00 | 0.00 | 0.00 | 29 | 1011.0 |
| 20260503221545 | 61 | 307 | 6.0 | 14.0 | 0.00 | 0.00 | 0.00 | 29 | 1011.0 |
| 20260503221529 | 61 | 330 | 6.0 | 17.0 | 0.00 | 0.00 | 0.00 | 29 | 1011.0 |
| 20260503221505 | 61 | 304 | 8.0 | 17.0 | 0.00 | 0.00 | 0.00 | 29 | 1011.0 |
| 20260503221441 | 61 | 34 | 7.0 | 17.0 | 0.00 | 0.00 | 0.00 | 29 | 1011.0 |
| 20260503221425 | 61 | 345 | 9.0 | 17.0 | 0.00 | 0.00 | 0.00 | 29 | 1011.0 |
| 20260503221412 | 61 | 22 | 8.0 | 17.0 | 0.00 | 0.00 | 0.00 | 29 | 1011.0 |
| 20260503221404 | 61 | 39 | 10.0 | 17.0 | 0.00 | 0.00 | 0.00 | 29 | 1011.0 |
| 20260503221338 | 61 | 342 | 8.0 | 16.0 | 0.00 | 0.00 | 0.00 | 29 | 1011.0 |
| 20260503221324 | 61 | 308 | 8.0 | 16.0 | 0.00 | 0.00 | 0.00 | 29 | 1011.0 |
| 20260503221307 | 61 | 328 | 10.0 | 16.0 | 0.00 | 0.00 | 0.00 | 29 | 1011.0 |
| 20260503221233 | 61 | 327 | 7.0 | 22.0 | 0.00 | 0.00 | 0.00 | 29 | 1011.0 |
| 20260503221217 | 61 | 335 | 6.0 | 22.0 | 0.00 | 0.00 | 0.00 | 29 | 1011.0 |
| 20260503221203 | 61 | 316 | 5.0 | 22.0 | 0.00 | 0.00 | 0.00 | 29 | 1011.0 |
| 20260503221132 | 61 | 327 | 11.0 | 22.0 | 0.00 | 0.00 | 0.00 | 29 | 1011.0 |
| 20260503221106 | 61 | 332 | 9.0 | 11.0 | 0.00 | 0.00 | 0.00 | 29 | 1011.0 |
| 20260503221057 | 61 | 332 | 9.0 | 11.0 | 0.00 | 0.00 | 0.00 | 29 | 1011.0 |
| 20260503221043 | 61 | 11 | 7.0 | 11.0 | 0.00 | 0.00 | 0.00 | 29 | 1011.0 |
| 20260503221026 | 61 | 357 | 7.0 | 11.0 | 0.00 | 0.00 | 0.00 | 29 | 1011.0 |
| 20260503221010 | 61 | 349 | 6.0 | 10.0 | 0.00 | 0.00 | 0.00 | 29 | 1011.0 |
| 20260503221001 | 61 | 349 | 6.0 | 18.0 | 0.00 | 0.00 | 0.00 | 29 | 1011.0 |
| 20260503220948 | 61 | 293 | 7.0 | 18.0 | 0.00 | 0.00 | 0.00 | 29 | 1011.0 |
| 20260503220941 | 61 | 25 | 5.0 | 18.0 | 0.00 | 0.00 | 0.00 | 29 | 1011.0 |
| 20260503220921 | 61 | 35 | 6.0 | 18.0 | 0.00 | 0.00 | 0.00 | 29 | 1011.0 |
| 20260503220905 | 61 | 7 | 6.0 | 18.0 | 0.00 | 0.00 | 0.00 | 29 | 1011.0 |
| 20260503220854 | 61 | 349 | 5.0 | 18.0 | 0.00 | 0.00 | 0.00 | 29 | 1011.0 |
| 20260503220833 | 61 | 17 | 10.0 | 18.0 | 0.00 | 0.00 | 0.00 | 29 | 1011.0 |
| 20260503220817 | 61 | 33 | 13.0 | 18.0 | 0.00 | 0.00 | 0.00 | 29 | 1011.0 |
| 20260503220804 | 61 | 341 | 11.0 | 18.0 | 0.00 | 0.00 | 0.00 | 29 | 1011.0 |
| 20260503220757 | 61 | 341 | 11.0 | 18.0 | 0.00 | 0.00 | 0.00 | 29 | 1011.0 |
| 20260503220737 | 61 | 9 | 11.0 | 18.0 | 0.00 | 0.00 | 0.00 | 29 | 1011.0 |
| 20260503220722 | 61 | 299 | 9.0 | 18.0 | 0.00 | 0.00 | 0.00 | 29 | 1011.0 |
| 20260503220713 | 61 | 294 | 11.0 | 18.0 | 0.00 | 0.00 | 0.00 | 29 | 1011.0 |
| 20260503220657 | 61 | 302 | 10.0 | 18.0 | 0.00 | 0.00 | 0.00 | 29 | 1011.0 |
| 20260503220633 | 61 | 16 | 11.0 | 18.0 | 0.00 | 0.00 | 0.00 | 29 | 1011.0 |
| 20260503220618 | 61 | 350 | 11.0 | 18.0 | 0.00 | 0.00 | 0.00 | 29 | 1011.0 |
| 20260503220609 | 61 | 287 | 6.0 | 18.0 | 0.00 | 0.00 | 0.00 | 29 | 1011.0 |
| 20260503220553 | 61 | 287 | 6.0 | 18.0 | 0.00 | 0.00 | 0.00 | 29 | 1011.0 |
| 20260503220538 | 61 | 3 | 9.0 | 18.0 | 0.00 | 0.00 | 0.00 | 29 | 1011.0 |
| 20260503220529 | 61 | 18 | 12.0 | 18.0 | 0.00 | 0.00 | 0.00 | 29 | 1011.0 |
| 20260503220505 | 61 | 24 | 11.0 | 16.0 | 0.00 | 0.00 | 0.00 | 29 | 1011.0 |
| 20260503220449 | 61 | 9 | 12.0 | 16.0 | 0.00 | 0.00 | 0.00 | 30 | 1011.0 |
| 20260503220435 | 61 | 24 | 10.0 | 13.0 | 0.00 | 0.00 | 0.00 | 30 | 1011.0 |
| 20260503220417 | 61 | 349 | 6.0 | 13.0 | 0.00 | 0.00 | 0.00 | 30 | 1011.0 |
| 20260503220402 | 61 | 312 | 8.0 | 13.0 | 0.00 | 0.00 | 0.00 | 30 | 1011.0 |
| 20260503220345 | 61 | 336 | 6.0 | 13.0 | 0.00 | 0.00 | 0.00 | 30 | 1011.0 |
| 20260503220317 | 61 | 343 | 4.0 | 11.0 | 0.00 | 0.00 | 0.00 | 30 | 1011.0 |
| 20260503220257 | 61 | 296 | 7.0 | 11.0 | 0.00 | 0.00 | 0.00 | 30 | 1011.0 |
| 20260503220241 | 61 | 336 | 9.0 | 11.0 | 0.00 | 0.00 | 0.00 | 29 | 1011.0 |
| 20260503220227 | 61 | 4 | 6.0 | 13.0 | 0.00 | 0.00 | 0.00 | 29 | 1011.0 |
| 20260503220218 | 61 | 323 | 7.0 | 13.0 | 0.00 | 0.00 | 0.00 | 29 | 1011.0 |
| 20260503220202 | 61 | 323 | 4.0 | 16.0 | 0.00 | 0.00 | 0.00 | 29 | 1011.0 |
| 20260503220153 | 61 | 323 | 4.0 | 16.0 | 0.00 | 0.00 | 0.00 | 29 | 1011.0 |
| 20260503220134 | 61 | 289 | 8.0 | 16.0 | 0.00 | 0.00 | 0.00 | 29 | 1011.0 |
| 20260503220115 | 61 | 0 | 9.0 | 16.0 | 0.00 | 0.00 | 0.00 | 29 | 1011.0 |
| 20260503220105 | 61 | 9 | 8.0 | 16.0 | 0.00 | 0.00 | 0.00 | 29 | 1011.0 |
| 20260503220049 | 61 | 26 | 9.0 | 16.0 | 0.00 | 0.00 | 0.00 | 29 | 1011.0 |
| 20260503220025 | 61 | 323 | 7.0 | 16.0 | 0.00 | 0.00 | 0.00 | 29 | 1011.0 |
| 20260503220010 | 61 | 9 | 11.0 | 16.0 | 0.00 | 0.00 | 0.00 | 29 | 1011.0 |
| 20260503220002 | 61 | 357 | 9.0 | 11.0 | 0.00 | 0.00 | 0.00 | 29 | 1011.0 |
| 20260503215951 | 61 | 306 | 7.0 | 11.0 | 0.00 | 0.00 | 0.00 | 29 | 1011.0 |
| 20260503215905 | 61 | 245 | 5.0 | 11.0 | 0.00 | 0.00 | 0.00 | 29 | 1011.0 |
| 20260503215850 | 61 | 7 | 5.0 | 11.0 | 0.00 | 0.00 | 0.00 | 29 | 1011.0 |
| 20260503215842 | 61 | 291 | 7.0 | 11.0 | 0.00 | 0.00 | 0.00 | 29 | 1011.0 |
| 20260503215825 | 61 | 338 | 7.0 | 11.0 | 0.00 | 0.00 | 0.00 | 29 | 1011.0 |
| 20260503215810 | 61 | 323 | 10.0 | 11.0 | 0.00 | 0.00 | 0.00 | 29 | 1011.0 |
| 20260503215801 | 61 | 323 | 10.0 | 16.0 | 0.00 | 0.00 | 0.00 | 29 | 1011.0 |
| 20260503215747 | 61 | 11 | 5.0 | 16.0 | 0.00 | 0.00 | 0.00 | 29 | 1011.0 |
| 20260503215738 | 61 | 291 | 6.0 | 16.0 | 0.00 | 0.00 | 0.00 | 29 | 1011.0 |
| 20260503215706 | 61 | 7 | 8.0 | 16.0 | 0.00 | 0.00 | 0.00 | 29 | 1011.0 |
| 20260503215700 | 61 | 26 | 9.0 | 16.0 | 0.00 | 0.00 | 0.00 | 29 | 1011.0 |
| 20260503215634 | 61 | 332 | 9.0 | 16.0 | 0.00 | 0.00 | 0.00 | 29 | 1011.0 |
| 20260503215617 | 61 | 337 | 8.0 | 13.0 | 0.00 | 0.00 | 0.00 | 29 | 1011.0 |
| 20260503215603 | 61 | 2 | 7.0 | 13.0 | 0.00 | 0.00 | 0.00 | 29 | 1011.0 |
| 20260503215546 | 61 | 343 | 6.0 | 13.0 | 0.00 | 0.00 | 0.00 | 29 | 1011.0 |
| 20260503215530 | 61 | 8 | 8.0 | 17.0 | 0.00 | 0.00 | 0.00 | 29 | 1011.0 |
| 20260503215517 | 61 | 2 | 5.0 | 17.0 | 0.00 | 0.00 | 0.00 | 29 | 1011.0 |
| 20260503215509 | 61 | 20 | 6.0 | 17.0 | 0.00 | 0.00 | 0.00 | 29 | 1011.0 |
| 20260503215449 | 61 | 22 | 6.0 | 17.0 | 0.00 | 0.00 | 0.00 | 29 | 1011.0 |
| 20260503215425 | 61 | 343 | 7.0 | 17.0 | 0.00 | 0.00 | 0.00 | 29 | 1011.0 |
| 20260503215411 | 61 | 319 | 6.0 | 17.0 | 0.00 | 0.00 | 0.00 | 29 | 1011.0 |
| 20260503215404 | 61 | 303 | 10.0 | 17.0 | 0.00 | 0.00 | 0.00 | 29 | 1011.0 |
| 20260503215339 | 61 | 320 | 9.0 | 14.0 | 0.00 | 0.00 | 0.00 | 29 | 1011.0 |
| 20260503215332 | 61 | 356 | 8.0 | 17.0 | 0.00 | 0.00 | 0.00 | 29 | 1011.0 |
| 20260503215306 | 61 | 334 | 10.0 | 17.0 | 0.00 | 0.00 | 0.00 | 30 | 1011.0 |
| 20260503215242 | 61 | 314 | 6.0 | 17.0 | 0.00 | 0.00 | 0.00 | 30 | 1011.0 |
| 20260503215233 | 61 | 354 | 6.0 | 17.0 | 0.00 | 0.00 | 0.00 | 30 | 1011.0 |
| 20260503215212 | 61 | 16 | 5.0 | 17.0 | 0.00 | 0.00 | 0.00 | 30 | 1011.0 |
| 20260503215137 | 61 | 27 | 8.0 | 18.0 | 0.00 | 0.00 | 0.00 | 29 | 1011.0 |
| 20260503215122 | 61 | 343 | 12.0 | 18.0 | 0.00 | 0.00 | 0.00 | 29 | 1011.0 |
| 20260503215113 | 61 | 333 | 8.0 | 18.0 | 0.00 | 0.00 | 0.00 | 29 | 1011.0 |
| 20260503215057 | 61 | 358 | 9.0 | 18.0 | 0.00 | 0.00 | 0.00 | 29 | 1011.0 |
| 20260503215033 | 61 | 322 | 12.0 | 18.0 | 0.00 | 0.00 | 0.00 | 29 | 1011.0 |
| 20260503215020 | 61 | 293 | 11.0 | 21.0 | 0.00 | 0.00 | 0.00 | 29 | 1011.0 |
| 20260503214946 | 61 | 343 | 13.0 | 21.0 | 0.00 | 0.00 | 0.00 | 29 | 1011.0 |
| 20260503214937 | 61 | 344 | 5.0 | 21.0 | 0.00 | 0.00 | 0.00 | 29 | 1011.0 |
| 20260503214916 | 61 | 310 | 9.0 | 21.0 | 0.00 | 0.00 | 0.00 | 29 | 1011.0 |
| 20260503214841 | 61 | 2 | 12.0 | 15.0 | 0.00 | 0.00 | 0.00 | 29 | 1011.0 |
| 20260503214826 | 61 | 333 | 9.0 | 17.0 | 0.00 | 0.00 | 0.00 | 29 | 1011.0 |
| 20260503214817 | 61 | 296 | 7.0 | 17.0 | 0.00 | 0.00 | 0.00 | 29 | 1011.0 |
| 20260503214803 | 61 | 296 | 7.0 | 24.0 | 0.00 | 0.00 | 0.00 | 29 | 1011.0 |
| 20260503214756 | 61 | 305 | 12.0 | 24.0 | 0.00 | 0.00 | 0.00 | 29 | 1011.0 |
| 20260503214730 | 61 | 332 | 7.0 | 24.0 | 0.00 | 0.00 | 0.00 | 29 | 1011.0 |
| 20260503214721 | 61 | 331 | 8.0 | 24.0 | 0.00 | 0.00 | 0.00 | 29 | 1011.0 |
| 20260503214706 | 61 | 12 | 11.0 | 24.0 | 0.00 | 0.00 | 0.00 | 29 | 1011.0 |
| 20260503214657 | 61 | 12 | 11.0 | 24.0 | 0.00 | 0.00 | 0.00 | 29 | 1011.0 |
| 20260503214641 | 61 | 345 | 10.0 | 24.0 | 0.00 | 0.00 | 0.00 | 29 | 1011.0 |
| 20260503214628 | 61 | 312 | 11.0 | 24.0 | 0.00 | 0.00 | 0.00 | 29 | 1011.0 |
| 20260503214621 | 61 | 323 | 15.0 | 24.0 | 0.00 | 0.00 | 0.00 | 29 | 1011.0 |
| 20260503214601 | 61 | 314 | 14.0 | 18.0 | 0.00 | 0.00 | 0.00 | 29 | 1011.0 |
| 20260503214538 | 61 | 313 | 6.0 | 15.0 | 0.00 | 0.00 | 0.00 | 29 | 1011.0 |
| 20260503214529 | 61 | 3 | 8.0 | 16.0 | 0.00 | 0.00 | 0.00 | 29 | 1011.0 |
| 20260503214515 | 61 | 332 | 8.0 | 16.0 | 0.00 | 0.00 | 0.00 | 29 | 1011.0 |
| 20260503214455 | 61 | 25 | 9.0 | 16.0 | 0.00 | 0.00 | 0.00 | 29 | 1011.0 |
| 20260503214435 | 61 | 345 | 5.0 | 16.0 | 0.00 | 0.00 | 0.00 | 30 | 1011.0 |
| 20260503214428 | 61 | 316 | 8.0 | 16.0 | 0.00 | 0.00 | 0.00 | 30 | 1011.0 |
| 20260503214403 | 61 | 30 | 8.0 | 16.0 | 0.00 | 0.00 | 0.00 | 30 | 1011.0 |
| 20260503214354 | 61 | 30 | 8.0 | 16.0 | 0.00 | 0.00 | 0.00 | 30 | 1011.0 |
| 20260503214337 | 61 | 7 | 13.0 | 16.0 | 0.00 | 0.00 | 0.00 | 30 | 1011.0 |
| 20260503214322 | 61 | 345 | 6.0 | 14.0 | 0.00 | 0.00 | 0.00 | 30 | 1011.0 |
| 20260503214313 | 61 | 335 | 8.0 | 14.0 | 0.00 | 0.00 | 0.00 | 30 | 1011.0 |
| 20260503214259 | 61 | 3 | 11.0 | 14.0 | 0.00 | 0.00 | 0.00 | 30 | 1011.0 |
| 20260503214233 | 61 | 345 | 9.0 | 14.0 | 0.00 | 0.00 | 0.00 | 30 | 1011.0 |
| 20260503214218 | 61 | 10 | 8.0 | 14.0 | 0.00 | 0.00 | 0.00 | 30 | 1011.0 |
| 20260503214209 | 61 | 307 | 8.0 | 14.0 | 0.00 | 0.00 | 0.00 | 30 | 1011.0 |
| 20260503214146 | 61 | 342 | 8.0 | 14.0 | 0.00 | 0.00 | 0.00 | 30 | 1011.0 |
| 20260503214129 | 61 | 3 | 7.0 | 15.0 | 0.00 | 0.00 | 0.00 | 30 | 1011.0 |
| 20260503214114 | 61 | 356 | 4.0 | 15.0 | 0.00 | 0.00 | 0.00 | 30 | 1011.0 |
| 20260503214105 | 61 | 303 | 4.0 | 15.0 | 0.00 | 0.00 | 0.00 | 30 | 1011.0 |
| 20260503214041 | 61 | 39 | 5.0 | 15.0 | 0.00 | 0.00 | 0.00 | 30 | 1011.0 |
| 20260503214027 | 61 | 33 | 8.0 | 15.0 | 0.00 | 0.00 | 0.00 | 30 | 1011.0 |
| 20260503214009 | 61 | 291 | 5.0 | 15.0 | 0.00 | 0.00 | 0.00 | 30 | 1011.0 |
| 20260503213955 | 61 | 359 | 11.0 | 17.0 | 0.00 | 0.00 | 0.00 | 30 | 1011.0 |
| 20260503213948 | 61 | 337 | 11.0 | 17.0 | 0.00 | 0.00 | 0.00 | 30 | 1011.0 |
| 20260503213923 | 61 | 1 | 8.0 | 19.0 | 0.00 | 0.00 | 0.00 | 30 | 1011.0 |
| 20260503213913 | 61 | 1 | 8.0 | 19.0 | 0.00 | 0.00 | 0.00 | 29 | 1011.0 |
| 20260503213858 | 61 | 309 | 7.0 | 19.0 | 0.00 | 0.00 | 0.00 | 29 | 1011.0 |
| 20260503213849 | 61 | 31 | 6.0 | 19.0 | 0.00 | 0.00 | 0.00 | 29 | 1011.0 |
| 20260503213837 | 61 | 250 | 9.0 | 19.0 | 0.00 | 0.00 | 0.00 | 29 | 1011.0 |
| 20260503213818 | 61 | 340 | 8.0 | 19.0 | 0.00 | 0.00 | 0.00 | 29 | 1011.0 |
| 20260503213802 | 61 | 340 | 15.0 | 19.0 | 0.00 | 0.00 | 0.00 | 29 | 1011.0 |
| 20260503213753 | 61 | 340 | 15.0 | 19.0 | 0.00 | 0.00 | 0.00 | 29 | 1011.0 |
| 20260503213739 | 61 | 359 | 9.0 | 17.0 | 0.00 | 0.00 | 0.00 | 29 | 1011.0 |
| 20260503213722 | 61 | 18 | 8.0 | 16.0 | 0.00 | 0.00 | 0.00 | 29 | 1011.0 |
| 20260503213706 | 61 | 24 | 9.0 | 16.0 | 0.00 | 0.00 | 0.00 | 29 | 1011.0 |
| 20260503213657 | 61 | 357 | 9.0 | 16.0 | 0.00 | 0.00 | 0.00 | 29 | 1011.0 |
| 20260503213634 | 61 | 314 | 8.0 | 16.0 | 0.00 | 0.00 | 0.00 | 29 | 1011.0 |
| 20260503213625 | 61 | 307 | 7.0 | 14.0 | 0.00 | 0.00 | 0.00 | 29 | 1011.0 |
| 20260503213612 | 61 | 2 | 7.0 | 14.0 | 0.00 | 0.00 | 0.00 | 29 | 1011.0 |
| 20260503213548 | 61 | 324 | 5.0 | 14.0 | 0.00 | 0.00 | 0.00 | 29 | 1011.0 |
| 20260503213540 | 61 | 20 | 8.0 | 14.0 | 0.00 | 0.00 | 0.00 | 29 | 1011.0 |
| 20260503213521 | 61 | 358 | 6.0 | 14.0 | 0.00 | 0.00 | 0.00 | 29 | 1011.0 |
| 20260503213505 | 61 | 333 | 6.0 | 10.0 | 0.00 | 0.00 | 0.00 | 29 | 1011.0 |
| 20260503213450 | 61 | 333 | 6.0 | 11.0 | 0.00 | 0.00 | 0.00 | 30 | 1011.0 |
| 20260503213441 | 61 | 341 | 7.0 | 11.0 | 0.00 | 0.00 | 0.00 | 30 | 1011.0 |
| 20260503213418 | 61 | 15 | 5.0 | 14.0 | 0.00 | 0.00 | 0.00 | 30 | 1011.0 |
| 20260503213409 | 61 | 29 | 7.0 | 14.0 | 0.00 | 0.00 | 0.00 | 30 | 1011.0 |
| 20260503213345 | 61 | 40 | 7.0 | 15.0 | 0.00 | 0.00 | 0.00 | 30 | 1011.0 |
| 20260503213331 | 61 | 28 | 7.0 | 15.0 | 0.00 | 0.00 | 0.00 | 30 | 1011.0 |
| 20260503213313 | 61 | 54 | 6.0 | 15.0 | 0.00 | 0.00 | 0.00 | 30 | 1011.0 |
| 20260503213258 | 61 | 344 | 10.0 | 15.0 | 0.00 | 0.00 | 0.00 | 30 | 1011.0 |
| 20260503213249 | 61 | 349 | 11.0 | 15.0 | 0.00 | 0.00 | 0.00 | 29 | 1011.0 |
| 20260503213230 | 61 | 10 | 9.0 | 15.0 | 0.00 | 0.00 | 0.00 | 29 | 1011.0 |
| 20260503213153 | 61 | 11 | 5.0 | 14.0 | 0.00 | 0.00 | 0.00 | 29 | 1011.0 |
| 20260503213138 | 61 | 11 | 5.0 | 14.0 | 0.00 | 0.00 | 0.00 | 30 | 1011.0 |
| 20260503213129 | 61 | 318 | 8.0 | 14.0 | 0.00 | 0.00 | 0.00 | 30 | 1011.0 |
| 20260503213105 | 61 | 349 | 9.0 | 14.0 | 0.00 | 0.00 | 0.00 | 30 | 1011.0 |
| 20260503213049 | 61 | 18 | 12.0 | 14.0 | 0.00 | 0.00 | 0.00 | 30 | 1011.0 |
| 20260503213025 | 61 | 3 | 7.0 | 14.0 | 0.00 | 0.00 | 0.00 | 29 | 1011.0 |
| 20260503213013 | 61 | 259 | 8.0 | 14.0 | 0.00 | 0.00 | 0.00 | 29 | 1011.0 |
| 20260503212957 | 61 | 51 | 6.0 | 14.0 | 0.00 | 0.00 | 0.00 | 29 | 1011.0 |
| 20260503212917 | 61 | 28 | 12.0 | 14.0 | 0.00 | 0.00 | 0.00 | 29 | 1011.0 |
| 20260503212825 | 61 | 355 | 4.0 | 24.0 | 0.00 | 0.00 | 0.00 | 29 | 1011.0 |
| 20260503212808 | 61 | 291 | 6.0 | 24.0 | 0.00 | 0.00 | 0.00 | 29 | 1011.0 |
| 20260503212751 | 61 | 345 | 5.0 | 24.0 | 0.00 | 0.00 | 0.00 | 29 | 1011.0 |
| 20260503212722 | 61 | 342 | 12.0 | 24.0 | 0.00 | 0.00 | 0.00 | 29 | 1011.0 |
| 20260503212706 | 61 | 359 | 16.0 | 24.0 | 0.00 | 0.00 | 0.00 | 29 | 1011.0 |
| 20260503212658 | 61 | 359 | 16.0 | 24.0 | 0.00 | 0.00 | 0.00 | 29 | 1011.0 |
| 20260503212645 | 61 | 342 | 12.0 | 17.0 | 0.00 | 0.00 | 0.00 | 29 | 1011.0 |
| 20260503212636 | 61 | 325 | 8.0 | 15.0 | 0.00 | 0.00 | 0.00 | 29 | 1011.0 |
| 20260503212628 | 61 | 325 | 8.0 | 15.0 | 0.00 | 0.00 | 0.00 | 30 | 1011.0 |
| 20260503212609 | 61 | 12 | 5.0 | 15.0 | 0.00 | 0.00 | 0.00 | 30 | 1011.0 |
| 20260503212546 | 61 | 12 | 6.0 | 17.0 | 0.00 | 0.00 | 0.00 | 30 | 1011.0 |
| 20260503212536 | 61 | 357 | 8.0 | 17.0 | 0.00 | 0.00 | 0.00 | 30 | 1011.0 |
| 20260503212518 | 61 | 338 | 6.0 | 17.0 | 0.00 | 0.00 | 0.00 | 30 | 1011.0 |
| 20260503212459 | 61 | 24 | 6.0 | 17.0 | 0.00 | 0.00 | 0.00 | 30 | 1011.0 |
| 20260503212428 | 61 | 316 | 11.0 | 17.0 | 0.00 | 0.00 | 0.00 | 30 | 1011.0 |
| 20260503212409 | 61 | 347 | 7.0 | 11.0 | 0.00 | 0.00 | 0.00 | 31 | 1011.0 |
| 20260503212356 | 61 | 18 | 6.0 | 13.0 | 0.00 | 0.00 | 0.00 | 31 | 1011.0 |
| 20260503212329 | 61 | 277 | 5.0 | 13.0 | 0.00 | 0.00 | 0.00 | 31 | 1011.0 |
| 20260503212305 | 61 | 3 | 6.0 | 13.0 | 0.00 | 0.00 | 0.00 | 30 | 1011.0 |
| 20260503212250 | 61 | 340 | 5.0 | 13.0 | 0.00 | 0.00 | 0.00 | 30 | 1011.0 |
| 20260503212241 | 61 | 22 | 9.0 | 13.0 | 0.00 | 0.00 | 0.00 | 30 | 1011.0 |
| 20260503212225 | 61 | 17 | 4.0 | 9.0 | 0.00 | 0.00 | 0.00 | 30 | 1011.0 |
| 20260503212202 | 61 | 330 | 4.0 | 9.0 | 0.00 | 0.00 | 0.00 | 30 | 1011.0 |
| 20260503212137 | 61 | 302 | 6.0 | 9.0 | 0.00 | 0.00 | 0.00 | 30 | 1011.0 |
| 20260503212124 | 61 | 324 | 8.0 | 13.0 | 0.00 | 0.00 | 0.00 | 30 | 1011.0 |
| 20260503212106 | 61 | 3 | 7.0 | 13.0 | 0.00 | 0.00 | 0.00 | 30 | 1011.0 |
| 20260503212057 | 61 | 336 | 6.0 | 13.0 | 0.00 | 0.00 | 0.00 | 30 | 1011.0 |
| 20260503212043 | 61 | 13 | 7.0 | 13.0 | 0.00 | 0.00 | 0.00 | 30 | 1011.0 |
| 20260503212021 | 61 | 303 | 4.0 | 16.0 | 0.00 | 0.00 | 0.00 | 30 | 1011.0 |
| 20260503212013 | 61 | 276 | 6.0 | 16.0 | 0.00 | 0.00 | 0.00 | 30 | 1011.0 |
| 20260503211945 | 61 | 339 | 9.0 | 16.0 | 0.00 | 0.00 | 0.00 | 30 | 1011.0 |
| 20260503211929 | 61 | 309 | 8.0 | 16.0 | 0.00 | 0.00 | 0.00 | 30 | 1011.0 |
| 20260503211915 | 61 | 293 | 4.0 | 16.0 | 0.00 | 0.00 | 0.00 | 30 | 1011.0 |
| 20260503211905 | 61 | 283 | 8.0 | 16.0 | 0.00 | 0.00 | 0.00 | 30 | 1011.0 |
| 20260503211851 | 61 | 285 | 11.0 | 16.0 | 0.00 | 0.00 | 0.00 | 30 | 1011.0 |
| 20260503211827 | 61 | 278 | 6.0 | 15.0 | 0.00 | 0.00 | 0.00 | 30 | 1011.0 |
| 20260503211809 | 61 | 336 | 8.0 | 15.0 | 0.00 | 0.00 | 0.00 | 30 | 1011.0 |
| 20260503211754 | 61 | 337 | 5.0 | 15.0 | 0.00 | 0.00 | 0.00 | 30 | 1011.0 |
| 20260503211745 | 61 | 312 | 10.0 | 15.0 | 0.00 | 0.00 | 0.00 | 30 | 1011.0 |
| 20260503211721 | 61 | 348 | 12.0 | 15.0 | 0.00 | 0.00 | 0.00 | 30 | 1011.0 |
| 20260503211705 | 61 | 345 | 11.0 | 15.0 | 0.00 | 0.00 | 0.00 | 30 | 1011.0 |
| 20260503211641 | 61 | 325 | 6.0 | 17.0 | 0.00 | 0.00 | 0.00 | 30 | 1011.0 |
| 20260503211626 | 61 | 319 | 5.0 | 18.0 | 0.00 | 0.00 | 0.00 | 30 | 1011.0 |
| 20260503211617 | 61 | 347 | 8.0 | 18.0 | 0.00 | 0.00 | 0.00 | 30 | 1011.0 |
| 20260503211601 | 61 | 24 | 6.0 | 18.0 | 0.00 | 0.00 | 0.00 | 30 | 1011.0 |
| 20260503211537 | 61 | 335 | 10.0 | 18.0 | 0.00 | 0.00 | 0.00 | 30 | 1011.0 |
| 20260503211523 | 61 | 279 | 12.0 | 18.0 | 0.00 | 0.00 | 0.00 | 30 | 1011.0 |
| 20260503211506 | 61 | 309 | 10.0 | 18.0 | 0.00 | 0.00 | 0.00 | 30 | 1011.0 |
| 20260503211450 | 61 | 330 | 14.0 | 18.0 | 0.00 | 0.00 | 0.00 | 30 | 1011.0 |
| 20260503211441 | 61 | 9 | 12.0 | 18.0 | 0.00 | 0.00 | 0.00 | 31 | 1011.0 |
| 20260503211418 | 61 | 4 | 4.0 | 9.0 | 0.00 | 0.00 | 0.00 | 31 | 1011.0 |
| 20260503211409 | 61 | 306 | 5.0 | 9.0 | 0.00 | 0.00 | 0.00 | 31 | 1011.0 |
| 20260503211345 | 61 | 31 | 7.0 | 9.0 | 0.00 | 0.00 | 0.00 | 31 | 1011.0 |
| 20260503211331 | 61 | 331 | 5.0 | 11.0 | 0.00 | 0.00 | 0.00 | 30 | 1011.0 |
| 20260503211313 | 61 | 0 | 4.0 | 11.0 | 0.00 | 0.00 | 0.00 | 30 | 1011.0 |
| 20260503211300 | 61 | 344 | 4.0 | 13.0 | 0.00 | 0.00 | 0.00 | 30 | 1011.0 |
| 20260503211238 | 61 | 45 | 5.0 | 13.0 | 0.00 | 0.00 | 0.00 | 30 | 1011.0 |
| 20260503211201 | 61 | 37 | 7.0 | 17.0 | 0.00 | 0.00 | 0.00 | 30 | 1011.0 |
| 20260503211148 | 61 | 43 | 8.0 | 17.0 | 0.00 | 0.00 | 0.00 | 30 | 1011.0 |
| 20260503211140 | 61 | 350 | 11.0 | 17.0 | 0.00 | 0.00 | 0.00 | 30 | 1011.0 |
| 20260503211106 | 61 | 43 | 8.0 | 17.0 | 0.00 | 0.00 | 0.00 | 30 | 1011.0 |
| 20260503211057 | 61 | 43 | 8.0 | 19.0 | 0.00 | 0.00 | 0.00 | 30 | 1011.0 |
| 20260503211048 | 61 | 32 | 10.0 | 19.0 | 0.00 | 0.00 | 0.00 | 30 | 1011.0 |
| 20260503211009 | 61 | 39 | 8.0 | 19.0 | 0.00 | 0.00 | 0.00 | 30 | 1011.0 |
| 20260503210956 | 61 | 20 | 11.0 | 19.0 | 0.00 | 0.00 | 0.00 | 30 | 1011.0 |
| 20260503210933 | 61 | 49 | 10.0 | 16.0 | 0.00 | 0.00 | 0.00 | 30 | 1011.0 |
| 20260503210925 | 61 | 49 | 10.0 | 16.0 | 0.00 | 0.00 | 0.00 | 29 | 1011.0 |
| 20260503210906 | 61 | 359 | 9.0 | 14.0 | 0.00 | 0.00 | 0.00 | 29 | 1011.0 |
| 20260503210842 | 61 | 336 | 8.0 | 11.0 | 0.00 | 0.00 | 0.00 | 29 | 1011.0 |
| 20260503210833 | 61 | 350 | 8.0 | 11.0 | 0.00 | 0.00 | 0.00 | 29 | 1011.0 |
| 20260503210815 | 61 | 295 | 6.0 | 13.0 | 0.00 | 0.00 | 0.00 | 30 | 1011.0 |
| 20260503210737 | 61 | 345 | 8.0 | 13.0 | 0.00 | 0.00 | 0.00 | 30 | 1011.0 |
| 20260503210725 | 61 | 26 | 6.0 | 13.0 | 0.00 | 0.00 | 0.00 | 30 | 1011.0 |
| 20260503210717 | 62 | 338 | 7.0 | 13.0 | 0.00 | 0.00 | 0.00 | 30 | 1011.0 |
| 20260503210659 | 62 | 353 | 9.0 | 13.0 | 0.00 | 0.00 | 0.00 | 30 | 1011.0 |
| 20260503210634 | 62 | 346 | 8.0 | 11.0 | 0.00 | 0.00 | 0.00 | 30 | 1011.0 |
| 20260503210625 | 62 | 12 | 8.0 | 15.0 | 0.00 | 0.00 | 0.00 | 30 | 1011.0 |
| 20260503210612 | 62 | 4 | 8.0 | 15.0 | 0.00 | 0.00 | 0.00 | 30 | 1011.0 |
| 20260503210606 | 62 | 4 | 8.0 | 19.0 | 0.00 | 0.00 | 0.00 | 30 | 1011.0 |
| 20260503210529 | 62 | 343 | 7.0 | 19.0 | 0.00 | 0.00 | 0.00 | 30 | 1011.0 |
| 20260503210514 | 62 | 300 | 8.0 | 19.0 | 0.00 | 0.00 | 0.00 | 30 | 1011.0 |
| 20260503210505 | 62 | 21 | 10.0 | 19.0 | 0.00 | 0.00 | 0.00 | 29 | 1011.0 |
| 20260503210441 | 62 | 26 | 8.0 | 19.0 | 0.00 | 0.00 | 0.00 | 29 | 1011.0 |
| 20260503210425 | 62 | 329 | 9.0 | 19.0 | 0.00 | 0.00 | 0.00 | 29 | 1011.0 |
| 20260503210411 | 62 | 321 | 12.0 | 16.0 | 0.00 | 0.00 | 0.00 | 29 | 1011.0 |
| 20260503210403 | 62 | 321 | 12.0 | 16.0 | 0.00 | 0.00 | 0.00 | 30 | 1011.0 |
| 20260503210354 | 62 | 311 | 7.0 | 15.0 | 0.00 | 0.00 | 0.00 | 30 | 1011.0 |
| 20260503210337 | 62 | 31 | 9.0 | 15.0 | 0.00 | 0.00 | 0.00 | 30 | 1011.0 |
| 20260503210313 | 62 | 91 | 9.0 | 15.0 | 0.00 | 0.00 | 0.00 | 30 | 1011.0 |
| 20260503210258 | 62 | 4 | 7.0 | 15.0 | 0.00 | 0.00 | 0.00 | 30 | 1011.0 |
| 20260503210249 | 62 | 11 | 6.0 | 15.0 | 0.00 | 0.00 | 0.00 | 30 | 1011.0 |
| 20260503210239 | 62 | 27 | 9.0 | 15.0 | 0.00 | 0.00 | 0.00 | 30 | 1011.0 |
| 20260503210202 | 62 | 50 | 6.0 | 17.0 | 0.00 | 0.00 | 0.00 | 30 | 1011.0 |
| 20260503210153 | 62 | 50 | 6.0 | 17.0 | 0.00 | 0.00 | 0.00 | 30 | 1011.0 |
| 20260503210140 | 62 | 324 | 6.0 | 17.0 | 0.00 | 0.00 | 0.00 | 30 | 1011.0 |
| 20260503210113 | 62 | 16 | 12.0 | 17.0 | 0.00 | 0.00 | 0.00 | 30 | 1011.0 |
| 20260503210041 | 62 | 20 | 6.0 | 22.0 | 0.00 | 0.00 | 0.00 | 29 | 1011.0 |
| 20260503210025 | 62 | 301 | 9.0 | 22.0 | 0.00 | 0.00 | 0.00 | 29 | 1011.0 |
| 20260503210002 | 62 | 359 | 8.0 | 22.0 | 0.00 | 0.00 | 0.00 | 29 | 1011.0 |
| 20260503205937 | 62 | 9 | 7.0 | 22.0 | 0.00 | 0.00 | 0.00 | 30 | 1011.0 |
| 20260503205923 | 62 | 281 | 11.0 | 22.0 | 0.00 | 0.00 | 0.00 | 30 | 1011.0 |
| 20260503205917 | 62 | 36 | 12.0 | 22.0 | 0.00 | 0.00 | 0.00 | 30 | 1011.0 |
| 20260503205851 | 62 | 1 | 15.0 | 22.0 | 0.00 | 0.00 | 0.00 | 30 | 1011.0 |
| 20260503205841 | 62 | 34 | 9.0 | 14.0 | 0.00 | 0.00 | 0.00 | 29 | 1011.0 |
| 20260503205829 | 62 | 329 | 9.0 | 14.0 | 0.00 | 0.00 | 0.00 | 29 | 1011.0 |
| 20260503205810 | 62 | 10 | 7.0 | 14.0 | 0.00 | 0.00 | 0.00 | 29 | 1011.0 |
| 20260503205755 | 62 | 6 | 8.0 | 17.0 | 0.00 | 0.00 | 0.00 | 29 | 1011.0 |
| 20260503205731 | 62 | 3 | 8.0 | 19.0 | 0.00 | 0.00 | 0.00 | 29 | 1011.0 |
| 20260503205714 | 62 | 7 | 7.0 | 19.0 | 0.00 | 0.00 | 0.00 | 29 | 1011.0 |
| 20260503205658 | 62 | 45 | 6.0 | 19.0 | 0.00 | 0.00 | 0.00 | 29 | 1011.0 |
| 20260503205649 | 62 | 5 | 11.0 | 19.0 | 0.00 | 0.00 | 0.00 | 29 | 1011.0 |
| 20260503205630 | 62 | 339 | 11.0 | 19.0 | 0.00 | 0.00 | 0.00 | 30 | 1011.0 |
| 20260503205553 | 62 | 2 | 7.0 | 17.0 | 0.00 | 0.00 | 0.00 | 30 | 1011.0 |
| 20260503205538 | 62 | 26 | 10.0 | 17.0 | 0.00 | 0.00 | 0.00 | 30 | 1011.0 |
| 20260503205514 | 62 | 22 | 10.0 | 21.0 | 0.00 | 0.00 | 0.00 | 30 | 1011.0 |
| 20260503205505 | 62 | 17 | 8.0 | 21.0 | 0.00 | 0.00 | 0.00 | 30 | 1011.0 |
| 20260503205449 | 62 | 2 | 7.0 | 21.0 | 0.00 | 0.00 | 0.00 | 30 | 1011.0 |
| 20260503205427 | 62 | 47 | 11.0 | 21.0 | 0.00 | 0.00 | 0.00 | 30 | 1011.0 |
| 20260503205417 | 62 | 16 | 8.0 | 21.0 | 0.00 | 0.00 | 0.00 | 30 | 1011.0 |
| 20260503205401 | 62 | 6 | 10.0 | 21.0 | 0.00 | 0.00 | 0.00 | 30 | 1011.0 |
| 20260503205341 | 62 | 356 | 8.0 | 19.0 | 0.00 | 0.00 | 0.00 | 30 | 1011.0 |
| 20260503205321 | 62 | 26 | 6.0 | 19.0 | 0.00 | 0.00 | 0.00 | 30 | 1011.0 |
| 20260503205306 | 62 | 5 | 11.0 | 19.0 | 0.00 | 0.00 | 0.00 | 30 | 1011.0 |
| 20260503205257 | 62 | 19 | 11.0 | 19.0 | 0.00 | 0.00 | 0.00 | 30 | 1011.0 |
| 20260503205241 | 62 | 45 | 9.0 | 19.0 | 0.00 | 0.00 | 0.00 | 30 | 1011.0 |
| 20260503205218 | 62 | 35 | 10.0 | 19.0 | 0.00 | 0.00 | 0.00 | 30 | 1011.0 |
| 20260503205209 | 62 | 11 | 13.0 | 16.0 | 0.00 | 0.00 | 0.00 | 30 | 1011.0 |
| 20260503205153 | 62 | 11 | 13.0 | 16.0 | 0.00 | 0.00 | 0.00 | 30 | 1011.0 |
| 20260503205133 | 62 | 34 | 7.0 | 15.0 | 0.00 | 0.00 | 0.00 | 30 | 1011.0 |
| 20260503205113 | 62 | 328 | 6.0 | 15.0 | 0.00 | 0.00 | 0.00 | 30 | 1011.0 |
| 20260503205049 | 62 | 350 | 11.0 | 19.0 | 0.00 | 0.00 | 0.00 | 30 | 1011.0 |
| 20260503205039 | 62 | 36 | 7.0 | 19.0 | 0.00 | 0.00 | 0.00 | 30 | 1011.0 |
| 20260503205020 | 62 | 10 | 10.0 | 19.0 | 0.00 | 0.00 | 0.00 | 30 | 1011.0 |
| 20260503205001 | 62 | 36 | 6.0 | 19.0 | 0.00 | 0.00 | 0.00 | 30 | 1011.0 |
| 20260503204949 | 62 | 9 | 8.0 | 19.0 | 0.00 | 0.00 | 0.00 | 30 | 1011.0 |
| 20260503204943 | 62 | 20 | 13.0 | 19.0 | 0.00 | 0.00 | 0.00 | 30 | 1011.0 |
| 20260503204913 | 62 | 11 | 12.0 | 16.0 | 0.00 | 0.00 | 0.00 | 30 | 1011.0 |
| 20260503204900 | 62 | 26 | 7.0 | 15.0 | 0.00 | 0.00 | 0.00 | 29 | 1011.0 |
| 20260503204833 | 62 | 337 | 8.0 | 15.0 | 0.00 | 0.00 | 0.00 | 29 | 1011.0 |
| 20260503204809 | 62 | 326 | 6.0 | 15.0 | 0.00 | 0.00 | 0.00 | 29 | 1011.0 |
| 20260503204756 | 62 | 324 | 6.0 | 15.0 | 0.00 | 0.00 | 0.00 | 29 | 1011.0 |
| 20260503204738 | 62 | 3 | 10.0 | 15.0 | 0.00 | 0.00 | 0.00 | 29 | 1011.0 |
| 20260503204724 | 62 | 20 | 10.0 | 14.0 | 0.00 | 0.00 | 0.00 | 29 | 1011.0 |
| 20260503204717 | 62 | 15 | 9.0 | 14.0 | 0.00 | 0.00 | 0.00 | 29 | 1011.0 |
| 20260503204658 | 62 | 13 | 9.0 | 14.0 | 0.00 | 0.00 | 0.00 | 30 | 1011.0 |
| 20260503204636 | 62 | 355 | 7.0 | 14.0 | 0.00 | 0.00 | 0.00 | 30 | 1011.0 |
| 20260503204610 | 62 | 61 | 10.0 | 19.0 | 0.00 | 0.00 | 0.00 | 30 | 1011.0 |
| 20260503204601 | 62 | 77 | 8.0 | 19.0 | 0.00 | 0.00 | 0.00 | 30 | 1011.0 |
| 20260503204538 | 62 | 8 | 9.0 | 19.0 | 0.00 | 0.00 | 0.00 | 30 | 1011.0 |
| 20260503204529 | 62 | 43 | 9.0 | 19.0 | 0.00 | 0.00 | 0.00 | 30 | 1011.0 |
| 20260503204505 | 62 | 8 | 15.0 | 19.0 | 0.00 | 0.00 | 0.00 | 30 | 1011.0 |
| 20260503204451 | 62 | 359 | 11.0 | 19.0 | 0.00 | 0.00 | 0.00 | 30 | 1011.0 |
| 20260503204433 | 62 | 321 | 10.0 | 18.0 | 0.00 | 0.00 | 0.00 | 30 | 1011.0 |
| 20260503204420 | 62 | 43 | 9.0 | 18.0 | 0.00 | 0.00 | 0.00 | 30 | 1011.0 |
| 20260503204413 | 62 | 6 | 11.0 | 18.0 | 0.00 | 0.00 | 0.00 | 30 | 1011.0 |
| 20260503204353 | 62 | 13 | 8.0 | 18.0 | 0.00 | 0.00 | 0.00 | 30 | 1011.0 |
| 20260503204342 | 62 | 65 | 8.0 | 18.0 | 0.00 | 0.00 | 0.00 | 30 | 1011.0 |
| 20260503204308 | 62 | 39 | 11.0 | 16.0 | 0.00 | 0.00 | 0.00 | 30 | 1011.0 |
| 20260503204243 | 62 | 16 | 7.0 | 15.0 | 0.00 | 0.00 | 0.00 | 30 | 1011.0 |
| 20260503204225 | 62 | 10 | 8.0 | 15.0 | 0.00 | 0.00 | 0.00 | 30 | 1011.0 |
| 20260503204201 | 62 | 37 | 8.0 | 15.0 | 0.00 | 0.00 | 0.00 | 30 | 1011.0 |
| 20260503204148 | 62 | 44 | 10.0 | 15.0 | 0.00 | 0.00 | 0.00 | 30 | 1011.0 |
| 20260503204140 | 62 | 37 | 11.0 | 15.0 | 0.00 | 0.00 | 0.00 | 30 | 1011.0 |
| 20260503204121 | 62 | 19 | 9.0 | 15.0 | 0.00 | 0.00 | 0.00 | 30 | 1011.0 |
| 20260503204105 | 62 | 8 | 11.0 | 14.0 | 0.00 | 0.00 | 0.00 | 30 | 1011.0 |
| 20260503204041 | 62 | 4 | 8.0 | 15.0 | 0.00 | 0.00 | 0.00 | 30 | 1011.0 |
| 20260503204026 | 62 | 6 | 6.0 | 19.0 | 0.00 | 0.00 | 0.00 | 30 | 1011.0 |
| 20260503204017 | 62 | 357 | 6.0 | 19.0 | 0.00 | 0.00 | 0.00 | 30 | 1011.0 |
| 20260503204001 | 62 | 355 | 6.0 | 19.0 | 0.00 | 0.00 | 0.00 | 30 | 1011.0 |
| 20260503203937 | 62 | 268 | 5.0 | 19.0 | 0.00 | 0.00 | 0.00 | 30 | 1011.0 |
| 20260503203922 | 62 | 348 | 10.0 | 19.0 | 0.00 | 0.00 | 0.00 | 30 | 1011.0 |
| 20260503203913 | 62 | 23 | 12.0 | 19.0 | 0.00 | 0.00 | 0.00 | 30 | 1011.0 |
| 20260503203857 | 62 | 38 | 12.0 | 19.0 | 0.00 | 0.00 | 0.00 | 30 | 1011.0 |
| 20260503203833 | 62 | 10 | 9.0 | 15.0 | 0.00 | 0.00 | 0.00 | 30 | 1011.0 |
| 20260503203818 | 62 | 18 | 9.0 | 16.0 | 0.00 | 0.00 | 0.00 | 30 | 1011.0 |
| 20260503203810 | 62 | 359 | 8.0 | 16.0 | 0.00 | 0.00 | 0.00 | 30 | 1011.0 |
| 20260503203738 | 62 | 11 | 10.0 | 17.0 | 0.00 | 0.00 | 0.00 | 30 | 1011.0 |
| 20260503203729 | 62 | 48 | 7.0 | 17.0 | 0.00 | 0.00 | 0.00 | 30 | 1011.0 |
| 20260503203718 | 62 | 24 | 8.0 | 17.0 | 0.00 | 0.00 | 0.00 | 30 | 1011.0 |
| 20260503203633 | 62 | 305 | 9.0 | 17.0 | 0.00 | 0.00 | 0.00 | 30 | 1011.0 |
| 20260503203619 | 61 | 357 | 10.0 | 23.0 | 0.00 | 0.00 | 0.00 | 30 | 1011.0 |
| 20260503203601 | 61 | 37 | 10.0 | 23.0 | 0.00 | 0.00 | 0.00 | 30 | 1011.0 |
| 20260503203546 | 61 | 8 | 8.0 | 23.0 | 0.00 | 0.00 | 0.00 | 30 | 1011.0 |
| 20260503203537 | 61 | 39 | 10.0 | 23.0 | 0.00 | 0.00 | 0.00 | 30 | 1011.0 |
| 20260503203517 | 61 | 20 | 6.0 | 24.0 | 0.00 | 0.00 | 0.00 | 30 | 1011.0 |
| 20260503203458 | 61 | 9 | 11.0 | 24.0 | 0.00 | 0.00 | 0.00 | 30 | 1011.0 |
| 20260503203450 | 61 | 7 | 13.0 | 24.0 | 0.00 | 0.00 | 0.00 | 30 | 1011.0 |
| 20260503203425 | 61 | 35 | 10.0 | 24.0 | 0.00 | 0.00 | 0.00 | 30 | 1011.0 |
| 20260503203411 | 61 | 49 | 13.0 | 24.0 | 0.00 | 0.00 | 0.00 | 30 | 1011.0 |
| 20260503203402 | 61 | 34 | 13.0 | 21.0 | 0.00 | 0.00 | 0.00 | 30 | 1011.0 |
| 20260503203353 | 61 | 34 | 13.0 | 21.0 | 0.00 | 0.00 | 0.00 | 30 | 1011.0 |
| 20260503203338 | 61 | 348 | 8.0 | 21.0 | 0.00 | 0.00 | 0.00 | 30 | 1011.0 |
| 20260503203315 | 61 | 2 | 11.0 | 21.0 | 0.00 | 0.00 | 0.00 | 30 | 1011.0 |
| 20260503203306 | 62 | 20 | 12.0 | 15.0 | 0.00 | 0.00 | 0.00 | 30 | 1011.0 |
| 20260503203257 | 62 | 20 | 12.0 | 16.0 | 0.00 | 0.00 | 0.00 | 30 | 1011.0 |
| 20260503203244 | 62 | 20 | 6.0 | 16.0 | 0.00 | 0.00 | 0.00 | 30 | 1011.0 |
| 20260503203210 | 62 | 10 | 7.0 | 16.0 | 0.00 | 0.00 | 0.00 | 30 | 1011.0 |
| 20260503203201 | 62 | 20 | 9.0 | 16.0 | 0.00 | 0.00 | 0.00 | 30 | 1011.0 |
| 20260503203145 | 62 | 329 | 11.0 | 16.0 | 0.00 | 0.00 | 0.00 | 30 | 1011.0 |
| 20260503203124 | 62 | 14 | 14.0 | 18.0 | 0.00 | 0.00 | 0.00 | 30 | 1011.0 |
| 20260503203105 | 62 | 353 | 12.0 | 18.0 | 0.00 | 0.00 | 0.00 | 30 | 1011.0 |
| 20260503203050 | 62 | 46 | 9.0 | 18.0 | 0.00 | 0.00 | 0.00 | 30 | 1011.0 |
| 20260503203041 | 62 | 33 | 8.0 | 18.0 | 0.00 | 0.00 | 0.00 | 30 | 1011.0 |
| 20260503203025 | 62 | 28 | 10.0 | 18.0 | 0.00 | 0.00 | 0.00 | 30 | 1011.0 |
| 20260503203003 | 62 | 20 | 10.0 | 18.0 | 0.00 | 0.00 | 0.00 | 30 | 1011.0 |
| 20260503202953 | 62 | 17 | 14.0 | 18.0 | 0.00 | 0.00 | 0.00 | 30 | 1011.0 |
| 20260503202937 | 62 | 37 | 9.0 | 15.0 | 0.00 | 0.00 | 0.00 | 30 | 1011.0 |
| 20260503202913 | 62 | 345 | 6.0 | 13.0 | 0.00 | 0.00 | 0.00 | 30 | 1011.0 |
| 20260503202849 | 62 | 331 | 6.0 | 14.0 | 0.00 | 0.00 | 0.00 | 30 | 1011.0 |
| 20260503202835 | 62 | 353 | 9.0 | 14.0 | 0.00 | 0.00 | 0.00 | 30 | 1011.0 |
| 20260503202829 | 62 | 44 | 7.0 | 14.0 | 0.00 | 0.00 | 0.00 | 30 | 1011.0 |
| 20260503202802 | 62 | 355 | 11.0 | 19.0 | 0.00 | 0.00 | 0.00 | 30 | 1011.0 |
| 20260503202753 | 62 | 22 | 8.0 | 19.0 | 0.00 | 0.00 | 0.00 | 30 | 1011.0 |
| 20260503202730 | 62 | 9 | 8.0 | 19.0 | 0.00 | 0.00 | 0.00 | 30 | 1011.0 |
| 20260503202722 | 62 | 25 | 9.0 | 19.0 | 0.00 | 0.00 | 0.00 | 30 | 1011.0 |
| 20260503202706 | 62 | 356 | 7.0 | 19.0 | 0.00 | 0.00 | 0.00 | 30 | 1011.0 |
| 20260503202657 | 62 | 356 | 7.0 | 19.0 | 0.00 | 0.00 | 0.00 | 30 | 1011.0 |
| 20260503202635 | 62 | 15 | 12.0 | 19.0 | 0.00 | 0.00 | 0.00 | 30 | 1011.0 |
| 20260503202611 | 62 | 69 | 9.0 | 19.0 | 0.00 | 0.00 | 0.00 | 30 | 1011.0 |
| 20260503202541 | 62 | 343 | 13.0 | 19.0 | 0.00 | 0.00 | 0.00 | 30 | 1011.0 |
| 20260503202521 | 62 | 24 | 12.0 | 19.0 | 0.00 | 0.00 | 0.00 | 30 | 1011.0 |
| 20260503202505 | 62 | 348 | 8.0 | 19.0 | 0.00 | 0.00 | 0.00 | 30 | 1011.0 |
| 20260503202453 | 62 | 15 | 15.0 | 19.0 | 0.00 | 0.00 | 0.00 | 30 | 1011.0 |
| 20260503202426 | 62 | 4 | 11.0 | 17.0 | 0.00 | 0.00 | 0.00 | 30 | 1011.0 |
| 20260503202417 | 62 | 9 | 10.0 | 17.0 | 0.00 | 0.00 | 0.00 | 30 | 1011.0 |
| 20260503202403 | 62 | 8 | 8.0 | 17.0 | 0.00 | 0.00 | 0.00 | 30 | 1011.0 |
| 20260503202339 | 62 | 355 | 8.0 | 17.0 | 0.00 | 0.00 | 0.00 | 30 | 1011.0 |
| 20260503202321 | 62 | 14 | 12.0 | 25.0 | 0.00 | 0.00 | 0.00 | 29 | 1011.0 |
| 20260503202307 | 62 | 13 | 8.0 | 25.0 | 0.00 | 0.00 | 0.00 | 29 | 1011.0 |
| 20260503202239 | 62 | 20 | 13.0 | 25.0 | 0.00 | 0.00 | 0.00 | 29 | 1011.0 |
| 20260503202223 | 62 | 39 | 9.0 | 25.0 | 0.00 | 0.00 | 0.00 | 30 | 1011.0 |
| 20260503202147 | 62 | 7 | 15.0 | 25.0 | 0.00 | 0.00 | 0.00 | 30 | 1011.0 |
| 20260503202113 | 62 | 6 | 12.0 | 16.0 | 0.00 | 0.00 | 0.00 | 30 | 1011.0 |
| 20260503202100 | 62 | 39 | 8.0 | 13.0 | 0.00 | 0.00 | 0.00 | 30 | 1011.0 |
| 20260503202054 | 62 | 57 | 7.0 | 13.0 | 0.00 | 0.00 | 0.00 | 30 | 1011.0 |
| 20260503202009 | 62 | 16 | 7.0 | 15.0 | 0.00 | 0.00 | 0.00 | 29 | 1011.0 |
| 20260503201953 | 62 | 14 | 6.0 | 15.0 | 0.00 | 0.00 | 0.00 | 29 | 1011.0 |
| 20260503201915 | 62 | 14 | 7.0 | 15.0 | 0.00 | 0.00 | 0.00 | 29 | 1011.0 |
| 20260503201906 | 62 | 13 | 12.0 | 15.0 | 0.00 | 0.00 | 0.00 | 29 | 1011.0 |
| 20260503201858 | 62 | 13 | 12.0 | 21.0 | 0.00 | 0.00 | 0.00 | 29 | 1011.0 |
| 20260503201842 | 62 | 36 | 12.0 | 21.0 | 0.00 | 0.00 | 0.00 | 29 | 1011.0 |
| 20260503201833 | 62 | 8 | 9.0 | 21.0 | 0.00 | 0.00 | 0.00 | 29 | 1011.0 |
| 20260503201820 | 62 | 3 | 11.0 | 21.0 | 0.00 | 0.00 | 0.00 | 29 | 1011.0 |
| 20260503201812 | 62 | 3 | 11.0 | 21.0 | 0.00 | 0.00 | 0.00 | 30 | 1011.0 |
| 20260503201754 | 62 | 20 | 10.0 | 21.0 | 0.00 | 0.00 | 0.00 | 30 | 1011.0 |
| 20260503201737 | 62 | 74 | 12.0 | 21.0 | 0.00 | 0.00 | 0.00 | 30 | 1011.0 |
| 20260503201722 | 62 | 25 | 16.0 | 21.0 | 0.00 | 0.00 | 0.00 | 30 | 1011.0 |
| 20260503201713 | 62 | 10 | 11.0 | 21.0 | 0.00 | 0.00 | 0.00 | 30 | 1011.0 |
| 20260503201652 | 62 | 2 | 14.0 | 21.0 | 0.00 | 0.00 | 0.00 | 30 | 1011.0 |
| 20260503201617 | 62 | 26 | 13.0 | 21.0 | 0.00 | 0.00 | 0.00 | 30 | 1011.0 |
| 20260503201602 | 62 | 40 | 9.0 | 21.0 | 0.00 | 0.00 | 0.00 | 30 | 1011.0 |
| 20260503201537 | 62 | 32 | 10.0 | 21.0 | 0.00 | 0.00 | 0.00 | 30 | 1011.0 |
| 20260503201523 | 62 | 6 | 11.0 | 21.0 | 0.00 | 0.00 | 0.00 | 30 | 1011.0 |
| 20260503201505 | 62 | 7 | 15.0 | 21.0 | 0.00 | 0.00 | 0.00 | 30 | 1011.0 |
| 20260503201449 | 62 | 55 | 7.0 | 17.0 | 0.00 | 0.00 | 0.00 | 30 | 1011.0 |
| 20260503201436 | 62 | 343 | 6.0 | 17.0 | 0.00 | 0.00 | 0.00 | 30 | 1011.0 |
| 20260503201419 | 62 | 1 | 12.0 | 17.0 | 0.00 | 0.00 | 0.00 | 30 | 1011.0 |
| 20260503201345 | 62 | 65 | 12.0 | 16.0 | 0.00 | 0.00 | 0.00 | 29 | 1011.0 |
| 20260503201329 | 62 | 18 | 9.0 | 15.0 | 0.00 | 0.00 | 0.00 | 29 | 1011.0 |
| 20260503201316 | 62 | 345 | 9.0 | 15.0 | 0.00 | 0.00 | 0.00 | 29 | 1011.0 |
| 20260503201257 | 62 | 359 | 11.0 | 19.0 | 0.00 | 0.00 | 0.00 | 29 | 1011.0 |
| 20260503201241 | 62 | 5 | 11.0 | 19.0 | 0.00 | 0.00 | 0.00 | 30 | 1011.0 |
| 20260503201226 | 62 | 18 | 11.0 | 19.0 | 0.00 | 0.00 | 0.00 | 30 | 1011.0 |
| 20260503201217 | 62 | 352 | 8.0 | 19.0 | 0.00 | 0.00 | 0.00 | 30 | 1011.0 |
| 20260503201202 | 62 | 125 | 9.0 | 19.0 | 0.00 | 0.00 | 0.00 | 30 | 1011.0 |
| 20260503201153 | 62 | 125 | 9.0 | 19.0 | 0.00 | 0.00 | 0.00 | 30 | 1011.0 |
| 20260503201139 | 62 | 357 | 11.0 | 19.0 | 0.00 | 0.00 | 0.00 | 30 | 1011.0 |
| 20260503201131 | 62 | 3 | 9.0 | 16.0 | 0.00 | 0.00 | 0.00 | 30 | 1011.0 |
| 20260503201106 | 62 | 13 | 9.0 | 16.0 | 0.00 | 0.00 | 0.00 | 30 | 1011.0 |
| 20260503201057 | 62 | 13 | 9.0 | 16.0 | 0.00 | 0.00 | 0.00 | 30 | 1011.0 |
| 20260503201045 | 62 | 47 | 11.0 | 16.0 | 0.00 | 0.00 | 0.00 | 30 | 1011.0 |
| 20260503201038 | 62 | 307 | 8.0 | 16.0 | 0.00 | 0.00 | 0.00 | 30 | 1011.0 |
| 20260503201019 | 62 | 16 | 9.0 | 16.0 | 0.00 | 0.00 | 0.00 | 30 | 1011.0 |
| 20260503200954 | 62 | 53 | 12.0 | 16.0 | 0.00 | 0.00 | 0.00 | 30 | 1011.0 |
| 20260503200945 | 62 | 30 | 10.0 | 16.0 | 0.00 | 0.00 | 0.00 | 30 | 1011.0 |
| 20260503200936 | 62 | 16 | 13.0 | 16.0 | 0.00 | 0.00 | 0.00 | 30 | 1011.0 |
| 20260503200907 | 62 | 13 | 11.0 | 14.0 | 0.00 | 0.00 | 0.00 | 30 | 1011.0 |
| 20260503200842 | 62 | 313 | 4.0 | 15.0 | 0.00 | 0.00 | 0.00 | 30 | 1011.0 |
| 20260503200833 | 62 | 313 | 4.0 | 15.0 | 0.00 | 0.00 | 0.00 | 29 | 1011.0 |
| 20260503200817 | 62 | 338 | 7.0 | 15.0 | 0.00 | 0.00 | 0.00 | 29 | 1011.0 |
| 20260503200802 | 62 | 29 | 8.0 | 23.0 | 0.00 | 0.00 | 0.00 | 29 | 1011.0 |
| 20260503200753 | 62 | 1 | 6.0 | 23.0 | 0.00 | 0.00 | 0.00 | 29 | 1011.0 |
| 20260503200740 | 62 | 338 | 9.0 | 23.0 | 0.00 | 0.00 | 0.00 | 29 | 1011.0 |
| 20260503200713 | 62 | 20 | 9.0 | 23.0 | 0.00 | 0.00 | 0.00 | 29 | 1011.0 |
| 20260503200649 | 62 | 12 | 8.0 | 23.0 | 0.00 | 0.00 | 0.00 | 29 | 1011.0 |
| 20260503200635 | 62 | 20 | 9.0 | 23.0 | 0.00 | 0.00 | 0.00 | 29 | 1011.0 |
| 20260503200609 | 62 | 53 | 15.0 | 22.0 | 0.00 | 0.00 | 0.00 | 29 | 1011.0 |
| 20260503200545 | 62 | 24 | 10.0 | 18.0 | 0.00 | 0.00 | 0.00 | 29 | 1011.0 |
| 20260503200529 | 62 | 27 | 15.0 | 23.0 | 0.00 | 0.00 | 0.00 | 29 | 1011.0 |
| 20260503200521 | 62 | 356 | 10.0 | 23.0 | 0.00 | 0.00 | 0.00 | 29 | 1011.0 |
| 20260503200505 | 62 | 13 | 10.0 | 23.0 | 0.00 | 0.00 | 0.00 | 29 | 1011.0 |
| 20260503200441 | 62 | 324 | 12.0 | 23.0 | 0.00 | 0.00 | 0.00 | 29 | 1011.0 |
| 20260503200425 | 62 | 31 | 15.0 | 23.0 | 0.00 | 0.00 | 0.00 | 29 | 1011.0 |
| 20260503200417 | 63 | 8 | 9.0 | 23.0 | 0.00 | 0.00 | 0.00 | 29 | 1011.0 |
| 20260503200401 | 63 | 357 | 13.0 | 23.0 | 0.00 | 0.00 | 0.00 | 29 | 1011.0 |
| 20260503200337 | 63 | 20 | 9.0 | 22.0 | 0.00 | 0.00 | 0.00 | 29 | 1011.0 |
| 20260503200322 | 63 | 334 | 10.0 | 22.0 | 0.00 | 0.00 | 0.00 | 29 | 1011.0 |
| 20260503200313 | 63 | 344 | 11.0 | 22.0 | 0.00 | 0.00 | 0.00 | 29 | 1011.0 |
| 20260503200257 | 63 | 26 | 14.0 | 22.0 | 0.00 | 0.00 | 0.00 | 29 | 1011.0 |
| 20260503200238 | 63 | 336 | 8.0 | 18.0 | 0.00 | 0.00 | 0.00 | 29 | 1011.0 |
| 20260503200209 | 63 | 24 | 9.0 | 19.0 | 0.00 | 0.00 | 0.00 | 28 | 1011.0 |
| 20260503200154 | 63 | 20 | 7.0 | 19.0 | 0.00 | 0.00 | 0.00 | 28 | 1011.0 |
| 20260503200145 | 63 | 14 | 8.0 | 19.0 | 0.00 | 0.00 | 0.00 | 28 | 1011.0 |
| 20260503200125 | 63 | 2 | 7.0 | 19.0 | 0.00 | 0.00 | 0.00 | 28 | 1011.0 |
| 20260503200106 | 63 | 20 | 11.0 | 19.0 | 0.00 | 0.00 | 0.00 | 29 | 1011.0 |
| 20260503200058 | 63 | 2 | 12.0 | 19.0 | 0.00 | 0.00 | 0.00 | 29 | 1011.0 |
| 20260503200037 | 63 | 32 | 16.0 | 19.0 | 0.00 | 0.00 | 0.00 | 29 | 1011.0 |
| 20260503200017 | 63 | 15 | 8.0 | 17.0 | 0.00 | 0.00 | 0.00 | 29 | 1011.0 |
| 20260503200004 | 63 | 0 | 12.0 | 17.0 | 0.00 | 0.00 | 0.00 | 29 | 1011.0 |
| 20260503195956 | 63 | 49 | 6.0 | 17.0 | 0.00 | 0.00 | 0.00 | 29 | 1011.0 |
| 20260503195930 | 63 | 24 | 10.0 | 17.0 | 0.00 | 0.00 | 0.00 | 29 | 1011.0 |
| 20260503195921 | 63 | 13 | 8.0 | 17.0 | 0.00 | 0.00 | 0.00 | 29 | 1011.0 |
| 20260503195906 | 63 | 27 | 6.0 | 17.0 | 0.00 | 0.00 | 0.00 | 29 | 1011.0 |
| 20260503195857 | 63 | 27 | 6.0 | 17.0 | 0.00 | 0.00 | 0.00 | 29 | 1011.0 |
| 20260503195841 | 63 | 0 | 10.0 | 17.0 | 0.00 | 0.00 | 0.00 | 29 | 1011.0 |
| 20260503195827 | 63 | 24 | 12.0 | 17.0 | 0.00 | 0.00 | 0.00 | 29 | 1011.0 |
| 20260503195809 | 63 | 7 | 11.0 | 17.0 | 0.00 | 0.00 | 0.00 | 29 | 1011.0 |
| 20260503195753 | 63 | 18 | 7.0 | 17.0 | 0.00 | 0.00 | 0.00 | 29 | 1011.0 |
| 20260503195733 | 63 | 48 | 8.0 | 17.0 | 0.00 | 0.00 | 0.00 | 29 | 1011.0 |
| 20260503195713 | 63 | 11 | 14.0 | 17.0 | 0.00 | 0.00 | 0.00 | 29 | 1011.0 |
| 20260503195658 | 63 | 22 | 11.0 | 17.0 | 0.00 | 0.00 | 0.00 | 29 | 1011.0 |
| 20260503195649 | 63 | 38 | 6.0 | 17.0 | 0.00 | 0.00 | 0.00 | 28 | 1011.0 |
| 20260503195633 | 63 | 40 | 9.0 | 17.0 | 0.00 | 0.00 | 0.00 | 28 | 1011.0 |
| 20260503195609 | 63 | 24 | 8.0 | 11.0 | 0.00 | 0.00 | 0.00 | 28 | 1010.0 |
| 20260503195545 | 63 | 7 | 9.0 | 11.0 | 0.00 | 0.00 | 0.00 | 28 | 1010.0 |
| 20260503195529 | 63 | 40 | 6.0 | 11.0 | 0.00 | 0.00 | 0.00 | 28 | 1011.0 |
| 20260503195506 | 63 | 14 | 8.0 | 11.0 | 0.00 | 0.00 | 0.00 | 28 | 1011.0 |
| 20260503195457 | 63 | 350 | 8.0 | 14.0 | 0.00 | 0.00 | 0.00 | 28 | 1011.0 |
| 20260503195441 | 63 | 67 | 8.0 | 14.0 | 0.00 | 0.00 | 0.00 | 28 | 1011.0 |
| 20260503195430 | 63 | 356 | 7.0 | 16.0 | 0.00 | 0.00 | 0.00 | 28 | 1011.0 |
| 20260503195411 | 63 | 359 | 6.0 | 16.0 | 0.00 | 0.00 | 0.00 | 28 | 1011.0 |
| 20260503195345 | 63 | 34 | 8.0 | 19.0 | 0.00 | 0.00 | 0.00 | 28 | 1011.0 |
| 20260503195337 | 63 | 34 | 8.0 | 19.0 | 0.00 | 0.00 | 0.00 | 27 | 1011.0 |
| 20260503195321 | 63 | 5 | 9.0 | 23.0 | 0.00 | 0.00 | 0.00 | 27 | 1011.0 |
| 20260503195306 | 63 | 307 | 9.0 | 23.0 | 0.00 | 0.00 | 0.00 | 27 | 1011.0 |
| 20260503195257 | 63 | 299 | 12.0 | 23.0 | 0.00 | 0.00 | 0.00 | 27 | 1011.0 |
| 20260503195233 | 63 | 356 | 15.0 | 23.0 | 0.00 | 0.00 | 0.00 | 27 | 1011.0 |
| 20260503195217 | 63 | 334 | 13.0 | 23.0 | 0.00 | 0.00 | 0.00 | 27 | 1011.0 |
| 20260503195203 | 63 | 326 | 16.0 | 23.0 | 0.00 | 0.00 | 0.00 | 27 | 1011.0 |
| 20260503195155 | 63 | 286 | 15.0 | 21.0 | 0.00 | 0.00 | 0.00 | 27 | 1011.0 |
| 20260503195128 | 64 | 329 | 8.0 | 19.0 | 0.00 | 0.00 | 0.00 | 26 | 1011.0 |
| 20260503195121 | 64 | 304 | 9.0 | 19.0 | 0.00 | 0.00 | 0.00 | 26 | 1011.0 |
| 20260503195102 | 64 | 304 | 16.0 | 19.0 | 0.00 | 0.00 | 0.00 | 26 | 1011.0 |
| 20260503195044 | 64 | 322 | 13.0 | 18.0 | 0.00 | 0.00 | 0.00 | 26 | 1011.0 |
| 20260503195025 | 64 | 316 | 12.0 | 18.0 | 0.00 | 0.00 | 0.00 | 27 | 1011.0 |
| 20260503195009 | 64 | 303 | 8.0 | 18.0 | 0.00 | 0.00 | 0.00 | 27 | 1011.0 |
| 20260503194953 | 64 | 313 | 10.0 | 22.0 | 0.00 | 0.00 | 0.00 | 27 | 1011.0 |
| 20260503194945 | 64 | 336 | 15.0 | 22.0 | 0.00 | 0.00 | 0.00 | 27 | 1011.0 |
| 20260503194921 | 64 | 315 | 11.0 | 22.0 | 0.00 | 0.00 | 0.00 | 27 | 1011.0 |
| 20260503194904 | 64 | 261 | 6.0 | 22.0 | 0.00 | 0.00 | 0.00 | 27 | 1011.0 |
| 20260503194841 | 64 | 31 | 8.0 | 22.0 | 0.00 | 0.00 | 0.00 | 27 | 1011.0 |
| 20260503194826 | 64 | 357 | 14.0 | 23.0 | 0.00 | 0.00 | 0.00 | 27 | 1011.0 |
| 20260503194817 | 64 | 19 | 17.0 | 23.0 | 0.00 | 0.00 | 0.00 | 27 | 1011.0 |
| 20260503194800 | 64 | 63 | 8.0 | 23.0 | 0.00 | 0.00 | 0.00 | 27 | 1011.0 |
| 20260503194738 | 64 | 354 | 12.0 | 23.0 | 0.00 | 0.00 | 0.00 | 27 | 1011.0 |
| 20260503194729 | 64 | 304 | 10.0 | 23.0 | 0.00 | 0.00 | 0.00 | 27 | 1010.0 |
| 20260503194713 | 64 | 26 | 11.0 | 23.0 | 0.00 | 0.00 | 0.00 | 27 | 1010.0 |
| 20260503194700 | 64 | 354 | 14.0 | 23.0 | 0.00 | 0.00 | 0.00 | 27 | 1010.0 |
| 20260503194650 | 64 | 354 | 14.0 | 23.0 | 0.00 | 0.00 | 0.00 | 27 | 1010.0 |
| 20260503194643 | 64 | 317 | 12.0 | 22.0 | 0.00 | 0.00 | 0.00 | 27 | 1010.0 |
| 20260503194618 | 64 | 325 | 8.0 | 14.0 | 0.00 | 0.00 | 0.00 | 27 | 1011.0 |
| 20260503194609 | 64 | 332 | 6.0 | 14.0 | 0.00 | 0.00 | 0.00 | 27 | 1011.0 |
| 20260503194546 | 64 | 348 | 9.0 | 16.0 | 0.00 | 0.00 | 0.00 | 27 | 1011.0 |
| 20260503194537 | 64 | 29 | 11.0 | 16.0 | 0.00 | 0.00 | 0.00 | 27 | 1011.0 |
| 20260503194513 | 64 | 3 | 12.0 | 23.0 | 0.00 | 0.00 | 0.00 | 27 | 1011.0 |
| 20260503194450 | 64 | 0 | 10.0 | 23.0 | 0.00 | 0.00 | 0.00 | 27 | 1011.0 |
| 20260503194441 | 64 | 16 | 10.0 | 23.0 | 0.00 | 0.00 | 0.00 | 27 | 1011.0 |
| 20260503194417 | 64 | 43 | 12.0 | 23.0 | 0.00 | 0.00 | 0.00 | 27 | 1011.0 |
| 20260503194404 | 64 | 51 | 16.0 | 23.0 | 0.00 | 0.00 | 0.00 | 27 | 1011.0 |
| 20260503194358 | 64 | 32 | 14.0 | 17.0 | 0.00 | 0.00 | 0.00 | 27 | 1011.0 |
| 20260503194329 | 64 | 50 | 13.0 | 17.0 | 0.00 | 0.00 | 0.00 | 27 | 1011.0 |
| 20260503194305 | 64 | 331 | 13.0 | 17.0 | 0.00 | 0.00 | 0.00 | 27 | 1011.0 |
| 20260503194249 | 64 | 311 | 13.0 | 17.0 | 0.00 | 0.00 | 0.00 | 28 | 1011.0 |
| 20260503194233 | 64 | 9 | 11.0 | 16.0 | 0.00 | 0.00 | 0.00 | 28 | 1011.0 |
| 20260503194224 | 64 | 9 | 11.0 | 21.0 | 0.00 | 0.00 | 0.00 | 28 | 1010.0 |
| 20260503194211 | 64 | 340 | 12.0 | 21.0 | 0.00 | 0.00 | 0.00 | 28 | 1010.0 |
| 20260503194202 | 64 | 5 | 12.0 | 21.0 | 0.00 | 0.00 | 0.00 | 28 | 1010.0 |
| 20260503194153 | 63 | 5 | 12.0 | 21.0 | 0.00 | 0.00 | 0.00 | 27 | 1010.0 |
| 20260503194139 | 63 | 22 | 8.0 | 21.0 | 0.00 | 0.00 | 0.00 | 27 | 1010.0 |
| 20260503194117 | 63 | 14 | 11.0 | 21.0 | 0.00 | 0.00 | 0.00 | 27 | 1011.0 |
| 20260503194032 | 64 | 345 | 15.0 | 18.0 | 0.00 | 0.00 | 0.00 | 28 | 1011.0 |
| 20260503194014 | 64 | 348 | 15.0 | 18.0 | 0.00 | 0.00 | 0.00 | 28 | 1011.0 |
| 20260503193937 | 64 | 23 | 12.0 | 17.0 | 0.00 | 0.00 | 0.00 | 27 | 1011.0 |
| 20260503193921 | 64 | 5 | 8.0 | 17.0 | 0.00 | 0.00 | 0.00 | 27 | 1010.0 |
| 20260503193912 | 64 | 58 | 13.0 | 17.0 | 0.00 | 0.00 | 0.00 | 27 | 1010.0 |
| 20260503193849 | 64 | 13 | 12.0 | 19.0 | 0.00 | 0.00 | 0.00 | 27 | 1010.0 |
| 20260503193834 | 64 | 33 | 8.0 | 19.0 | 0.00 | 0.00 | 0.00 | 27 | 1010.0 |
| 20260503193821 | 64 | 7 | 11.0 | 21.0 | 0.00 | 0.00 | 0.00 | 27 | 1011.0 |
| 20260503193800 | 64 | 353 | 11.0 | 21.0 | 0.00 | 0.00 | 0.00 | 27 | 1011.0 |
| 20260503193744 | 64 | 7 | 10.0 | 21.0 | 0.00 | 0.00 | 0.00 | 27 | 1011.0 |
| 20260503193729 | 64 | 36 | 9.0 | 21.0 | 0.00 | 0.00 | 0.00 | 28 | 1011.0 |
| 20260503193716 | 64 | 40 | 13.0 | 21.0 | 0.00 | 0.00 | 0.00 | 28 | 1011.0 |
| 20260503193657 | 64 | 310 | 13.0 | 21.0 | 0.00 | 0.00 | 0.00 | 28 | 1011.0 |
| 20260503193642 | 64 | 22 | 9.0 | 21.0 | 0.00 | 0.00 | 0.00 | 28 | 1011.0 |
| 20260503193633 | 64 | 325 | 8.0 | 21.0 | 0.00 | 0.00 | 0.00 | 27 | 1011.0 |
| 20260503193614 | 64 | 5 | 10.0 | 22.0 | 0.00 | 0.00 | 0.00 | 27 | 1011.0 |
| 20260503193556 | 64 | 16 | 10.0 | 25.0 | 0.00 | 0.00 | 0.00 | 27 | 1011.0 |
| 20260503193537 | 64 | 8 | 14.0 | 25.0 | 0.00 | 0.00 | 0.00 | 27 | 1011.0 |
| 20260503193521 | 64 | 343 | 12.0 | 25.0 | 0.00 | 0.00 | 0.00 | 27 | 1011.0 |
| 20260503193506 | 64 | 20 | 12.0 | 25.0 | 0.00 | 0.00 | 0.00 | 27 | 1011.0 |
| 20260503193458 | 64 | 20 | 12.0 | 25.0 | 0.00 | 0.00 | 0.00 | 27 | 1011.0 |
| 20260503193448 | 64 | 25 | 13.0 | 25.0 | 0.00 | 0.00 | 0.00 | 27 | 1011.0 |
| 20260503193434 | 64 | 34 | 9.0 | 25.0 | 0.00 | 0.00 | 0.00 | 27 | 1011.0 |
| 20260503193422 | 64 | 25 | 15.0 | 25.0 | 0.00 | 0.00 | 0.00 | 26 | 1010.0 |
| 20260503193352 | 64 | 330 | 13.0 | 21.0 | 0.00 | 0.00 | 0.00 | 26 | 1010.0 |
| 20260503193339 | 64 | 30 | 13.0 | 21.0 | 0.00 | 0.00 | 0.00 | 26 | 1010.0 |
| 20260503193332 | 64 | 2 | 11.0 | 17.0 | 0.00 | 0.00 | 0.00 | 26 | 1011.0 |
| 20260503193305 | 64 | 18 | 13.0 | 17.0 | 0.00 | 0.00 | 0.00 | 26 | 1011.0 |
| 20260503193256 | 64 | 347 | 10.0 | 19.0 | 0.00 | 0.00 | 0.00 | 26 | 1011.0 |
| 20260503193243 | 64 | 3 | 15.0 | 19.0 | 0.00 | 0.00 | 0.00 | 26 | 1011.0 |
| 20260503193220 | 65 | 298 | 11.0 | 19.0 | 0.00 | 0.00 | 0.00 | 26 | 1011.0 |
| 20260503193200 | 65 | 42 | 14.0 | 19.0 | 0.00 | 0.00 | 0.00 | 26 | 1011.0 |
| 20260503193145 | 65 | 13 | 12.0 | 19.0 | 0.00 | 0.00 | 0.00 | 26 | 1011.0 |
| 20260503193128 | 65 | 349 | 8.0 | 19.0 | 0.00 | 0.00 | 0.00 | 26 | 1010.0 |
| 20260503193105 | 65 | 9 | 10.0 | 19.0 | 0.00 | 0.00 | 0.00 | 26 | 1010.0 |
| 20260503193049 | 65 | 323 | 13.0 | 19.0 | 0.00 | 0.00 | 0.00 | 26 | 1010.0 |
| 20260503193041 | 65 | 0 | 9.0 | 19.0 | 0.00 | 0.00 | 0.00 | 26 | 1010.0 |
| 20260503193029 | 65 | 355 | 15.0 | 19.0 | 0.00 | 0.00 | 0.00 | 26 | 1010.0 |
| 20260503193009 | 65 | 44 | 6.0 | 16.0 | 0.00 | 0.00 | 0.00 | 26 | 1010.0 |
| 20260503192945 | 65 | 5 | 8.0 | 16.0 | 0.00 | 0.00 | 0.00 | 26 | 1010.0 |
| 20260503192930 | 65 | 352 | 8.0 | 17.0 | 0.00 | 0.00 | 0.00 | 26 | 1010.0 |
| 20260503192924 | 65 | 4 | 11.0 | 17.0 | 0.00 | 0.00 | 0.00 | 26 | 1010.0 |
| 20260503192857 | 65 | 342 | 11.0 | 17.0 | 0.00 | 0.00 | 0.00 | 26 | 1010.0 |
| 20260503192849 | 65 | 359 | 11.0 | 17.0 | 0.00 | 0.00 | 0.00 | 26 | 1010.0 |
| 20260503192833 | 65 | 16 | 11.0 | 17.0 | 0.00 | 0.00 | 0.00 | 26 | 1010.0 |
| 20260503192825 | 65 | 16 | 11.0 | 17.0 | 0.00 | 0.00 | 0.00 | 26 | 1011.0 |
| 20260503192809 | 65 | 16 | 12.0 | 17.0 | 0.00 | 0.00 | 0.00 | 26 | 1011.0 |
| 20260503192755 | 65 | 350 | 13.0 | 17.0 | 0.00 | 0.00 | 0.00 | 26 | 1011.0 |
| 20260503192736 | 65 | 283 | 8.0 | 14.0 | 0.00 | 0.00 | 0.00 | 26 | 1011.0 |
| 20260503192717 | 65 | 337 | 5.0 | 14.0 | 0.00 | 0.00 | 0.00 | 26 | 1011.0 |
| 20260503192657 | 65 | 20 | 5.0 | 14.0 | 0.00 | 0.00 | 0.00 | 26 | 1011.0 |
| 20260503192645 | 65 | 352 | 6.0 | 14.0 | 0.00 | 0.00 | 0.00 | 26 | 1011.0 |
| 20260503192636 | 65 | 349 | 8.0 | 14.0 | 0.00 | 0.00 | 0.00 | 26 | 1011.0 |
| 20260503192627 | 65 | 349 | 8.0 | 14.0 | 0.00 | 0.00 | 0.00 | 26 | 1010.0 |
| 20260503192619 | 65 | 299 | 7.0 | 14.0 | 0.00 | 0.00 | 0.00 | 26 | 1010.0 |
| 20260503192553 | 65 | 354 | 7.0 | 14.0 | 0.00 | 0.00 | 0.00 | 26 | 1010.0 |
| 20260503192544 | 65 | 304 | 6.0 | 14.0 | 0.00 | 0.00 | 0.00 | 26 | 1010.0 |
| 20260503192521 | 65 | 304 | 6.0 | 14.0 | 0.00 | 0.00 | 0.00 | 26 | 1011.0 |
| 20260503192505 | 65 | 12 | 7.0 | 14.0 | 0.00 | 0.00 | 0.00 | 26 | 1011.0 |
| 20260503192449 | 66 | 32 | 7.0 | 16.0 | 0.00 | 0.00 | 0.00 | 26 | 1011.0 |
| 20260503192434 | 66 | 7 | 10.0 | 16.0 | 0.00 | 0.00 | 0.00 | 26 | 1011.0 |
| 20260503192424 | 66 | 305 | 8.0 | 16.0 | 0.00 | 0.00 | 0.00 | 26 | 1011.0 |
| 20260503192400 | 66 | 37 | 5.0 | 16.0 | 0.00 | 0.00 | 0.00 | 26 | 1011.0 |
| 20260503192345 | 66 | 339 | 9.0 | 16.0 | 0.00 | 0.00 | 0.00 | 26 | 1011.0 |
| 20260503192336 | 66 | 22 | 11.0 | 16.0 | 0.00 | 0.00 | 0.00 | 26 | 1011.0 |
| 20260503192313 | 66 | 315 | 9.0 | 16.0 | 0.00 | 0.00 | 0.00 | 26 | 1010.0 |
| 20260503192251 | 66 | 331 | 11.0 | 15.0 | 0.00 | 0.00 | 0.00 | 26 | 1010.0 |
| 20260503192241 | 66 | 306 | 6.0 | 13.0 | 0.00 | 0.00 | 0.00 | 26 | 1010.0 |
| 20260503192219 | 66 | 31 | 7.0 | 13.0 | 0.00 | 0.00 | 0.00 | 26 | 1010.0 |
| 20260503192146 | 66 | 343 | 8.0 | 19.0 | 0.00 | 0.00 | 0.00 | 26 | 1010.0 |
| 20260503192130 | 66 | 28 | 6.0 | 19.0 | 0.00 | 0.00 | 0.00 | 26 | 1010.0 |
| 20260503192120 | 66 | 4 | 7.0 | 19.0 | 0.00 | 0.00 | 0.00 | 26 | 1010.0 |
| 20260503192106 | 66 | 349 | 9.0 | 19.0 | 0.00 | 0.00 | 0.00 | 26 | 1010.0 |
| 20260503192044 | 66 | 11 | 8.0 | 19.0 | 0.00 | 0.00 | 0.00 | 26 | 1010.0 |
| 20260503192024 | 66 | 316 | 12.0 | 19.0 | 0.00 | 0.00 | 0.00 | 26 | 1010.0 |
| 20260503192012 | 66 | 352 | 9.0 | 15.0 | 0.00 | 0.00 | 0.00 | 26 | 1010.0 |
| 20260503191943 | 66 | 2 | 11.0 | 16.0 | 0.00 | 0.00 | 0.00 | 26 | 1010.0 |
| 20260503191912 | 66 | 25 | 9.0 | 16.0 | 0.00 | 0.00 | 0.00 | 26 | 1010.0 |
| 20260503191857 | 66 | 17 | 11.0 | 16.0 | 0.00 | 0.00 | 0.00 | 26 | 1010.0 |
| 20260503191833 | 66 | 355 | 10.0 | 16.0 | 0.00 | 0.00 | 0.00 | 26 | 1010.0 |
| 20260503191810 | 65 | 299 | 10.0 | 16.0 | 0.00 | 0.00 | 0.00 | 27 | 1010.0 |
| 20260503191801 | 65 | 288 | 11.0 | 16.0 | 0.00 | 0.00 | 0.00 | 27 | 1010.0 |
| 20260503191736 | 65 | 354 | 8.0 | 16.0 | 0.00 | 0.00 | 0.00 | 27 | 1010.0 |
| 20260503191724 | 65 | 2 | 7.0 | 19.0 | 0.00 | 0.00 | 0.00 | 26 | 1011.0 |
| 20260503191706 | 65 | 355 | 8.0 | 19.0 | 0.00 | 0.00 | 0.00 | 26 | 1011.0 |
| 20260503191649 | 65 | 307 | 11.0 | 19.0 | 0.00 | 0.00 | 0.00 | 26 | 1011.0 |
| 20260503191634 | 65 | 30 | 9.0 | 19.0 | 0.00 | 0.00 | 0.00 | 26 | 1011.0 |
| 20260503191626 | 65 | 333 | 8.0 | 19.0 | 0.00 | 0.00 | 0.00 | 26 | 1010.0 |
| 20260503191604 | 65 | 346 | 13.0 | 19.0 | 0.00 | 0.00 | 0.00 | 26 | 1010.0 |
| 20260503191545 | 65 | 28 | 11.0 | 19.0 | 0.00 | 0.00 | 0.00 | 26 | 1010.0 |
| 20260503191529 | 65 | 352 | 12.0 | 19.0 | 0.00 | 0.00 | 0.00 | 26 | 1010.0 |
| 20260503191515 | 65 | 7 | 14.0 | 19.0 | 0.00 | 0.00 | 0.00 | 27 | 1010.0 |
| 20260503191505 | 65 | 7 | 9.0 | 16.0 | 0.00 | 0.00 | 0.00 | 27 | 1010.0 |
| 20260503191452 | 65 | 7 | 9.0 | 16.0 | 0.00 | 0.00 | 0.00 | 27 | 1010.0 |
| 20260503191428 | 65 | 35 | 12.0 | 16.0 | 0.00 | 0.00 | 0.00 | 27 | 1010.0 |
| 20260503191418 | 65 | 33 | 8.0 | 13.0 | 0.00 | 0.00 | 0.00 | 27 | 1010.0 |
| 20260503191410 | 65 | 33 | 8.0 | 13.0 | 0.00 | 0.00 | 0.00 | 26 | 1010.0 |
| 20260503191348 | 65 | 343 | 8.0 | 23.0 | 0.00 | 0.00 | 0.00 | 26 | 1010.0 |
| 20260503191313 | 65 | 316 | 6.0 | 23.0 | 0.00 | 0.00 | 0.00 | 26 | 1010.0 |
| 20260503191258 | 65 | 321 | 10.0 | 23.0 | 0.00 | 0.00 | 0.00 | 26 | 1010.0 |
| 20260503191249 | 65 | 294 | 8.0 | 23.0 | 0.00 | 0.00 | 0.00 | 26 | 1010.0 |
| 20260503191236 | 65 | 279 | 11.0 | 23.0 | 0.00 | 0.00 | 0.00 | 26 | 1010.0 |
| 20260503191226 | 65 | 279 | 11.0 | 23.0 | 0.00 | 0.00 | 0.00 | 26 | 1011.0 |
| 20260503191218 | 65 | 320 | 16.0 | 23.0 | 0.00 | 0.00 | 0.00 | 26 | 1011.0 |
| 20260503191203 | 65 | 270 | 10.0 | 22.0 | 0.00 | 0.00 | 0.00 | 25 | 1011.0 |
| 20260503191154 | 65 | 270 | 10.0 | 22.0 | 0.00 | 0.00 | 0.00 | 25 | 1011.0 |
| 20260503191139 | 65 | 312 | 17.0 | 22.0 | 0.00 | 0.00 | 0.00 | 25 | 1011.0 |
| 20260503191122 | 65 | 344 | 10.0 | 19.0 | 0.00 | 0.00 | 0.00 | 25 | 1011.0 |
| 20260503191105 | 65 | 297 | 9.0 | 19.0 | 0.00 | 0.00 | 0.00 | 25 | 1011.0 |
| 20260503191057 | 65 | 331 | 8.0 | 19.0 | 0.00 | 0.00 | 0.00 | 25 | 1011.0 |
| 20260503191016 | 65 | 312 | 10.0 | 22.0 | 0.00 | 0.00 | 0.00 | 25 | 1011.0 |
| 20260503191003 | 65 | 312 | 10.0 | 26.0 | 0.00 | 0.00 | 0.00 | 25 | 1011.0 |
| 20260503190955 | 65 | 353 | 12.0 | 26.0 | 0.00 | 0.00 | 0.00 | 26 | 1011.0 |
| 20260503190932 | 65 | 345 | 10.0 | 26.0 | 0.00 | 0.00 | 0.00 | 26 | 1011.0 |
| 20260503190907 | 65 | 345 | 11.0 | 26.0 | 0.00 | 0.00 | 0.00 | 26 | 1011.0 |
| 20260503190859 | 65 | 307 | 11.0 | 26.0 | 0.00 | 0.00 | 0.00 | 26 | 1011.0 |
| 20260503190849 | 66 | 307 | 11.0 | 26.0 | 0.00 | 0.00 | 0.00 | 26 | 1011.0 |
| 20260503190834 | 66 | 329 | 20.0 | 26.0 | 0.00 | 0.00 | 0.00 | 26 | 1011.0 |
| 20260503190825 | 66 | 299 | 11.0 | 21.0 | 0.00 | 0.00 | 0.00 | 26 | 1011.0 |
| 20260503190815 | 66 | 293 | 11.0 | 21.0 | 0.00 | 0.00 | 0.00 | 26 | 1011.0 |
| 20260503190738 | 65 | 21 | 13.0 | 21.0 | 0.00 | 0.00 | 0.00 | 27 | 1011.0 |
| 20260503190729 | 65 | 21 | 13.0 | 22.0 | 0.00 | 0.00 | 0.00 | 27 | 1010.0 |
| 20260503190716 | 65 | 313 | 10.0 | 22.0 | 0.00 | 0.00 | 0.00 | 27 | 1010.0 |
| 20260503190707 | 65 | 306 | 11.0 | 22.0 | 0.00 | 0.00 | 0.00 | 27 | 1010.0 |
| 20260503190657 | 65 | 306 | 11.0 | 22.0 | 0.00 | 0.00 | 0.00 | 27 | 1010.0 |
| 20260503190642 | 65 | 336 | 13.0 | 22.0 | 0.00 | 0.00 | 0.00 | 27 | 1010.0 |
| 20260503190634 | 65 | 317 | 11.0 | 22.0 | 0.00 | 0.00 | 0.00 | 27 | 1010.0 |
| 20260503190620 | 65 | 339 | 15.0 | 22.0 | 0.00 | 0.00 | 0.00 | 27 | 1010.0 |
| 20260503190553 | 65 | 325 | 9.0 | 19.0 | 0.00 | 0.00 | 0.00 | 27 | 1010.0 |
| 20260503190539 | 65 | 324 | 11.0 | 19.0 | 0.00 | 0.00 | 0.00 | 26 | 1010.0 |
| 20260503190532 | 65 | 303 | 14.0 | 19.0 | 0.00 | 0.00 | 0.00 | 26 | 1010.0 |
| 20260503190505 | 65 | 331 | 14.0 | 18.0 | 0.00 | 0.00 | 0.00 | 26 | 1010.0 |
| 20260503190451 | 65 | 284 | 13.0 | 22.0 | 0.00 | 0.00 | 0.00 | 26 | 1010.0 |
| 20260503190428 | 66 | 291 | 8.0 | 22.0 | 0.00 | 0.00 | 0.00 | 26 | 1010.0 |
| 20260503190407 | 66 | 312 | 12.0 | 23.0 | 0.00 | 0.00 | 0.00 | 26 | 1010.0 |
| 20260503190349 | 66 | 326 | 12.0 | 23.0 | 0.00 | 0.00 | 0.00 | 26 | 1010.0 |
| 20260503190329 | 66 | 285 | 14.0 | 23.0 | 0.00 | 0.00 | 0.00 | 25 | 1010.0 |
| 20260503190315 | 66 | 307 | 14.0 | 23.0 | 0.00 | 0.00 | 0.00 | 25 | 1010.0 |
| 20260503190249 | 66 | 326 | 9.0 | 23.0 | 0.00 | 0.00 | 0.00 | 25 | 1010.0 |
| 20260503190235 | 66 | 16 | 14.0 | 23.0 | 0.00 | 0.00 | 0.00 | 25 | 1010.0 |
| 20260503190217 | 66 | 286 | 11.0 | 21.0 | 0.00 | 0.00 | 0.00 | 26 | 1011.0 |
| 20260503190201 | 66 | 11 | 15.0 | 21.0 | 0.00 | 0.00 | 0.00 | 26 | 1011.0 |
| 20260503190148 | 66 | 276 | 8.0 | 18.0 | 0.00 | 0.00 | 0.00 | 26 | 1011.0 |
| 20260503190131 | 66 | 6 | 8.0 | 18.0 | 0.00 | 0.00 | 0.00 | 26 | 1011.0 |
| 20260503190106 | 66 | 17 | 13.0 | 18.0 | 0.00 | 0.00 | 0.00 | 26 | 1011.0 |
| 20260503190057 | 66 | 17 | 13.0 | 18.0 | 0.00 | 0.00 | 0.00 | 26 | 1011.0 |
| 20260503190041 | 66 | 242 | 9.0 | 18.0 | 0.00 | 0.00 | 0.00 | 26 | 1011.0 |
| 20260503190027 | 66 | 307 | 13.0 | 18.0 | 0.00 | 0.00 | 0.00 | 26 | 1011.0 |
| 20260503190020 | 66 | 307 | 13.0 | 18.0 | 0.00 | 0.00 | 0.00 | 27 | 1011.0 |
| 20260503185956 | 66 | 300 | 4.0 | 13.0 | 0.00 | 0.00 | 0.00 | 27 | 1011.0 |
| 20260503185931 | 66 | 13 | 9.0 | 13.0 | 0.00 | 0.00 | 0.00 | 27 | 1010.0 |
| 20260503185922 | 66 | 310 | 9.0 | 11.0 | 0.00 | 0.00 | 0.00 | 27 | 1010.0 |
| 20260503185913 | 65 | 310 | 9.0 | 11.0 | 0.00 | 0.00 | 0.00 | 28 | 1010.0 |
| 20260503185857 | 65 | 314 | 8.0 | 11.0 | 0.00 | 0.00 | 0.00 | 28 | 1010.0 |
| 20260503185847 | 65 | 273 | 7.0 | 11.0 | 0.00 | 0.00 | 0.00 | 28 | 1010.0 |
| 20260503185817 | 65 | 314 | 8.0 | 10.0 | 0.00 | 0.00 | 0.00 | 28 | 1010.0 |
| 20260503185803 | 65 | 331 | 6.0 | 16.0 | 0.00 | 0.00 | 0.00 | 27 | 1010.0 |
| 20260503185754 | 65 | 331 | 6.0 | 16.0 | 0.00 | 0.00 | 0.00 | 27 | 1010.0 |
| 20260503185745 | 65 | 329 | 5.0 | 16.0 | 0.00 | 0.00 | 0.00 | 27 | 1010.0 |
| 20260503185721 | 65 | 338 | 4.0 | 19.0 | 0.00 | 0.00 | 0.00 | 27 | 1010.0 |
| 20260503185709 | 65 | 13 | 4.0 | 19.0 | 0.00 | 0.00 | 0.00 | 26 | 1010.0 |
| 20260503185702 | 65 | 17 | 6.0 | 19.0 | 0.00 | 0.00 | 0.00 | 26 | 1010.0 |
| 20260503185634 | 65 | 323 | 10.0 | 19.0 | 0.00 | 0.00 | 0.00 | 26 | 1010.0 |
| 20260503185613 | 65 | 322 | 9.0 | 19.0 | 0.00 | 0.00 | 0.00 | 26 | 1010.0 |
| 20260503185553 | 66 | 324 | 6.0 | 19.0 | 0.00 | 0.00 | 0.00 | 26 | 1010.0 |
| 20260503185541 | 66 | 356 | 13.0 | 19.0 | 0.00 | 0.00 | 0.00 | 26 | 1010.0 |
| 20260503185521 | 66 | 337 | 12.0 | 17.0 | 0.00 | 0.00 | 0.00 | 26 | 1011.0 |
| 20260503185507 | 66 | 1 | 9.0 | 17.0 | 0.00 | 0.00 | 0.00 | 26 | 1011.0 |
| 20260503185436 | 66 | 296 | 6.0 | 17.0 | 0.00 | 0.00 | 0.00 | 26 | 1011.0 |
| 20260503185401 | 66 | 349 | 11.0 | 23.0 | 0.00 | 0.00 | 0.00 | 26 | 1011.0 |
| 20260503185346 | 67 | 13 | 12.0 | 23.0 | 0.00 | 0.00 | 0.00 | 25 | 1011.0 |
| 20260503185337 | 67 | 346 | 11.0 | 23.0 | 0.00 | 0.00 | 0.00 | 25 | 1011.0 |
| 20260503185321 | 67 | 313 | 11.0 | 23.0 | 0.00 | 0.00 | 0.00 | 25 | 1011.0 |
| 20260503185306 | 67 | 317 | 9.0 | 23.0 | 0.00 | 0.00 | 0.00 | 25 | 1011.0 |
| 20260503185257 | 67 | 317 | 9.0 | 23.0 | 0.00 | 0.00 | 0.00 | 25 | 1011.0 |
| 20260503185243 | 67 | 31 | 16.0 | 23.0 | 0.00 | 0.00 | 0.00 | 25 | 1011.0 |
| 20260503185202 | 67 | 357 | 6.0 | 17.0 | 0.00 | 0.00 | 0.00 | 25 | 1011.0 |
| 20260503185153 | 67 | 325 | 8.0 | 17.0 | 0.00 | 0.00 | 0.00 | 25 | 1011.0 |
| 20260503185140 | 67 | 329 | 9.0 | 17.0 | 0.00 | 0.00 | 0.00 | 25 | 1011.0 |
| 20260503185113 | 67 | 249 | 8.0 | 15.0 | 0.00 | 0.00 | 0.00 | 25 | 1011.0 |
| 20260503185058 | 67 | 7 | 11.0 | 15.0 | 0.00 | 0.00 | 0.00 | 25 | 1011.0 |
| 20260503185049 | 67 | 4 | 12.0 | 15.0 | 0.00 | 0.00 | 0.00 | 25 | 1011.0 |
| 20260503185034 | 68 | 16 | 11.0 | 15.0 | 0.00 | 0.00 | 0.00 | 26 | 1011.0 |
| 20260503185025 | 68 | 16 | 11.0 | 17.0 | 0.00 | 0.00 | 0.00 | 26 | 1011.0 |
| 20260503185009 | 68 | 16 | 11.0 | 17.0 | 0.00 | 0.00 | 0.00 | 26 | 1011.0 |
| 20260503184954 | 68 | 40 | 6.0 | 17.0 | 0.00 | 0.00 | 0.00 | 26 | 1011.0 |
| 20260503184945 | 68 | 331 | 5.0 | 17.0 | 0.00 | 0.00 | 0.00 | 26 | 1011.0 |
| 20260503184922 | 67 | 317 | 7.0 | 18.0 | 0.00 | 0.00 | 0.00 | 25 | 1011.0 |
| 20260503184905 | 67 | 349 | 13.0 | 18.0 | 0.00 | 0.00 | 0.00 | 25 | 1011.0 |
| 20260503184851 | 67 | 348 | 10.0 | 19.0 | 0.00 | 0.00 | 0.00 | 25 | 1011.0 |
| 20260503184843 | 67 | 66 | 11.0 | 19.0 | 0.00 | 0.00 | 0.00 | 25 | 1011.0 |
| 20260503184833 | 67 | 66 | 11.0 | 19.0 | 0.00 | 0.00 | 0.00 | 26 | 1011.0 |
| 20260503184820 | 67 | 306 | 7.0 | 19.0 | 0.00 | 0.00 | 0.00 | 26 | 1010.0 |
| 20260503184813 | 67 | 34 | 11.0 | 19.0 | 0.00 | 0.00 | 0.00 | 26 | 1010.0 |
| 20260503184740 | 67 | 24 | 12.0 | 19.0 | 0.00 | 0.00 | 0.00 | 26 | 1010.0 |
| 20260503184732 | 67 | 346 | 9.0 | 19.0 | 0.00 | 0.00 | 0.00 | 26 | 1011.0 |
| 20260503184713 | 67 | 327 | 13.0 | 17.0 | 0.00 | 0.00 | 0.00 | 26 | 1011.0 |
| 20260503184657 | 67 | 292 | 9.0 | 16.0 | 0.00 | 0.00 | 0.00 | 26 | 1011.0 |
| 20260503184643 | 67 | 347 | 2.0 | 16.0 | 0.00 | 0.00 | 0.00 | 26 | 1011.0 |
| 20260503184619 | 67 | 350 | 7.0 | 16.0 | 0.00 | 0.00 | 0.00 | 26 | 1011.0 |
| 20260503184601 | 67 | 301 | 8.0 | 16.0 | 0.00 | 0.00 | 0.00 | 26 | 1011.0 |
| 20260503184546 | 67 | 36 | 12.0 | 16.0 | 0.00 | 0.00 | 0.00 | 26 | 1011.0 |
| 20260503184537 | 67 | 46 | 7.0 | 10.0 | 0.00 | 0.00 | 0.00 | 26 | 1011.0 |
| 20260503184505 | 67 | 295 | 8.0 | 11.0 | 0.00 | 0.00 | 0.00 | 25 | 1011.0 |
| 20260503184441 | 67 | 338 | 6.0 | 14.0 | 0.00 | 0.00 | 0.00 | 25 | 1011.0 |
| 20260503184428 | 67 | 5 | 7.0 | 15.0 | 0.00 | 0.00 | 0.00 | 25 | 1011.0 |
| 20260503184421 | 67 | 345 | 6.0 | 15.0 | 0.00 | 0.00 | 0.00 | 26 | 1011.0 |
| 20260503184401 | 67 | 337 | 8.0 | 15.0 | 0.00 | 0.00 | 0.00 | 26 | 1011.0 |
| 20260503184343 | 67 | 35 | 6.0 | 15.0 | 0.00 | 0.00 | 0.00 | 26 | 1011.0 |
| 20260503184313 | 67 | 5 | 9.0 | 18.0 | 0.00 | 0.00 | 0.00 | 26 | 1011.0 |
| 20260503184300 | 67 | 23 | 11.0 | 18.0 | 0.00 | 0.00 | 0.00 | 26 | 1011.0 |
| 20260503184238 | 67 | 12 | 13.0 | 18.0 | 0.00 | 0.00 | 0.00 | 26 | 1011.0 |
| 20260503184201 | 67 | 3 | 13.0 | 18.0 | 0.00 | 0.00 | 0.00 | 26 | 1011.0 |
| 20260503184139 | 67 | 20 | 11.0 | 16.0 | 0.00 | 0.00 | 0.00 | 26 | 1011.0 |
| 20260503184121 | 67 | 351 | 7.0 | 18.0 | 0.00 | 0.00 | 0.00 | 26 | 1011.0 |
| 20260503184106 | 67 | 30 | 8.0 | 18.0 | 0.00 | 0.00 | 0.00 | 26 | 1011.0 |
| 20260503184057 | 67 | 4 | 11.0 | 18.0 | 0.00 | 0.00 | 0.00 | 26 | 1011.0 |
| 20260503184045 | 67 | 40 | 8.0 | 18.0 | 0.00 | 0.00 | 0.00 | 26 | 1011.0 |
| 20260503184025 | 67 | 15 | 11.0 | 18.0 | 0.00 | 0.00 | 0.00 | 26 | 1011.0 |
| 20260503184011 | 67 | 15 | 12.0 | 18.0 | 0.00 | 0.00 | 0.00 | 26 | 1011.0 |
| 20260503184002 | 67 | 15 | 12.0 | 18.0 | 0.00 | 0.00 | 0.00 | 27 | 1011.0 |
| 20260503183953 | 67 | 98 | 8.0 | 17.0 | 0.00 | 0.00 | 0.00 | 27 | 1011.0 |
| 20260503183938 | 67 | 22 | 11.0 | 17.0 | 0.00 | 0.00 | 0.00 | 27 | 1011.0 |
| 20260503183929 | 67 | 22 | 11.0 | 18.0 | 0.00 | 0.00 | 0.00 | 27 | 1011.0 |
| 20260503183915 | 67 | 337 | 12.0 | 18.0 | 0.00 | 0.00 | 0.00 | 27 | 1011.0 |
| 20260503183906 | 67 | 43 | 9.0 | 18.0 | 0.00 | 0.00 | 0.00 | 27 | 1011.0 |
| 20260503183857 | 66 | 43 | 9.0 | 18.0 | 0.00 | 0.00 | 0.00 | 26 | 1011.0 |
| 20260503183844 | 66 | 13 | 7.0 | 18.0 | 0.00 | 0.00 | 0.00 | 26 | 1011.0 |
| 20260503183819 | 66 | 3 | 7.0 | 18.0 | 0.00 | 0.00 | 0.00 | 26 | 1010.0 |
| 20260503183801 | 66 | 331 | 6.0 | 18.0 | 0.00 | 0.00 | 0.00 | 26 | 1010.0 |
| 20260503183745 | 66 | 334 | 13.0 | 18.0 | 0.00 | 0.00 | 0.00 | 27 | 1010.0 |
| 20260503183730 | 66 | 327 | 14.0 | 18.0 | 0.00 | 0.00 | 0.00 | 27 | 1011.0 |
| 20260503183721 | 66 | 328 | 9.0 | 15.0 | 0.00 | 0.00 | 0.00 | 27 | 1011.0 |
| 20260503183706 | 66 | 359 | 9.0 | 15.0 | 0.00 | 0.00 | 0.00 | 27 | 1011.0 |
| 20260503183657 | 66 | 359 | 9.0 | 15.0 | 0.00 | 0.00 | 0.00 | 27 | 1011.0 |
| 20260503183643 | 66 | 26 | 13.0 | 15.0 | 0.00 | 0.00 | 0.00 | 26 | 1011.0 |
| 20260503183634 | 66 | 42 | 9.0 | 14.0 | 0.00 | 0.00 | 0.00 | 26 | 1011.0 |
| 20260503183625 | 66 | 42 | 9.0 | 17.0 | 0.00 | 0.00 | 0.00 | 26 | 1011.0 |
| 20260503183610 | 66 | 9 | 6.0 | 17.0 | 0.00 | 0.00 | 0.00 | 26 | 1011.0 |
| 20260503183601 | 66 | 316 | 7.0 | 17.0 | 0.00 | 0.00 | 0.00 | 26 | 1011.0 |
| 20260503183537 | 66 | 324 | 10.0 | 17.0 | 0.00 | 0.00 | 0.00 | 26 | 1011.0 |
| 20260503183525 | 66 | 293 | 7.0 | 17.0 | 0.00 | 0.00 | 0.00 | 26 | 1010.0 |
| 20260503183517 | 66 | 337 | 11.0 | 17.0 | 0.00 | 0.00 | 0.00 | 26 | 1010.0 |
| 20260503183449 | 66 | 323 | 11.0 | 25.0 | 0.00 | 0.00 | 0.00 | 26 | 1010.0 |
| 20260503183433 | 66 | 309 | 9.0 | 25.0 | 0.00 | 0.00 | 0.00 | 26 | 1010.0 |
| 20260503183409 | 66 | 316 | 11.0 | 25.0 | 0.00 | 0.00 | 0.00 | 26 | 1010.0 |
| 20260503183354 | 66 | 336 | 14.0 | 25.0 | 0.00 | 0.00 | 0.00 | 26 | 1010.0 |
| 20260503183345 | 66 | 300 | 7.0 | 25.0 | 0.00 | 0.00 | 0.00 | 26 | 1010.0 |
| 20260503183325 | 66 | 1 | 15.0 | 25.0 | 0.00 | 0.00 | 0.00 | 26 | 1011.0 |
| 20260503183249 | 66 | 338 | 11.0 | 17.0 | 0.00 | 0.00 | 0.00 | 26 | 1011.0 |
| 20260503183235 | 66 | 304 | 11.0 | 17.0 | 0.00 | 0.00 | 0.00 | 27 | 1011.0 |
| 20260503183218 | 66 | 325 | 9.0 | 17.0 | 0.00 | 0.00 | 0.00 | 27 | 1010.0 |
| 20260503183202 | 66 | 306 | 6.0 | 16.0 | 0.00 | 0.00 | 0.00 | 27 | 1010.0 |
| 20260503183140 | 66 | 29 | 12.0 | 16.0 | 0.00 | 0.00 | 0.00 | 27 | 1010.0 |
| 20260503183121 | 66 | 12 | 10.0 | 18.0 | 0.00 | 0.00 | 0.00 | 26 | 1011.0 |
| 20260503183108 | 66 | 11 | 9.0 | 18.0 | 0.00 | 0.00 | 0.00 | 26 | 1011.0 |
| 20260503183044 | 66 | 34 | 9.0 | 18.0 | 0.00 | 0.00 | 0.00 | 26 | 1011.0 |
| 20260503183036 | 66 | 311 | 10.0 | 18.0 | 0.00 | 0.00 | 0.00 | 26 | 1011.0 |
| 20260503183001 | 66 | 13 | 9.0 | 18.0 | 0.00 | 0.00 | 0.00 | 26 | 1011.0 |
| 20260503182949 | 66 | 355 | 12.0 | 18.0 | 0.00 | 0.00 | 0.00 | 26 | 1011.0 |
| 20260503182942 | 66 | 17 | 7.0 | 13.0 | 0.00 | 0.00 | 0.00 | 26 | 1011.0 |
| 20260503182913 | 66 | 19 | 11.0 | 15.0 | 0.00 | 0.00 | 0.00 | 26 | 1011.0 |
| 20260503182858 | 66 | 5 | 8.0 | 15.0 | 0.00 | 0.00 | 0.00 | 26 | 1011.0 |
| 20260503182849 | 66 | 348 | 9.0 | 15.0 | 0.00 | 0.00 | 0.00 | 26 | 1011.0 |
| 20260503182836 | 66 | 287 | 9.0 | 15.0 | 0.00 | 0.00 | 0.00 | 26 | 1011.0 |
| 20260503182830 | 66 | 287 | 9.0 | 17.0 | 0.00 | 0.00 | 0.00 | 26 | 1010.0 |
| 20260503182753 | 65 | 311 | 9.0 | 17.0 | 0.00 | 0.00 | 0.00 | 26 | 1010.0 |
| 20260503182738 | 65 | 350 | 10.0 | 17.0 | 0.00 | 0.00 | 0.00 | 26 | 1010.0 |
| 20260503182729 | 65 | 17 | 7.0 | 17.0 | 0.00 | 0.00 | 0.00 | 26 | 1011.0 |
| 20260503182711 | 65 | 14 | 13.0 | 17.0 | 0.00 | 0.00 | 0.00 | 26 | 1011.0 |
| 20260503182635 | 65 | 8 | 10.0 | 14.0 | 0.00 | 0.00 | 0.00 | 26 | 1011.0 |
| 20260503182627 | 65 | 28 | 7.0 | 14.0 | 0.00 | 0.00 | 0.00 | 26 | 1010.0 |
| 20260503182601 | 66 | 35 | 7.0 | 14.0 | 0.00 | 0.00 | 0.00 | 25 | 1010.0 |
| 20260503182539 | 66 | 28 | 8.0 | 14.0 | 0.00 | 0.00 | 0.00 | 25 | 1010.0 |
| 20260503182531 | 66 | 288 | 10.0 | 16.0 | 0.00 | 0.00 | 0.00 | 25 | 1010.0 |
| 20260503182506 | 66 | 324 | 5.0 | 16.0 | 0.00 | 0.00 | 0.00 | 25 | 1010.0 |
| 20260503182457 | 66 | 1 | 4.0 | 16.0 | 0.00 | 0.00 | 0.00 | 25 | 1010.0 |
| 20260503182434 | 66 | 335 | 12.0 | 16.0 | 0.00 | 0.00 | 0.00 | 25 | 1010.0 |
| 20260503182425 | 66 | 25 | 7.0 | 17.0 | 0.00 | 0.00 | 0.00 | 25 | 1011.0 |
| 20260503182401 | 66 | 0 | 6.0 | 17.0 | 0.00 | 0.00 | 0.00 | 25 | 1011.0 |
| 20260503182351 | 66 | 340 | 8.0 | 17.0 | 0.00 | 0.00 | 0.00 | 25 | 1011.0 |
| 20260503182321 | 66 | 290 | 12.0 | 17.0 | 0.00 | 0.00 | 0.00 | 25 | 1011.0 |
| 20260503182312 | 66 | 333 | 11.0 | 17.0 | 0.00 | 0.00 | 0.00 | 25 | 1011.0 |
| 20260503182246 | 66 | 320 | 11.0 | 17.0 | 0.00 | 0.00 | 0.00 | 26 | 1011.0 |
| 20260503182217 | 66 | 6 | 13.0 | 17.0 | 0.00 | 0.00 | 0.00 | 26 | 1011.0 |
| 20260503182203 | 66 | 294 | 10.0 | 15.0 | 0.00 | 0.00 | 0.00 | 26 | 1011.0 |
| 20260503182154 | 66 | 294 | 10.0 | 15.0 | 0.00 | 0.00 | 0.00 | 27 | 1011.0 |
| 20260503182145 | 66 | 18 | 9.0 | 14.0 | 0.00 | 0.00 | 0.00 | 27 | 1011.0 |
| 20260503182131 | 66 | 269 | 6.0 | 17.0 | 0.00 | 0.00 | 0.00 | 27 | 1011.0 |
| 20260503182108 | 66 | 12 | 7.0 | 17.0 | 0.00 | 0.00 | 0.00 | 27 | 1011.0 |
| 20260503182049 | 66 | 41 | 7.0 | 17.0 | 0.00 | 0.00 | 0.00 | 25 | 1011.0 |
| 20260503182036 | 66 | 37 | 8.0 | 17.0 | 0.00 | 0.00 | 0.00 | 25 | 1011.0 |
| 20260503182028 | 66 | 37 | 8.0 | 17.0 | 0.00 | 0.00 | 0.00 | 25 | 1010.0 |
| 20260503182009 | 66 | 67 | 8.0 | 17.0 | 0.00 | 0.00 | 0.00 | 25 | 1010.0 |
| 20260503181955 | 66 | 353 | 14.0 | 17.0 | 0.00 | 0.00 | 0.00 | 25 | 1010.0 |
| 20260503181948 | 66 | 32 | 9.0 | 15.0 | 0.00 | 0.00 | 0.00 | 26 | 1010.0 |
| 20260503181922 | 66 | 26 | 10.0 | 17.0 | 0.00 | 0.00 | 0.00 | 26 | 1010.0 |
| 20260503181913 | 66 | 26 | 10.0 | 17.0 | 0.00 | 0.00 | 0.00 | 26 | 1010.0 |
| 20260503181850 | 66 | 31 | 8.0 | 22.0 | 0.00 | 0.00 | 0.00 | 26 | 1010.0 |
| 20260503181840 | 66 | 16 | 9.0 | 22.0 | 0.00 | 0.00 | 0.00 | 26 | 1010.0 |
| 20260503181817 | 66 | 33 | 6.0 | 22.0 | 0.00 | 0.00 | 0.00 | 26 | 1010.0 |
| 20260503181804 | 66 | 11 | 11.0 | 22.0 | 0.00 | 0.00 | 0.00 | 26 | 1010.0 |
| 20260503181756 | 66 | 16 | 13.0 | 22.0 | 0.00 | 0.00 | 0.00 | 26 | 1010.0 |
| 20260503181737 | 66 | 23 | 10.0 | 22.0 | 0.00 | 0.00 | 0.00 | 26 | 1010.0 |
| 20260503181721 | 66 | 39 | 11.0 | 18.0 | 0.00 | 0.00 | 0.00 | 26 | 1010.0 |
| 20260503181706 | 66 | 42 | 11.0 | 18.0 | 0.00 | 0.00 | 0.00 | 26 | 1010.0 |
| 20260503181657 | 66 | 42 | 11.0 | 18.0 | 0.00 | 0.00 | 0.00 | 26 | 1010.0 |
| 20260503181644 | 66 | 32 | 10.0 | 18.0 | 0.00 | 0.00 | 0.00 | 26 | 1010.0 |
| 20260503181617 | 66 | 25 | 8.0 | 18.0 | 0.00 | 0.00 | 0.00 | 25 | 1011.0 |
| 20260503181602 | 66 | 3 | 8.0 | 18.0 | 0.00 | 0.00 | 0.00 | 25 | 1011.0 |
| 20260503181553 | 66 | 28 | 13.0 | 18.0 | 0.00 | 0.00 | 0.00 | 25 | 1011.0 |
| 20260503181529 | 66 | 17 | 11.0 | 17.0 | 0.00 | 0.00 | 0.00 | 25 | 1011.0 |
| 20260503181513 | 66 | 37 | 8.0 | 17.0 | 0.00 | 0.00 | 0.00 | 25 | 1011.0 |
| 20260503181500 | 66 | 313 | 9.0 | 17.0 | 0.00 | 0.00 | 0.00 | 25 | 1011.0 |
| 20260503181453 | 66 | 343 | 9.0 | 14.0 | 0.00 | 0.00 | 0.00 | 25 | 1011.0 |
| 20260503181425 | 66 | 343 | 8.0 | 14.0 | 0.00 | 0.00 | 0.00 | 25 | 1011.0 |
| 20260503181409 | 66 | 31 | 7.0 | 14.0 | 0.00 | 0.00 | 0.00 | 25 | 1011.0 |
| 20260503181402 | 66 | 2 | 7.0 | 17.0 | 0.00 | 0.00 | 0.00 | 25 | 1011.0 |
| 20260503181322 | 66 | 2 | 9.0 | 17.0 | 0.00 | 0.00 | 0.00 | 25 | 1011.0 |
| 20260503181313 | 66 | 324 | 6.0 | 17.0 | 0.00 | 0.00 | 0.00 | 25 | 1011.0 |
| 20260503181252 | 66 | 1 | 7.0 | 17.0 | 0.00 | 0.00 | 0.00 | 25 | 1011.0 |
| 20260503181233 | 66 | 3 | 12.0 | 17.0 | 0.00 | 0.00 | 0.00 | 25 | 1011.0 |
| 20260503181211 | 66 | 49 | 10.0 | 17.0 | 0.00 | 0.00 | 0.00 | 25 | 1011.0 |
| 20260503181137 | 66 | 2 | 9.0 | 17.0 | 0.00 | 0.00 | 0.00 | 25 | 1011.0 |
| 20260503181123 | 66 | 357 | 12.0 | 17.0 | 0.00 | 0.00 | 0.00 | 25 | 1010.0 |
| 20260503181116 | 66 | 15 | 11.0 | 17.0 | 0.00 | 0.00 | 0.00 | 25 | 1010.0 |
| 20260503181049 | 66 | 348 | 13.0 | 17.0 | 0.00 | 0.00 | 0.00 | 25 | 1010.0 |
| 20260503181041 | 66 | 2 | 10.0 | 13.0 | 0.00 | 0.00 | 0.00 | 25 | 1010.0 |
| 20260503181017 | 66 | 358 | 8.0 | 13.0 | 0.00 | 0.00 | 0.00 | 25 | 1010.0 |
| 20260503181001 | 66 | 112 | 6.0 | 13.0 | 0.00 | 0.00 | 0.00 | 25 | 1010.0 |
| 20260503180945 | 66 | 41 | 8.0 | 13.0 | 0.00 | 0.00 | 0.00 | 25 | 1010.0 |
| 20260503180937 | 66 | 353 | 7.0 | 13.0 | 0.00 | 0.00 | 0.00 | 25 | 1010.0 |
| 20260503180913 | 66 | 318 | 8.0 | 15.0 | 0.00 | 0.00 | 0.00 | 25 | 1011.0 |
| 20260503180901 | 66 | 22 | 7.0 | 15.0 | 0.00 | 0.00 | 0.00 | 24 | 1011.0 |
| 20260503180853 | 66 | 336 | 7.0 | 15.0 | 0.00 | 0.00 | 0.00 | 24 | 1011.0 |
| 20260503180834 | 66 | 20 | 6.0 | 15.0 | 0.00 | 0.00 | 0.00 | 24 | 1011.0 |
| 20260503180825 | 66 | 20 | 6.0 | 17.0 | 0.00 | 0.00 | 0.00 | 24 | 1011.0 |
| 20260503180812 | 66 | 22 | 10.0 | 17.0 | 0.00 | 0.00 | 0.00 | 24 | 1011.0 |
| 20260503180748 | 66 | 336 | 8.0 | 18.0 | 0.00 | 0.00 | 0.00 | 24 | 1011.0 |
| 20260503180729 | 66 | 334 | 11.0 | 18.0 | 0.00 | 0.00 | 0.00 | 24 | 1011.0 |
| 20260503180713 | 66 | 308 | 12.0 | 18.0 | 0.00 | 0.00 | 0.00 | 24 | 1011.0 |
| 20260503180705 | 66 | 19 | 13.0 | 18.0 | 0.00 | 0.00 | 0.00 | 24 | 1011.0 |
| 20260503180641 | 66 | 15 | 11.0 | 18.0 | 0.00 | 0.00 | 0.00 | 25 | 1011.0 |
| 20260503180625 | 66 | 1 | 11.0 | 18.0 | 0.00 | 0.00 | 0.00 | 25 | 1011.0 |
| 20260503180611 | 66 | 33 | 10.0 | 17.0 | 0.00 | 0.00 | 0.00 | 25 | 1011.0 |
| 20260503180603 | 66 | 34 | 8.0 | 17.0 | 0.00 | 0.00 | 0.00 | 25 | 1011.0 |
| 20260503180538 | 66 | 3 | 11.0 | 17.0 | 0.00 | 0.00 | 0.00 | 24 | 1011.0 |
| 20260503180529 | 66 | 7 | 12.0 | 17.0 | 0.00 | 0.00 | 0.00 | 24 | 1011.0 |
| 20260503180505 | 66 | 35 | 8.0 | 15.0 | 0.00 | 0.00 | 0.00 | 24 | 1011.0 |
| 20260503180434 | 66 | 13 | 8.0 | 21.0 | 0.00 | 0.00 | 0.00 | 24 | 1011.0 |
| 20260503180425 | 66 | 9 | 9.0 | 21.0 | 0.00 | 0.00 | 0.00 | 24 | 1011.0 |
| 20260503180401 | 66 | 28 | 8.0 | 21.0 | 0.00 | 0.00 | 0.00 | 24 | 1011.0 |
| 20260503180345 | 66 | 334 | 10.0 | 21.0 | 0.00 | 0.00 | 0.00 | 24 | 1011.0 |
| 20260503180321 | 66 | 333 | 12.0 | 21.0 | 0.00 | 0.00 | 0.00 | 24 | 1010.0 |
| 20260503180306 | 66 | 5 | 10.0 | 16.0 | 0.00 | 0.00 | 0.00 | 24 | 1010.0 |
| 20260503180257 | 66 | 336 | 13.0 | 16.0 | 0.00 | 0.00 | 0.00 | 24 | 1010.0 |
| 20260503180241 | 66 | 357 | 11.0 | 14.0 | 0.00 | 0.00 | 0.00 | 25 | 1010.0 |
| 20260503180217 | 66 | 302 | 10.0 | 14.0 | 0.00 | 0.00 | 0.00 | 25 | 1011.0 |
| 20260503180203 | 66 | 34 | 9.0 | 16.0 | 0.00 | 0.00 | 0.00 | 25 | 1011.0 |
| 20260503180146 | 66 | 37 | 10.0 | 16.0 | 0.00 | 0.00 | 0.00 | 25 | 1011.0 |
| 20260503180130 | 66 | 11 | 8.0 | 16.0 | 0.00 | 0.00 | 0.00 | 26 | 1011.0 |
| 20260503180121 | 66 | 4 | 8.0 | 16.0 | 0.00 | 0.00 | 0.00 | 26 | 1011.0 |
| 20260503180109 | 66 | 313 | 8.0 | 16.0 | 0.00 | 0.00 | 0.00 | 26 | 1011.0 |
| 20260503180049 | 66 | 343 | 8.0 | 17.0 | 0.00 | 0.00 | 0.00 | 26 | 1011.0 |
| 20260503180025 | 66 | 4 | 12.0 | 17.0 | 0.00 | 0.00 | 0.00 | 25 | 1011.0 |
| 20260503180011 | 66 | 59 | 12.0 | 17.0 | 0.00 | 0.00 | 0.00 | 25 | 1011.0 |
| 20260503180004 | 66 | 292 | 10.0 | 17.0 | 0.00 | 0.00 | 0.00 | 25 | 1011.0 |
| 20260503175953 | 66 | 292 | 10.0 | 17.0 | 0.00 | 0.00 | 0.00 | 25 | 1011.0 |
| 20260503175939 | 66 | 321 | 12.0 | 17.0 | 0.00 | 0.00 | 0.00 | 25 | 1011.0 |
| 20260503175915 | 67 | 339 | 12.0 | 17.0 | 0.00 | 0.00 | 0.00 | 25 | 1011.0 |
| 20260503175907 | 67 | 328 | 6.0 | 16.0 | 0.00 | 0.00 | 0.00 | 25 | 1011.0 |
| 20260503175857 | 67 | 328 | 6.0 | 16.0 | 0.00 | 0.00 | 0.00 | 25 | 1011.0 |
| 20260503175844 | 67 | 242 | 8.0 | 16.0 | 0.00 | 0.00 | 0.00 | 25 | 1011.0 |
| 20260503175810 | 67 | 309 | 11.0 | 16.0 | 0.00 | 0.00 | 0.00 | 26 | 1010.0 |
| 20260503175801 | 67 | 308 | 11.0 | 16.0 | 0.00 | 0.00 | 0.00 | 26 | 1010.0 |
| 20260503175745 | 67 | 318 | 5.0 | 16.0 | 0.00 | 0.00 | 0.00 | 26 | 1010.0 |
| 20260503175730 | 67 | 296 | 8.0 | 16.0 | 0.00 | 0.00 | 0.00 | 26 | 1011.0 |
| 20260503175721 | 67 | 296 | 8.0 | 16.0 | 0.00 | 0.00 | 0.00 | 25 | 1011.0 |
| 20260503175706 | 67 | 318 | 10.0 | 16.0 | 0.00 | 0.00 | 0.00 | 25 | 1011.0 |
| 20260503175657 | 67 | 264 | 8.0 | 19.0 | 0.00 | 0.00 | 0.00 | 25 | 1011.0 |
| 20260503175634 | 67 | 340 | 7.0 | 19.0 | 0.00 | 0.00 | 0.00 | 25 | 1011.0 |
| 20260503175621 | 67 | 73 | 10.0 | 19.0 | 0.00 | 0.00 | 0.00 | 27 | 1011.0 |
| 20260503175601 | 67 | 21 | 8.0 | 19.0 | 0.00 | 0.00 | 0.00 | 27 | 1011.0 |
| 20260503175546 | 67 | 3 | 8.0 | 19.0 | 0.00 | 0.00 | 0.00 | 27 | 1011.0 |
| 20260503175537 | 67 | 7 | 15.0 | 19.0 | 0.00 | 0.00 | 0.00 | 27 | 1011.0 |
| 20260503175521 | 67 | 34 | 8.0 | 15.0 | 0.00 | 0.00 | 0.00 | 27 | 1011.0 |
| 20260503175506 | 67 | 22 | 7.0 | 15.0 | 0.00 | 0.00 | 0.00 | 25 | 1011.0 |
| 20260503175457 | 67 | 22 | 7.0 | 21.0 | 0.00 | 0.00 | 0.00 | 25 | 1011.0 |
| 20260503175436 | 67 | 354 | 8.0 | 21.0 | 0.00 | 0.00 | 0.00 | 25 | 1011.0 |
| 20260503175401 | 67 | 291 | 9.0 | 21.0 | 0.00 | 0.00 | 0.00 | 26 | 1011.0 |
| 20260503175347 | 67 | 352 | 12.0 | 21.0 | 0.00 | 0.00 | 0.00 | 26 | 1011.0 |
| 20260503175329 | 67 | 15 | 11.0 | 21.0 | 0.00 | 0.00 | 0.00 | 26 | 1011.0 |
| 20260503175316 | 67 | 263 | 11.0 | 21.0 | 0.00 | 0.00 | 0.00 | 26 | 1011.0 |
| 20260503175309 | 67 | 12 | 9.0 | 18.0 | 0.00 | 0.00 | 0.00 | 26 | 1011.0 |
| 20260503175249 | 67 | 325 | 6.0 | 15.0 | 0.00 | 0.00 | 0.00 | 26 | 1011.0 |
| 20260503175230 | 67 | 21 | 7.0 | 15.0 | 0.00 | 0.00 | 0.00 | 26 | 1011.0 |
| 20260503175210 | 67 | 28 | 8.0 | 15.0 | 0.00 | 0.00 | 0.00 | 26 | 1011.0 |
| 20260503175201 | 67 | 20 | 8.0 | 15.0 | 0.00 | 0.00 | 0.00 | 26 | 1011.0 |
| 20260503175137 | 67 | 10 | 11.0 | 15.0 | 0.00 | 0.00 | 0.00 | 26 | 1011.0 |
| 20260503175109 | 67 | 2 | 11.0 | 19.0 | 0.00 | 0.00 | 0.00 | 26 | 1011.0 |
| 20260503175025 | 67 | 53 | 8.0 | 19.0 | 0.00 | 0.00 | 0.00 | 26 | 1011.0 |
| 20260503175009 | 67 | 343 | 11.0 | 19.0 | 0.00 | 0.00 | 0.00 | 26 | 1011.0 |
| 20260503174955 | 67 | 32 | 11.0 | 19.0 | 0.00 | 0.00 | 0.00 | 26 | 1011.0 |
| 20260503174947 | 67 | 22 | 12.0 | 19.0 | 0.00 | 0.00 | 0.00 | 26 | 1011.0 |
| 20260503174924 | 67 | 27 | 9.0 | 17.0 | 0.00 | 0.00 | 0.00 | 26 | 1011.0 |
| 20260503174917 | 67 | 9 | 11.0 | 17.0 | 0.00 | 0.00 | 0.00 | 26 | 1011.0 |
| 20260503174857 | 67 | 33 | 7.0 | 15.0 | 0.00 | 0.00 | 0.00 | 26 | 1011.0 |
| 20260503174838 | 67 | 16 | 7.0 | 15.0 | 0.00 | 0.00 | 0.00 | 25 | 1011.0 |
| 20260503174801 | 67 | 27 | 10.0 | 15.0 | 0.00 | 0.00 | 0.00 | 25 | 1011.0 |
| 20260503174746 | 67 | 29 | 9.0 | 14.0 | 0.00 | 0.00 | 0.00 | 25 | 1011.0 |
| 20260503174737 | 67 | 357 | 7.0 | 14.0 | 0.00 | 0.00 | 0.00 | 25 | 1011.0 |
| 20260503174724 | 67 | 352 | 8.0 | 17.0 | 0.00 | 0.00 | 0.00 | 25 | 1011.0 |
| 20260503174700 | 67 | 50 | 9.0 | 17.0 | 0.00 | 0.00 | 0.00 | 25 | 1011.0 |
| 20260503174652 | 67 | 49 | 6.0 | 17.0 | 0.00 | 0.00 | 0.00 | 25 | 1011.0 |
| 20260503174633 | 67 | 334 | 6.0 | 17.0 | 0.00 | 0.00 | 0.00 | 26 | 1011.0 |
| 20260503174609 | 67 | 342 | 10.0 | 21.0 | 0.00 | 0.00 | 0.00 | 26 | 1011.0 |
| 20260503174553 | 67 | 25 | 12.0 | 21.0 | 0.00 | 0.00 | 0.00 | 26 | 1011.0 |
| 20260503174529 | 67 | 80 | 9.0 | 21.0 | 0.00 | 0.00 | 0.00 | 25 | 1011.0 |
| 20260503174514 | 67 | 303 | 6.0 | 21.0 | 0.00 | 0.00 | 0.00 | 25 | 1011.0 |
| 20260503174505 | 67 | 17 | 12.0 | 21.0 | 0.00 | 0.00 | 0.00 | 25 | 1011.0 |
| 20260503174449 | 67 | 29 | 13.0 | 21.0 | 0.00 | 0.00 | 0.00 | 25 | 1011.0 |
| 20260503174437 | 68 | 323 | 9.0 | 13.0 | 0.00 | 0.00 | 0.00 | 26 | 1011.0 |
| 20260503174429 | 68 | 323 | 9.0 | 14.0 | 0.00 | 0.00 | 0.00 | 26 | 1011.0 |
| 20260503174410 | 68 | 300 | 7.0 | 14.0 | 0.00 | 0.00 | 0.00 | 26 | 1011.0 |
| 20260503174401 | 68 | 267 | 8.0 | 16.0 | 0.00 | 0.00 | 0.00 | 26 | 1011.0 |
| 20260503174337 | 68 | 339 | 4.0 | 16.0 | 0.00 | 0.00 | 0.00 | 26 | 1011.0 |
| 20260503174324 | 68 | 334 | 4.0 | 18.0 | 0.00 | 0.00 | 0.00 | 26 | 1011.0 |
| 20260503174316 | 68 | 331 | 7.0 | 18.0 | 0.00 | 0.00 | 0.00 | 26 | 1011.0 |
| 20260503174257 | 68 | 341 | 9.0 | 18.0 | 0.00 | 0.00 | 0.00 | 26 | 1011.0 |
| 20260503174241 | 68 | 9 | 11.0 | 18.0 | 0.00 | 0.00 | 0.00 | 26 | 1011.0 |
| 20260503174217 | 68 | 289 | 7.0 | 18.0 | 0.00 | 0.00 | 0.00 | 26 | 1010.0 |
| 20260503174203 | 68 | 231 | 11.0 | 18.0 | 0.00 | 0.00 | 0.00 | 26 | 1010.0 |
| 20260503174139 | 68 | 352 | 14.0 | 17.0 | 0.00 | 0.00 | 0.00 | 26 | 1010.0 |
| 20260503174130 | 68 | 12 | 12.0 | 17.0 | 0.00 | 0.00 | 0.00 | 26 | 1011.0 |
| 20260503174121 | 68 | 12 | 12.0 | 17.0 | 0.00 | 0.00 | 0.00 | 27 | 1011.0 |
| 20260503174107 | 68 | 31 | 9.0 | 16.0 | 0.00 | 0.00 | 0.00 | 27 | 1011.0 |
| 20260503174100 | 68 | 16 | 10.0 | 16.0 | 0.00 | 0.00 | 0.00 | 27 | 1011.0 |
| 20260503174034 | 68 | 36 | 10.0 | 16.0 | 0.00 | 0.00 | 0.00 | 27 | 1011.0 |
| 20260503174025 | 68 | 25 | 4.0 | 9.0 | 0.00 | 0.00 | 0.00 | 27 | 1010.0 |
| 20260503174001 | 68 | 345 | 4.0 | 9.0 | 0.00 | 0.00 | 0.00 | 27 | 1010.0 |
| 20260503173947 | 68 | 341 | 7.0 | 9.0 | 0.00 | 0.00 | 0.00 | 27 | 1010.0 |
| 20260503173940 | 68 | 68 | 6.0 | 8.0 | 0.00 | 0.00 | 0.00 | 27 | 1010.0 |
| 20260503173914 | 67 | 32 | 3.0 | 10.0 | 0.00 | 0.00 | 0.00 | 27 | 1011.0 |
| 20260503173905 | 67 | 352 | 4.0 | 10.0 | 0.00 | 0.00 | 0.00 | 27 | 1011.0 |
| 20260503173842 | 67 | 24 | 5.0 | 13.0 | 0.00 | 0.00 | 0.00 | 27 | 1011.0 |
| 20260503173833 | 67 | 30 | 6.0 | 13.0 | 0.00 | 0.00 | 0.00 | 27 | 1011.0 |
| 20260503173819 | 67 | 359 | 5.0 | 13.0 | 0.00 | 0.00 | 0.00 | 27 | 1011.0 |
| 20260503173800 | 67 | 15 | 6.0 | 13.0 | 0.00 | 0.00 | 0.00 | 27 | 1011.0 |
| 20260503173732 | 67 | 334 | 4.0 | 10.0 | 0.00 | 0.00 | 0.00 | 27 | 1010.0 |
| 20260503173706 | 67 | 17 | 7.0 | 10.0 | 0.00 | 0.00 | 0.00 | 27 | 1010.0 |
| 20260503173657 | 67 | 17 | 7.0 | 11.0 | 0.00 | 0.00 | 0.00 | 27 | 1010.0 |
| 20260503173642 | 67 | 341 | 5.0 | 11.0 | 0.00 | 0.00 | 0.00 | 27 | 1010.0 |
| 20260503173633 | 67 | 258 | 8.0 | 11.0 | 0.00 | 0.00 | 0.00 | 27 | 1010.0 |
| 20260503173610 | 67 | 17 | 7.0 | 15.0 | 0.00 | 0.00 | 0.00 | 27 | 1010.0 |
| 20260503173601 | 67 | 3 | 6.0 | 15.0 | 0.00 | 0.00 | 0.00 | 27 | 1010.0 |
| 20260503173547 | 67 | 35 | 4.0 | 15.0 | 0.00 | 0.00 | 0.00 | 27 | 1010.0 |
| 20260503173524 | 67 | 30 | 7.0 | 15.0 | 0.00 | 0.00 | 0.00 | 27 | 1011.0 |
| 20260503173505 | 67 | 42 | 11.0 | 15.0 | 0.00 | 0.00 | 0.00 | 27 | 1011.0 |
| 20260503173450 | 67 | 26 | 6.0 | 13.0 | 0.00 | 0.00 | 0.00 | 27 | 1011.0 |
| 20260503173441 | 67 | 309 | 5.0 | 13.0 | 0.00 | 0.00 | 0.00 | 27 | 1011.0 |
| 20260503173431 | 67 | 351 | 8.0 | 18.0 | 0.00 | 0.00 | 0.00 | 27 | 1011.0 |
| 20260503173412 | 67 | 16 | 8.0 | 18.0 | 0.00 | 0.00 | 0.00 | 27 | 1011.0 |
| 20260503173353 | 66 | 44 | 10.0 | 18.0 | 0.00 | 0.00 | 0.00 | 27 | 1011.0 |
| 20260503173338 | 66 | 19 | 5.0 | 18.0 | 0.00 | 0.00 | 0.00 | 27 | 1011.0 |
| 20260503173329 | 66 | 19 | 5.0 | 18.0 | 0.00 | 0.00 | 0.00 | 27 | 1010.0 |
| 20260503173313 | 66 | 349 | 6.0 | 18.0 | 0.00 | 0.00 | 0.00 | 27 | 1010.0 |
| 20260503173249 | 66 | 26 | 13.0 | 18.0 | 0.00 | 0.00 | 0.00 | 27 | 1010.0 |
| 20260503173234 | 66 | 20 | 6.0 | 15.0 | 0.00 | 0.00 | 0.00 | 27 | 1010.0 |
| 20260503173225 | 66 | 317 | 6.0 | 15.0 | 0.00 | 0.00 | 0.00 | 27 | 1010.0 |
| 20260503173209 | 66 | 293 | 6.0 | 15.0 | 0.00 | 0.00 | 0.00 | 27 | 1010.0 |
| 20260503173149 | 66 | 27 | 9.0 | 15.0 | 0.00 | 0.00 | 0.00 | 27 | 1010.0 |
| 20260503173130 | 66 | 47 | 7.0 | 16.0 | 0.00 | 0.00 | 0.00 | 27 | 1011.0 |
| 20260503173121 | 66 | 330 | 7.0 | 16.0 | 0.00 | 0.00 | 0.00 | 27 | 1011.0 |
| 20260503173105 | 66 | 18 | 10.0 | 16.0 | 0.00 | 0.00 | 0.00 | 27 | 1011.0 |
| 20260503173058 | 66 | 18 | 10.0 | 16.0 | 0.00 | 0.00 | 0.00 | 27 | 1011.0 |
| 20260503173044 | 66 | 309 | 8.0 | 16.0 | 0.00 | 0.00 | 0.00 | 28 | 1011.0 |
| 20260503173036 | 66 | 330 | 6.0 | 16.0 | 0.00 | 0.00 | 0.00 | 28 | 1011.0 |
| 20260503173017 | 66 | 328 | 9.0 | 16.0 | 0.00 | 0.00 | 0.00 | 28 | 1011.0 |
| 20260503173001 | 66 | 340 | 12.0 | 16.0 | 0.00 | 0.00 | 0.00 | 28 | 1011.0 |
| 20260503172947 | 66 | 6 | 9.0 | 14.0 | 0.00 | 0.00 | 0.00 | 28 | 1011.0 |
| 20260503172938 | 66 | 6 | 9.0 | 14.0 | 0.00 | 0.00 | 0.00 | 27 | 1011.0 |
| 20260503172929 | 66 | 31 | 5.0 | 11.0 | 0.00 | 0.00 | 0.00 | 27 | 1010.0 |
| 20260503172913 | 66 | 356 | 8.0 | 11.0 | 0.00 | 0.00 | 0.00 | 27 | 1010.0 |
| 20260503172900 | 66 | 0 | 6.0 | 11.0 | 0.00 | 0.00 | 0.00 | 27 | 1010.0 |
| 20260503172852 | 66 | 0 | 6.0 | 11.0 | 0.00 | 0.00 | 0.00 | 27 | 1010.0 |
| 20260503172833 | 66 | 309 | 4.0 | 11.0 | 0.00 | 0.00 | 0.00 | 27 | 1010.0 |
| 20260503172809 | 66 | 276 | 8.0 | 14.0 | 0.00 | 0.00 | 0.00 | 27 | 1010.0 |
| 20260503172753 | 66 | 276 | 8.0 | 17.0 | 0.00 | 0.00 | 0.00 | 27 | 1010.0 |
| 20260503172738 | 66 | 299 | 8.0 | 17.0 | 0.00 | 0.00 | 0.00 | 27 | 1010.0 |
| 20260503172729 | 66 | 343 | 8.0 | 17.0 | 0.00 | 0.00 | 0.00 | 26 | 1011.0 |
| 20260503172705 | 66 | 355 | 8.0 | 17.0 | 0.00 | 0.00 | 0.00 | 26 | 1011.0 |
| 20260503172649 | 66 | 335 | 10.0 | 17.0 | 0.00 | 0.00 | 0.00 | 26 | 1011.0 |
| 20260503172635 | 66 | 359 | 10.0 | 17.0 | 0.00 | 0.00 | 0.00 | 26 | 1011.0 |
| 20260503172628 | 66 | 37 | 13.0 | 17.0 | 0.00 | 0.00 | 0.00 | 27 | 1011.0 |
| 20260503172603 | 66 | 350 | 6.0 | 13.0 | 0.00 | 0.00 | 0.00 | 27 | 1011.0 |
| 20260503172539 | 66 | 320 | 9.0 | 13.0 | 0.00 | 0.00 | 0.00 | 27 | 1011.0 |
| 20260503172530 | 66 | 320 | 9.0 | 14.0 | 0.00 | 0.00 | 0.00 | 27 | 1011.0 |
| 20260503172520 | 66 | 61 | 8.0 | 14.0 | 0.00 | 0.00 | 0.00 | 27 | 1011.0 |
| 20260503172506 | 66 | 341 | 9.0 | 14.0 | 0.00 | 0.00 | 0.00 | 27 | 1011.0 |
| 20260503172457 | 66 | 341 | 9.0 | 15.0 | 0.00 | 0.00 | 0.00 | 27 | 1011.0 |
| 20260503172443 | 66 | 12 | 8.0 | 15.0 | 0.00 | 0.00 | 0.00 | 27 | 1011.0 |
| 20260503172425 | 66 | 331 | 4.0 | 15.0 | 0.00 | 0.00 | 0.00 | 27 | 1011.0 |
| 20260503172409 | 66 | 322 | 7.0 | 15.0 | 0.00 | 0.00 | 0.00 | 27 | 1011.0 |
| 20260503172400 | 66 | 342 | 10.0 | 15.0 | 0.00 | 0.00 | 0.00 | 27 | 1011.0 |
| 20260503172341 | 66 | 1 | 7.0 | 15.0 | 0.00 | 0.00 | 0.00 | 27 | 1011.0 |
| 20260503172323 | 66 | 342 | 8.0 | 16.0 | 0.00 | 0.00 | 0.00 | 27 | 1010.0 |
| 20260503172256 | 66 | 333 | 10.0 | 21.0 | 0.00 | 0.00 | 0.00 | 27 | 1010.0 |
| 20260503172244 | 66 | 29 | 9.0 | 21.0 | 0.00 | 0.00 | 0.00 | 27 | 1010.0 |
| 20260503172235 | 66 | 345 | 8.0 | 21.0 | 0.00 | 0.00 | 0.00 | 27 | 1010.0 |
| 20260503172227 | 66 | 345 | 8.0 | 21.0 | 0.00 | 0.00 | 0.00 | 27 | 1011.0 |
| 20260503172203 | 66 | 20 | 9.0 | 21.0 | 0.00 | 0.00 | 0.00 | 26 | 1011.0 |
| 20260503172136 | 66 | 14 | 14.0 | 21.0 | 0.00 | 0.00 | 0.00 | 26 | 1011.0 |
| 20260503172122 | 66 | 35 | 11.0 | 17.0 | 0.00 | 0.00 | 0.00 | 26 | 1010.0 |
| 20260503172113 | 66 | 69 | 9.0 | 17.0 | 0.00 | 0.00 | 0.00 | 26 | 1010.0 |
| 20260503172050 | 66 | 6 | 10.0 | 17.0 | 0.00 | 0.00 | 0.00 | 26 | 1010.0 |
| 20260503172041 | 66 | 20 | 7.0 | 16.0 | 0.00 | 0.00 | 0.00 | 26 | 1010.0 |
| 20260503172016 | 66 | 12 | 12.0 | 16.0 | 0.00 | 0.00 | 0.00 | 26 | 1011.0 |
| 20260503172002 | 66 | 43 | 12.0 | 15.0 | 0.00 | 0.00 | 0.00 | 28 | 1011.0 |
| 20260503171945 | 66 | 349 | 11.0 | 15.0 | 0.00 | 0.00 | 0.00 | 28 | 1011.0 |
| 20260503171921 | 66 | 4 | 11.0 | 15.0 | 0.00 | 0.00 | 0.00 | 28 | 1010.0 |
| 20260503171907 | 66 | 345 | 10.0 | 15.0 | 0.00 | 0.00 | 0.00 | 28 | 1010.0 |
| 20260503171859 | 66 | 9 | 8.0 | 16.0 | 0.00 | 0.00 | 0.00 | 27 | 1010.0 |
| 20260503171834 | 66 | 320 | 8.0 | 16.0 | 0.00 | 0.00 | 0.00 | 27 | 1010.0 |
| 20260503171824 | 66 | 344 | 8.0 | 17.0 | 0.00 | 0.00 | 0.00 | 27 | 1011.0 |
| 20260503171812 | 66 | 359 | 8.0 | 17.0 | 0.00 | 0.00 | 0.00 | 27 | 1011.0 |
| 20260503171753 | 66 | 333 | 6.0 | 17.0 | 0.00 | 0.00 | 0.00 | 27 | 1011.0 |
| 20260503171737 | 66 | 320 | 8.0 | 17.0 | 0.00 | 0.00 | 0.00 | 27 | 1011.0 |
| 20260503171713 | 66 | 11 | 8.0 | 17.0 | 0.00 | 0.00 | 0.00 | 27 | 1010.0 |
| 20260503171658 | 66 | 307 | 10.0 | 17.0 | 0.00 | 0.00 | 0.00 | 27 | 1010.0 |
| 20260503171649 | 66 | 304 | 7.0 | 15.0 | 0.00 | 0.00 | 0.00 | 27 | 1010.0 |
| 20260503171635 | 66 | 0 | 7.0 | 15.0 | 0.00 | 0.00 | 0.00 | 27 | 1010.0 |
| 20260503171628 | 66 | 0 | 7.0 | 15.0 | 0.00 | 0.00 | 0.00 | 27 | 1011.0 |
| 20260503171602 | 66 | 3 | 9.0 | 15.0 | 0.00 | 0.00 | 0.00 | 27 | 1011.0 |
| 20260503171552 | 66 | 3 | 9.0 | 15.0 | 0.00 | 0.00 | 0.00 | 27 | 1011.0 |
| 20260503171539 | 66 | 32 | 11.0 | 15.0 | 0.00 | 0.00 | 0.00 | 26 | 1011.0 |
| 20260503171512 | 66 | 342 | 11.0 | 18.0 | 0.00 | 0.00 | 0.00 | 26 | 1011.0 |
| 20260503171459 | 66 | 342 | 11.0 | 18.0 | 0.00 | 0.00 | 0.00 | 26 | 1011.0 |
| 20260503171451 | 66 | 344 | 10.0 | 18.0 | 0.00 | 0.00 | 0.00 | 26 | 1011.0 |
| 20260503171424 | 66 | 357 | 7.0 | 18.0 | 0.00 | 0.00 | 0.00 | 27 | 1011.0 |
| 20260503171412 | 66 | 54 | 7.0 | 18.0 | 0.00 | 0.00 | 0.00 | 27 | 1011.0 |
| 20260503171404 | 66 | 17 | 13.0 | 18.0 | 0.00 | 0.00 | 0.00 | 27 | 1011.0 |
| 20260503171344 | 66 | 19 | 11.0 | 16.0 | 0.00 | 0.00 | 0.00 | 27 | 1011.0 |
| 20260503171321 | 66 | 61 | 11.0 | 15.0 | 0.00 | 0.00 | 0.00 | 29 | 1010.0 |
| 20260503171305 | 66 | 10 | 11.0 | 15.0 | 0.00 | 0.00 | 0.00 | 29 | 1010.0 |
| 20260503171250 | 66 | 45 | 11.0 | 15.0 | 0.00 | 0.00 | 0.00 | 29 | 1010.0 |
| 20260503171240 | 66 | 20 | 7.0 | 15.0 | 0.00 | 0.00 | 0.00 | 29 | 1010.0 |
| 20260503171218 | 66 | 17 | 4.0 | 15.0 | 0.00 | 0.00 | 0.00 | 29 | 1010.0 |
| 20260503171211 | 66 | 8 | 6.0 | 15.0 | 0.00 | 0.00 | 0.00 | 29 | 1010.0 |
| 20260503171145 | 66 | 347 | 8.0 | 15.0 | 0.00 | 0.00 | 0.00 | 29 | 1010.0 |
| 20260503171130 | 66 | 352 | 9.0 | 15.0 | 0.00 | 0.00 | 0.00 | 29 | 1010.0 |
| 20260503171121 | 66 | 343 | 10.0 | 15.0 | 0.00 | 0.00 | 0.00 | 29 | 1010.0 |
| 20260503171112 | 66 | 316 | 13.0 | 15.0 | 0.00 | 0.00 | 0.00 | 29 | 1010.0 |
| 20260503171043 | 66 | 279 | 8.0 | 14.0 | 0.00 | 0.00 | 0.00 | 29 | 1010.0 |
| 20260503171017 | 66 | 329 | 3.0 | 15.0 | 0.00 | 0.00 | 0.00 | 28 | 1010.0 |
| 20260503171009 | 66 | 288 | 6.0 | 15.0 | 0.00 | 0.00 | 0.00 | 28 | 1010.0 |
| 20260503170953 | 66 | 311 | 8.0 | 15.0 | 0.00 | 0.00 | 0.00 | 28 | 1010.0 |
| 20260503170928 | 66 | 328 | 10.0 | 15.0 | 0.00 | 0.00 | 0.00 | 28 | 1010.0 |
| 20260503170915 | 66 | 334 | 10.0 | 15.0 | 0.00 | 0.00 | 0.00 | 27 | 1010.0 |
| 20260503170848 | 66 | 299 | 8.0 | 13.0 | 0.00 | 0.00 | 0.00 | 27 | 1010.0 |
| 20260503170826 | 66 | 302 | 8.0 | 13.0 | 0.00 | 0.00 | 0.00 | 27 | 1010.0 |
| 20260503170816 | 66 | 355 | 6.0 | 13.0 | 0.00 | 0.00 | 0.00 | 27 | 1010.0 |
| 20260503170803 | 66 | 20 | 8.0 | 16.0 | 0.00 | 0.00 | 0.00 | 27 | 1010.0 |
| 20260503170757 | 66 | 20 | 8.0 | 16.0 | 0.00 | 0.00 | 0.00 | 27 | 1010.0 |
| 20260503170736 | 66 | 358 | 8.0 | 16.0 | 0.00 | 0.00 | 0.00 | 27 | 1010.0 |
| 20260503170723 | 66 | 343 | 8.0 | 16.0 | 0.00 | 0.00 | 0.00 | 27 | 1010.0 |
| 20260503170716 | 66 | 25 | 10.0 | 16.0 | 0.00 | 0.00 | 0.00 | 28 | 1010.0 |
| 20260503170657 | 66 | 25 | 10.0 | 16.0 | 0.00 | 0.00 | 0.00 | 28 | 1010.0 |
| 20260503170635 | 66 | 14 | 12.0 | 16.0 | 0.00 | 0.00 | 0.00 | 28 | 1010.0 |
| 20260503170610 | 66 | 39 | 12.0 | 15.0 | 0.00 | 0.00 | 0.00 | 27 | 1010.0 |
| 20260503170601 | 66 | 359 | 5.0 | 10.0 | 0.00 | 0.00 | 0.00 | 27 | 1010.0 |
| 20260503170538 | 66 | 358 | 5.0 | 10.0 | 0.00 | 0.00 | 0.00 | 27 | 1010.0 |
| 20260503170528 | 66 | 327 | 6.0 | 10.0 | 0.00 | 0.00 | 0.00 | 27 | 1010.0 |
| 20260503170516 | 66 | 16 | 7.0 | 10.0 | 0.00 | 0.00 | 0.00 | 27 | 1010.0 |
| 20260503170435 | 66 | 11 | 8.0 | 11.0 | 0.00 | 0.00 | 0.00 | 28 | 1010.0 |
| 20260503170426 | 66 | 45 | 8.0 | 11.0 | 0.00 | 0.00 | 0.00 | 28 | 1011.0 |
| 20260503170402 | 66 | 353 | 7.0 | 11.0 | 0.00 | 0.00 | 0.00 | 29 | 1011.0 |
| 20260503170353 | 66 | 45 | 9.0 | 11.0 | 0.00 | 0.00 | 0.00 | 29 | 1011.0 |
| 20260503170337 | 66 | 45 | 8.0 | 11.0 | 0.00 | 0.00 | 0.00 | 29 | 1011.0 |
| 20260503170313 | 66 | 4 | 6.0 | 13.0 | 0.00 | 0.00 | 0.00 | 29 | 1011.0 |
| 20260503170258 | 66 | 56 | 7.0 | 15.0 | 0.00 | 0.00 | 0.00 | 28 | 1011.0 |
| 20260503170249 | 66 | 2 | 6.0 | 15.0 | 0.00 | 0.00 | 0.00 | 28 | 1011.0 |
| 20260503170233 | 66 | 8 | 9.0 | 15.0 | 0.00 | 0.00 | 0.00 | 28 | 1011.0 |
| 20260503170220 | 66 | 9 | 9.0 | 15.0 | 0.00 | 0.00 | 0.00 | 28 | 1010.0 |
| 20260503170201 | 66 | 25 | 7.0 | 15.0 | 0.00 | 0.00 | 0.00 | 28 | 1010.0 |
| 20260503170145 | 66 | 25 | 7.0 | 15.0 | 0.00 | 0.00 | 0.00 | 29 | 1010.0 |
| 20260503170132 | 66 | 241 | 9.0 | 15.0 | 0.00 | 0.00 | 0.00 | 29 | 1010.0 |
| 20260503170125 | 66 | 324 | 4.0 | 13.0 | 0.00 | 0.00 | 0.00 | 29 | 1010.0 |
| 20260503170105 | 66 | 300 | 6.0 | 13.0 | 0.00 | 0.00 | 0.00 | 29 | 1010.0 |
| 20260503160216 | 62 | 340 | 5.0 | 10.0 | 0.00 | 0.00 | 0.00 | 36 | 1010.0 |
| 20260503160202 | 62 | 328 | 6.0 | 19.0 | 0.00 | 0.00 | 0.00 | 36 | 1010.0 |
| 20260503160153 | 62 | 328 | 6.0 | 19.0 | 0.00 | 0.00 | 0.00 | 36 | 1010.0 |
| 20260503160137 | 62 | 284 | 4.0 | 19.0 | 0.00 | 0.00 | 0.00 | 36 | 1010.0 |
| 20260503160129 | 62 | 359 | 4.0 | 19.0 | 0.00 | 0.00 | 0.00 | 36 | 1010.0 |
| 20260503160112 | 62 | 313 | 7.0 | 19.0 | 0.00 | 0.00 | 0.00 | 36 | 1010.0 |
| 20260503151012 | 59 | 5 | 6.0 | 16.0 | 0.00 | 0.00 | 0.00 | 39 | 1010.0 |
| 20260503151006 | 59 | 296 | 7.0 | 18.0 | 0.00 | 0.00 | 0.00 | 39 | 1010.0 |
| 20260503150921 | 59 | 0 | 10.0 | 18.0 | 0.00 | 0.00 | 0.00 | 39 | 1010.0 |
| 20260503150905 | 59 | 337 | 9.0 | 18.0 | 0.00 | 0.00 | 0.00 | 39 | 1010.0 |
| 20260503150851 | 59 | 319 | 5.0 | 18.0 | 0.00 | 0.00 | 0.00 | 39 | 1010.0 |
| 20260503150833 | 59 | 228 | 9.0 | 18.0 | 0.00 | 0.00 | 0.00 | 39 | 1010.0 |
| 20260503150817 | 59 | 325 | 15.0 | 18.0 | 0.00 | 0.00 | 0.00 | 39 | 1010.0 |
| 20260503150804 | 59 | 324 | 10.0 | 16.0 | 0.00 | 0.00 | 0.00 | 39 | 1010.0 |
| 20260503150757 | 59 | 358 | 7.0 | 13.0 | 0.00 | 0.00 | 0.00 | 39 | 1010.0 |
| 20260503150722 | 59 | 348 | 6.0 | 10.0 | 0.00 | 0.00 | 0.00 | 39 | 1010.0 |
| 20260503150713 | 59 | 350 | 7.0 | 10.0 | 0.00 | 0.00 | 0.00 | 39 | 1010.0 |
| 20260503150657 | 59 | 292 | 7.0 | 22.0 | 0.00 | 0.00 | 0.00 | 39 | 1010.0 |
| 20260503150635 | 59 | 344 | 8.0 | 22.0 | 0.00 | 0.00 | 0.00 | 39 | 1010.0 |
| 20260503150605 | 59 | 309 | 8.0 | 22.0 | 0.00 | 0.00 | 0.00 | 39 | 1010.0 |
| 20260503150545 | 59 | 349 | 6.0 | 22.0 | 0.00 | 0.00 | 0.00 | 39 | 1010.0 |
| 20260503150531 | 59 | 324 | 7.0 | 22.0 | 0.00 | 0.00 | 0.00 | 39 | 1010.0 |
| 20260503150513 | 59 | 320 | 12.0 | 22.0 | 0.00 | 0.00 | 0.00 | 39 | 1010.0 |
| 20260503150500 | 59 | 281 | 11.0 | 19.0 | 0.00 | 0.00 | 0.00 | 39 | 1010.0 |
| 20260503150451 | 59 | 315 | 6.0 | 19.0 | 0.00 | 0.00 | 0.00 | 39 | 1010.0 |
| 20260503150431 | 59 | 301 | 5.0 | 19.0 | 0.00 | 0.00 | 0.00 | 40 | 1010.0 |
| 20260503150412 | 59 | 318 | 11.0 | 19.0 | 0.00 | 0.00 | 0.00 | 40 | 1010.0 |
| 20260503150406 | 59 | 351 | 10.0 | 19.0 | 0.00 | 0.00 | 0.00 | 40 | 1010.0 |
| 20260503150345 | 59 | 339 | 10.0 | 19.0 | 0.00 | 0.00 | 0.00 | 40 | 1010.0 |
| 20260503150325 | 59 | 345 | 9.0 | 14.0 | 0.00 | 0.00 | 0.00 | 40 | 1010.0 |
| 20260503150244 | 59 | 300 | 8.0 | 11.0 | 0.00 | 0.00 | 0.00 | 40 | 1010.0 |
| 20260503150218 | 59 | 312 | 8.0 | 11.0 | 0.00 | 0.00 | 0.00 | 40 | 1010.0 |
| 20260503150201 | 59 | 358 | 6.0 | 10.0 | 0.00 | 0.00 | 0.00 | 40 | 1010.0 |
| 20260503150153 | 59 | 358 | 6.0 | 10.0 | 0.00 | 0.00 | 0.00 | 40 | 1010.0 |
| 20260503150139 | 59 | 351 | 6.0 | 10.0 | 0.00 | 0.00 | 0.00 | 40 | 1010.0 |
| 20260503150130 | 59 | 16 | 5.0 | 11.0 | 0.00 | 0.00 | 0.00 | 40 | 1010.0 |
| 20260503150122 | 59 | 16 | 5.0 | 11.0 | 0.00 | 0.00 | 0.00 | 39 | 1010.0 |
| 20260503150106 | 59 | 329 | 6.0 | 11.0 | 0.00 | 0.00 | 0.00 | 39 | 1010.0 |
| 20260503140257 | 58 | 318 | 6.0 | 11.0 | 0.00 | 0.00 | 0.00 | 40 | 1010.0 |
| 20260503140243 | 58 | 299 | 7.0 | 11.0 | 0.00 | 0.00 | 0.00 | 40 | 1010.0 |
| 20260503140219 | 58 | 305 | 8.0 | 11.0 | 0.00 | 0.00 | 0.00 | 40 | 1010.0 |
| 20260503140201 | 58 | 326 | 6.0 | 11.0 | 0.00 | 0.00 | 0.00 | 40 | 1010.0 |
| 20260503140146 | 58 | 305 | 8.0 | 11.0 | 0.00 | 0.00 | 0.00 | 40 | 1010.0 |
| 20260503140123 | 58 | 337 | 6.0 | 11.0 | 0.00 | 0.00 | 0.00 | 40 | 1010.0 |
| 20260503140105 | 58 | 328 | 10.0 | 11.0 | 0.00 | 0.00 | 0.00 | 40 | 1010.0 |
| 20260503131413 | 52 | 280 | 5.0 | 8.0 | 0.00 | 0.00 | 0.00 | 46 | 1010.0 |
| 20260503131354 | 52 | 254 | 4.0 | 8.0 | 0.00 | 0.00 | 0.00 | 46 | 1010.0 |
| 20260503131344 | 52 | 254 | 6.0 | 8.0 | 0.00 | 0.00 | 0.00 | 46 | 1010.0 |
| 20260503131321 | 52 | 272 | 7.0 | 8.0 | 0.00 | 0.00 | 0.00 | 46 | 1010.0 |
| 20260503131308 | 52 | 300 | 5.0 | 7.0 | 0.00 | 0.00 | 0.00 | 46 | 1010.0 |
| 20260503131303 | 52 | 259 | 6.0 | 7.0 | 0.00 | 0.00 | 0.00 | 46 | 1010.0 |
| 20260503131232 | 52 | 269 | 5.0 | 7.0 | 0.00 | 0.00 | 0.00 | 46 | 1010.0 |
| 20260503131209 | 52 | 290 | 4.0 | 9.0 | 0.00 | 0.00 | 0.00 | 46 | 1010.0 |
| 20260503131152 | 52 | 278 | 4.0 | 9.0 | 0.00 | 0.00 | 0.00 | 46 | 1010.0 |
| 20260503131138 | 52 | 302 | 3.0 | 9.0 | 0.00 | 0.00 | 0.00 | 46 | 1010.0 |
| 20260503131120 | 52 | 244 | 4.0 | 9.0 | 0.00 | 0.00 | 0.00 | 46 | 1010.0 |
| 20260503131105 | 52 | 279 | 6.0 | 9.0 | 0.00 | 0.00 | 0.00 | 46 | 1010.0 |
| 20260503131049 | 52 | 265 | 6.0 | 9.0 | 0.00 | 0.00 | 0.00 | 46 | 1010.0 |
| 20260503131040 | 52 | 288 | 6.0 | 8.0 | 0.00 | 0.00 | 0.00 | 46 | 1010.0 |
| 20260503131024 | 52 | 304 | 3.0 | 7.0 | 0.00 | 0.00 | 0.00 | 46 | 1010.0 |
| 20260503131016 | 52 | 304 | 4.0 | 7.0 | 0.00 | 0.00 | 0.00 | 46 | 1010.0 |
| 20260503130929 | 52 | 257 | 5.0 | 7.0 | 0.00 | 0.00 | 0.00 | 46 | 1010.0 |
| 20260503130920 | 52 | 283 | 4.0 | 7.0 | 0.00 | 0.00 | 0.00 | 46 | 1010.0 |
| 20260503130906 | 52 | 261 | 3.0 | 7.0 | 0.00 | 0.00 | 0.00 | 46 | 1010.0 |
| 20260503130859 | 52 | 261 | 3.0 | 9.0 | 0.00 | 0.00 | 0.00 | 46 | 1010.0 |
| 20260503130834 | 52 | 260 | 4.0 | 9.0 | 0.00 | 0.00 | 0.00 | 46 | 1010.0 |
| 20260503130824 | 52 | 251 | 4.0 | 9.0 | 0.00 | 0.00 | 0.00 | 46 | 1010.0 |
| 20260503130810 | 52 | 291 | 4.0 | 9.0 | 0.00 | 0.00 | 0.00 | 46 | 1010.0 |
| 20260503130803 | 52 | 291 | 4.0 | 10.0 | 0.00 | 0.00 | 0.00 | 46 | 1010.0 |
| 20260503130728 | 52 | 281 | 6.0 | 10.0 | 0.00 | 0.00 | 0.00 | 46 | 1010.0 |
| 20260503130716 | 52 | 267 | 7.0 | 10.0 | 0.00 | 0.00 | 0.00 | 46 | 1010.0 |
| 20260503130656 | 52 | 281 | 4.0 | 11.0 | 0.00 | 0.00 | 0.00 | 46 | 1010.0 |
| 20260503130641 | 52 | 263 | 4.0 | 11.0 | 0.00 | 0.00 | 0.00 | 46 | 1010.0 |
| 20260503130632 | 52 | 260 | 6.0 | 11.0 | 0.00 | 0.00 | 0.00 | 46 | 1010.0 |
| 20260503130612 | 52 | 276 | 6.0 | 11.0 | 0.00 | 0.00 | 0.00 | 46 | 1010.0 |
| 20260503130553 | 52 | 235 | 3.0 | 11.0 | 0.00 | 0.00 | 0.00 | 46 | 1010.0 |
| 20260503130536 | 52 | 248 | 6.0 | 11.0 | 0.00 | 0.00 | 0.00 | 46 | 1010.0 |
| 20260503130521 | 52 | 286 | 5.0 | 10.0 | 0.00 | 0.00 | 0.00 | 46 | 1010.0 |
| 20260503130512 | 52 | 287 | 4.0 | 10.0 | 0.00 | 0.00 | 0.00 | 46 | 1010.0 |
| 20260503130448 | 52 | 291 | 5.0 | 10.0 | 0.00 | 0.00 | 0.00 | 46 | 1010.0 |
| 20260503130432 | 52 | 281 | 6.0 | 10.0 | 0.00 | 0.00 | 0.00 | 46 | 1010.0 |
| 20260503130417 | 52 | 253 | 3.0 | 10.0 | 0.00 | 0.00 | 0.00 | 46 | 1010.0 |
| 20260503130400 | 52 | 296 | 6.0 | 10.0 | 0.00 | 0.00 | 0.00 | 46 | 1010.0 |
| 20260503130344 | 52 | 259 | 6.0 | 10.0 | 0.00 | 0.00 | 0.00 | 46 | 1010.0 |
| 20260503130333 | 52 | 298 | 3.0 | 10.0 | 0.00 | 0.00 | 0.00 | 46 | 1010.0 |
| 20260503130319 | 52 | 261 | 5.0 | 10.0 | 0.00 | 0.00 | 0.00 | 46 | 1010.0 |
| 20260503130251 | 52 | 288 | 4.0 | 10.0 | 0.00 | 0.00 | 0.00 | 46 | 1010.0 |
| 20260503130224 | 52 | 283 | 6.0 | 10.0 | 0.00 | 0.00 | 0.00 | 46 | 1010.0 |
| 20260503130200 | 52 | 276 | 7.0 | 9.0 | 0.00 | 0.00 | 0.00 | 46 | 1010.0 |
| 20260503130145 | 52 | 272 | 6.0 | 7.0 | 0.00 | 0.00 | 0.00 | 46 | 1010.0 |
| 20260503130136 | 52 | 253 | 3.0 | 7.0 | 0.00 | 0.00 | 0.00 | 46 | 1010.0 |
| 20260503130120 | 52 | 265 | 5.0 | 7.0 | 0.00 | 0.00 | 0.00 | 46 | 1010.0 |
| 20260503130105 | 52 | 279 | 6.0 | 7.0 | 0.00 | 0.00 | 0.00 | 46 | 1010.0 |
| 20260503120220 | 52 | 262 | 5.0 | 8.0 | 0.00 | 0.00 | 0.00 | 45 | 1010.0 |
| 20260503120208 | 52 | 279 | 5.0 | 8.0 | 0.00 | 0.00 | 0.00 | 45 | 1010.0 |
| 20260503120145 | 52 | 247 | 5.0 | 8.0 | 0.00 | 0.00 | 0.00 | 45 | 1010.0 |
| 20260503120129 | 52 | 288 | 5.0 | 8.0 | 0.00 | 0.00 | 0.00 | 45 | 1010.0 |
| 20260503120121 | 52 | 264 | 6.0 | 8.0 | 0.00 | 0.00 | 0.00 | 45 | 1010.0 |
| 20260503120104 | 52 | 301 | 4.0 | 8.0 | 0.00 | 0.00 | 0.00 | 45 | 1010.0 |
| 20260503110817 | 51 | 275 | 6.0 | 9.0 | 0.00 | 0.00 | 0.00 | 44 | 1010.0 |
| 20260503110805 | 51 | 256 | 4.0 | 9.0 | 0.00 | 0.00 | 0.00 | 44 | 1010.0 |
| 20260503110758 | 51 | 256 | 4.0 | 9.0 | 0.00 | 0.00 | 0.00 | 44 | 1010.0 |
| 20260503110739 | 51 | 261 | 3.0 | 9.0 | 0.00 | 0.00 | 0.00 | 44 | 1010.0 |
| 20260503110715 | 51 | 284 | 6.0 | 9.0 | 0.00 | 0.00 | 0.00 | 44 | 1010.0 |
| 20260503110652 | 51 | 268 | 8.0 | 10.0 | 0.00 | 0.00 | 0.00 | 44 | 1010.0 |
| 20260503110633 | 51 | 257 | 5.0 | 10.0 | 0.00 | 0.00 | 0.00 | 44 | 1010.0 |
| 20260503110617 | 51 | 283 | 2.0 | 10.0 | 0.00 | 0.00 | 0.00 | 44 | 1010.0 |
| 20260503110609 | 51 | 297 | 6.0 | 10.0 | 0.00 | 0.00 | 0.00 | 44 | 1010.0 |
| 20260503110550 | 51 | 293 | 4.0 | 10.0 | 0.00 | 0.00 | 0.00 | 44 | 1010.0 |
| 20260503110533 | 51 | 270 | 6.0 | 10.0 | 0.00 | 0.00 | 0.00 | 44 | 1010.0 |
| 20260503110513 | 51 | 279 | 9.0 | 10.0 | 0.00 | 0.00 | 0.00 | 44 | 1010.0 |
| 20260503110457 | 51 | 299 | 4.0 | 7.0 | 0.00 | 0.00 | 0.00 | 44 | 1010.0 |
| 20260503110433 | 51 | 275 | 4.0 | 7.0 | 0.00 | 0.00 | 0.00 | 44 | 1010.0 |
| 20260503110418 | 51 | 265 | 5.0 | 7.0 | 0.00 | 0.00 | 0.00 | 44 | 1010.0 |
| 20260503110400 | 51 | 265 | 4.0 | 6.0 | 0.00 | 0.00 | 0.00 | 44 | 1010.0 |
| 20260503110351 | 51 | 269 | 4.0 | 6.0 | 0.00 | 0.00 | 0.00 | 44 | 1010.0 |
| 20260503110332 | 51 | 270 | 4.0 | 9.0 | 0.00 | 0.00 | 0.00 | 44 | 1010.0 |
| 20260503110313 | 51 | 272 | 4.0 | 9.0 | 0.00 | 0.00 | 0.00 | 44 | 1010.0 |
| 20260503110304 | 51 | 260 | 4.0 | 9.0 | 0.00 | 0.00 | 0.00 | 44 | 1010.0 |
| 20260503110250 | 51 | 271 | 4.0 | 9.0 | 0.00 | 0.00 | 0.00 | 44 | 1010.0 |
| 20260503110226 | 51 | 266 | 4.0 | 9.0 | 0.00 | 0.00 | 0.00 | 44 | 1010.0 |
| 20260503110208 | 51 | 251 | 5.0 | 9.0 | 0.00 | 0.00 | 0.00 | 44 | 1010.0 |
| 20260503110153 | 51 | 251 | 5.0 | 9.0 | 0.00 | 0.00 | 0.00 | 44 | 1010.0 |
| 20260503110144 | 51 | 269 | 4.0 | 7.0 | 0.00 | 0.00 | 0.00 | 44 | 1010.0 |
| 20260503110122 | 51 | 272 | 4.0 | 7.0 | 0.00 | 0.00 | 0.00 | 44 | 1010.0 |
| 20260503110112 | 51 | 259 | 3.0 | 7.0 | 0.00 | 0.00 | 0.00 | 44 | 1010.0 |
| 20260503100242 | 52 | 267 | 3.0 | 7.0 | 0.00 | 0.00 | 0.00 | 42 | 1010.0 |
| 20260503100233 | 52 | 256 | 5.0 | 7.0 | 0.00 | 0.00 | 0.00 | 42 | 1010.0 |
| 20260503100208 | 52 | 292 | 3.0 | 6.0 | 0.00 | 0.00 | 0.00 | 42 | 1010.0 |
| 20260503100158 | 52 | 249 | 4.0 | 6.0 | 0.00 | 0.00 | 0.00 | 42 | 1010.0 |
| 20260503100140 | 52 | 263 | 5.0 | 6.0 | 0.00 | 0.00 | 0.00 | 42 | 1010.0 |
| 20260503100104 | 52 | 272 | 2.0 | 4.0 | 0.00 | 0.00 | 0.00 | 42 | 1010.0 |
| 20260503090512 | 53 | 299 | 3.0 | 7.0 | 0.00 | 0.00 | 0.00 | 40 | 1010.0 |
| 20260503090457 | 53 | 271 | 3.0 | 7.0 | 0.00 | 0.00 | 0.00 | 39 | 1010.0 |
| 20260503090448 | 53 | 262 | 4.0 | 7.0 | 0.00 | 0.00 | 0.00 | 39 | 1010.0 |
| 20260503090425 | 53 | 271 | 4.0 | 7.0 | 0.00 | 0.00 | 0.00 | 39 | 1010.0 |
| 20260503090408 | 53 | 276 | 4.0 | 7.0 | 0.00 | 0.00 | 0.00 | 39 | 1010.0 |
| 20260503090353 | 53 | 307 | 6.0 | 7.0 | 0.00 | 0.00 | 0.00 | 40 | 1010.0 |
| 20260503090344 | 53 | 274 | 5.0 | 7.0 | 0.00 | 0.00 | 0.00 | 40 | 1010.0 |
| 20260503090331 | 53 | 285 | 4.0 | 7.0 | 0.00 | 0.00 | 0.00 | 40 | 1010.0 |
| 20260503090304 | 53 | 280 | 4.0 | 7.0 | 0.00 | 0.00 | 0.00 | 40 | 1010.0 |
| 20260503090250 | 53 | 260 | 4.0 | 7.0 | 0.00 | 0.00 | 0.00 | 39 | 1010.0 |
| 20260503090233 | 53 | 285 | 4.0 | 7.0 | 0.00 | 0.00 | 0.00 | 39 | 1010.0 |
| 20260503090216 | 53 | 270 | 5.0 | 7.0 | 0.00 | 0.00 | 0.00 | 39 | 1010.0 |
| 20260503090205 | 53 | 283 | 4.0 | 7.0 | 0.00 | 0.00 | 0.00 | 39 | 1010.0 |
| 20260503090147 | 53 | 279 | 4.0 | 7.0 | 0.00 | 0.00 | 0.00 | 40 | 1010.0 |
| 20260503090121 | 53 | 280 | 4.0 | 7.0 | 0.00 | 0.00 | 0.00 | 40 | 1010.0 |
| 20260503090113 | 53 | 286 | 5.0 | 7.0 | 0.00 | 0.00 | 0.00 | 40 | 1010.0 |
| 20260503081616 | 54 | 268 | 5.0 | 6.0 | 0.00 | 0.00 | 0.00 | 38 | 1010.0 |
| 20260503081601 | 54 | 291 | 4.0 | 6.0 | 0.00 | 0.00 | 0.00 | 38 | 1010.0 |
| 20260503081552 | 54 | 259 | 4.0 | 6.0 | 0.00 | 0.00 | 0.00 | 38 | 1010.0 |
| 20260503081536 | 54 | 309 | 4.0 | 6.0 | 0.00 | 0.00 | 0.00 | 38 | 1010.0 |
| 20260503081515 | 54 | 244 | 2.0 | 8.0 | 0.00 | 0.00 | 0.00 | 38 | 1010.0 |
| 20260503081451 | 54 | 256 | 4.0 | 8.0 | 0.00 | 0.00 | 0.00 | 38 | 1010.0 |
| 20260503081429 | 54 | 275 | 5.0 | 8.0 | 0.00 | 0.00 | 0.00 | 38 | 1010.0 |
| 20260503081421 | 54 | 261 | 5.0 | 8.0 | 0.00 | 0.00 | 0.00 | 38 | 1010.0 |
| 20260503081403 | 54 | 275 | 6.0 | 8.0 | 0.00 | 0.00 | 0.00 | 38 | 1010.0 |
| 20260503081328 | 54 | 305 | 5.0 | 7.0 | 0.00 | 0.00 | 0.00 | 37 | 1010.0 |
| 20260503081313 | 54 | 264 | 4.0 | 6.0 | 0.00 | 0.00 | 0.00 | 37 | 1010.0 |
| 20260503081257 | 54 | 290 | 3.0 | 4.0 | 0.00 | 0.00 | 0.00 | 37 | 1010.0 |
| 20260503081248 | 54 | 258 | 3.0 | 4.0 | 0.00 | 0.00 | 0.00 | 37 | 1010.0 |
| 20260503081234 | 54 | 254 | 3.0 | 4.0 | 0.00 | 0.00 | 0.00 | 37 | 1010.0 |
| 20260503081208 | 54 | 246 | 3.0 | 6.0 | 0.00 | 0.00 | 0.00 | 37 | 1010.0 |
| 20260503081153 | 54 | 256 | 3.0 | 6.0 | 0.00 | 0.00 | 0.00 | 37 | 1010.0 |
| 20260503081140 | 54 | 271 | 3.0 | 6.0 | 0.00 | 0.00 | 0.00 | 37 | 1010.0 |
| 20260503081056 | 54 | 319 | 4.0 | 6.0 | 0.00 | 0.00 | 0.00 | 37 | 1010.0 |
| 20260503081033 | 54 | 262 | 4.0 | 6.0 | 0.00 | 0.00 | 0.00 | 37 | 1010.0 |
| 20260503081024 | 54 | 275 | 4.0 | 6.0 | 0.00 | 0.00 | 0.00 | 37 | 1010.0 |
| 20260503081000 | 54 | 281 | 4.0 | 6.0 | 0.00 | 0.00 | 0.00 | 37 | 1010.0 |
| 20260503080945 | 54 | 275 | 4.0 | 6.0 | 0.00 | 0.00 | 0.00 | 37 | 1010.0 |
| 20260503080930 | 54 | 285 | 4.0 | 6.0 | 0.00 | 0.00 | 0.00 | 37 | 1010.0 |
| 20260503080835 | 54 | 258 | 3.0 | 7.0 | 0.00 | 0.00 | 0.00 | 37 | 1010.0 |
| 20260503080828 | 54 | 279 | 4.0 | 7.0 | 0.00 | 0.00 | 0.00 | 37 | 1010.0 |
| 20260503080808 | 54 | 272 | 3.0 | 7.0 | 0.00 | 0.00 | 0.00 | 37 | 1010.0 |
| 20260503080748 | 54 | 264 | 4.0 | 7.0 | 0.00 | 0.00 | 0.00 | 37 | 1010.0 |
| 20260503080731 | 54 | 253 | 5.0 | 7.0 | 0.00 | 0.00 | 0.00 | 37 | 1010.0 |
| 20260503080705 | 54 | 250 | 3.0 | 3.0 | 0.00 | 0.00 | 0.00 | 37 | 1010.0 |
| 20260503080640 | 54 | 290 | 3.0 | 3.0 | 0.00 | 0.00 | 0.00 | 37 | 1010.0 |
| 20260503080627 | 54 | 292 | 2.0 | 4.0 | 0.00 | 0.00 | 0.00 | 37 | 1010.0 |
| 20260503080609 | 54 | 289 | 2.0 | 4.0 | 0.00 | 0.00 | 0.00 | 37 | 1010.0 |
| 20260503080553 | 54 | 283 | 3.0 | 6.0 | 0.00 | 0.00 | 0.00 | 37 | 1010.0 |
| 20260503080544 | 54 | 272 | 3.0 | 6.0 | 0.00 | 0.00 | 0.00 | 37 | 1010.0 |
| 20260503080521 | 54 | 285 | 2.0 | 6.0 | 0.00 | 0.00 | 0.00 | 37 | 1010.0 |
| 20260503080504 | 54 | 256 | 3.0 | 6.0 | 0.00 | 0.00 | 0.00 | 37 | 1010.0 |
| 20260503080453 | 54 | 264 | 3.0 | 6.0 | 0.00 | 0.00 | 0.00 | 37 | 1010.0 |
| 20260503080427 | 54 | 258 | 5.0 | 6.0 | 0.00 | 0.00 | 0.00 | 37 | 1010.0 |
| 20260503080357 | 54 | 283 | 2.0 | 4.0 | 0.00 | 0.00 | 0.00 | 37 | 1010.0 |
| 20260503080323 | 54 | 270 | 3.0 | 4.0 | 0.00 | 0.00 | 0.00 | 37 | 1010.0 |
| 20260503080316 | 54 | 272 | 3.0 | 4.0 | 0.00 | 0.00 | 0.00 | 37 | 1010.0 |
| 20260503080250 | 54 | 274 | 3.0 | 4.0 | 0.00 | 0.00 | 0.00 | 37 | 1010.0 |
| 20260503080240 | 54 | 327 | 2.0 | 4.0 | 0.00 | 0.00 | 0.00 | 37 | 1010.0 |
| 20260503080227 | 54 | 288 | 1.0 | 7.0 | 0.00 | 0.00 | 0.00 | 37 | 1010.0 |
| 20260503080201 | 54 | 275 | 4.0 | 7.0 | 0.00 | 0.00 | 0.00 | 37 | 1010.0 |
| 20260503080145 | 54 | 325 | 3.0 | 7.0 | 0.00 | 0.00 | 0.00 | 37 | 1010.0 |
| 20260503080136 | 54 | 278 | 2.0 | 7.0 | 0.00 | 0.00 | 0.00 | 37 | 1010.0 |
| 20260503080118 | 54 | 276 | 2.0 | 7.0 | 0.00 | 0.00 | 0.00 | 37 | 1010.0 |
| 20260503072944 | 56 | 300 | 2.0 | 3.0 | 0.00 | 0.00 | 0.00 | 35 | 1010.0 |
| 20260503072912 | 56 | 284 | 2.0 | 3.0 | 0.00 | 0.00 | 0.00 | 35 | 1011.0 |
| 20260503072857 | 56 | 284 | 3.0 | 6.0 | 0.00 | 0.00 | 0.00 | 35 | 1011.0 |
| 20260503072848 | 56 | 304 | 2.0 | 6.0 | 0.00 | 0.00 | 0.00 | 35 | 1011.0 |
| 20260503072824 | 56 | 275 | 1.0 | 6.0 | 0.00 | 0.00 | 0.00 | 35 | 1011.0 |
| 20260503072808 | 56 | 285 | 1.0 | 6.0 | 0.00 | 0.00 | 0.00 | 35 | 1011.0 |
| 20260503072754 | 56 | 294 | 2.0 | 6.0 | 0.00 | 0.00 | 0.00 | 35 | 1011.0 |
| 20260503072736 | 56 | 277 | 3.0 | 6.0 | 0.00 | 0.00 | 0.00 | 35 | 1011.0 |
| 20260503072720 | 56 | 293 | 4.0 | 6.0 | 0.00 | 0.00 | 0.00 | 35 | 1010.0 |
| 20260503072705 | 56 | 269 | 2.0 | 3.0 | 0.00 | 0.00 | 0.00 | 35 | 1010.0 |
| 20260503072656 | 56 | 312 | 3.0 | 6.0 | 0.00 | 0.00 | 0.00 | 35 | 1010.0 |
| 20260503072632 | 56 | 296 | 3.0 | 6.0 | 0.00 | 0.00 | 0.00 | 35 | 1010.0 |
| 20260503072618 | 56 | 294 | 2.0 | 6.0 | 0.00 | 0.00 | 0.00 | 35 | 1010.0 |
| 20260503072611 | 56 | 301 | 2.0 | 6.0 | 0.00 | 0.00 | 0.00 | 35 | 1010.0 |
| 20260503072545 | 56 | 278 | 2.0 | 6.0 | 0.00 | 0.00 | 0.00 | 35 | 1010.0 |
| 20260503072536 | 56 | 260 | 4.0 | 6.0 | 0.00 | 0.00 | 0.00 | 35 | 1010.0 |
| 20260503072504 | 56 | 301 | 2.0 | 4.0 | 0.00 | 0.00 | 0.00 | 35 | 1010.0 |
| 20260503072449 | 56 | 293 | 2.0 | 4.0 | 0.00 | 0.00 | 0.00 | 35 | 1010.0 |
| 20260503072440 | 56 | 301 | 2.0 | 4.0 | 0.00 | 0.00 | 0.00 | 35 | 1010.0 |
| 20260503072419 | 56 | 269 | 2.0 | 4.0 | 0.00 | 0.00 | 0.00 | 35 | 1011.0 |
| 20260503072344 | 56 | 309 | 3.0 | 4.0 | 0.00 | 0.00 | 0.00 | 35 | 1011.0 |
| 20260503072320 | 56 | 263 | 2.0 | 4.0 | 0.00 | 0.00 | 0.00 | 35 | 1011.0 |
| 20260503072308 | 56 | 320 | 2.0 | 4.0 | 0.00 | 0.00 | 0.00 | 35 | 1011.0 |
| 20260503072248 | 56 | 275 | 2.0 | 4.0 | 0.00 | 0.00 | 0.00 | 35 | 1011.0 |
| 20260503072224 | 56 | 290 | 3.0 | 4.0 | 0.00 | 0.00 | 0.00 | 35 | 1011.0 |
| 20260503072210 | 56 | 286 | 4.0 | 4.0 | 0.00 | 0.00 | 0.00 | 35 | 1011.0 |
| 20260503072203 | 56 | 300 | 2.0 | 4.0 | 0.00 | 0.00 | 0.00 | 35 | 1011.0 |
| 20260503072137 | 56 | 295 | 2.0 | 4.0 | 0.00 | 0.00 | 0.00 | 35 | 1011.0 |
| 20260503072128 | 56 | 300 | 3.0 | 4.0 | 0.00 | 0.00 | 0.00 | 35 | 1011.0 |
| 20260503072104 | 56 | 320 | 2.0 | 4.0 | 0.00 | 0.00 | 0.00 | 35 | 1011.0 |
| 20260503072048 | 56 | 268 | 1.0 | 4.0 | 0.00 | 0.00 | 0.00 | 35 | 1011.0 |
| 20260503072036 | 56 | 311 | 3.0 | 4.0 | 0.00 | 0.00 | 0.00 | 35 | 1011.0 |
| 20260503072000 | 56 | 308 | 2.0 | 3.0 | 0.00 | 0.00 | 0.00 | 35 | 1010.0 |
| 20260503071936 | 56 | 303 | 2.0 | 3.0 | 0.00 | 0.00 | 0.00 | 35 | 1010.0 |
| 20260503071922 | 56 | 320 | 2.0 | 3.0 | 0.00 | 0.00 | 0.00 | 35 | 1010.0 |
| 20260503071854 | 56 | 289 | 3.0 | 6.0 | 0.00 | 0.00 | 0.00 | 35 | 1010.0 |
| 20260503071816 | 56 | 321 | 2.0 | 7.0 | 0.00 | 0.00 | 0.00 | 35 | 1011.0 |
| 20260503071801 | 56 | 303 | 1.0 | 7.0 | 0.00 | 0.00 | 0.00 | 35 | 1011.0 |
| 20260503071752 | 56 | 312 | 3.0 | 7.0 | 0.00 | 0.00 | 0.00 | 35 | 1011.0 |
| 20260503071736 | 56 | 275 | 3.0 | 7.0 | 0.00 | 0.00 | 0.00 | 35 | 1011.0 |
| 20260503071713 | 56 | 292 | 4.0 | 7.0 | 0.00 | 0.00 | 0.00 | 35 | 1011.0 |
| 20260503071704 | 56 | 292 | 5.0 | 7.0 | 0.00 | 0.00 | 0.00 | 35 | 1011.0 |
| 20260503071648 | 56 | 311 | 4.0 | 10.0 | 0.00 | 0.00 | 0.00 | 35 | 1011.0 |
| 20260503071624 | 56 | 300 | 2.0 | 10.0 | 0.00 | 0.00 | 0.00 | 35 | 1011.0 |
| 20260503071601 | 56 | 316 | 2.0 | 10.0 | 0.00 | 0.00 | 0.00 | 35 | 1011.0 |
| 20260503071557 | 56 | 331 | 4.0 | 10.0 | 0.00 | 0.00 | 0.00 | 35 | 1011.0 |
| 20260503071529 | 56 | 307 | 6.0 | 10.0 | 0.00 | 0.00 | 0.00 | 35 | 1011.0 |
| 20260503071520 | 56 | 326 | 7.0 | 10.0 | 0.00 | 0.00 | 0.00 | 35 | 1011.0 |
| 20260503071505 | 56 | 327 | 4.0 | 9.0 | 0.00 | 0.00 | 0.00 | 35 | 1011.0 |
| 20260503071456 | 56 | 327 | 4.0 | 9.0 | 0.00 | 0.00 | 0.00 | 35 | 1011.0 |
| 20260503071448 | 56 | 323 | 7.0 | 9.0 | 0.00 | 0.00 | 0.00 | 35 | 1011.0 |
| 20260503071410 | 56 | 283 | 3.0 | 4.0 | 0.00 | 0.00 | 0.00 | 35 | 1010.0 |
| 20260503071337 | 56 | 291 | 3.0 | 4.0 | 0.00 | 0.00 | 0.00 | 35 | 1010.0 |
| 20260503071331 | 56 | 265 | 3.0 | 4.0 | 0.00 | 0.00 | 0.00 | 35 | 1010.0 |
| 20260503071304 | 56 | 273 | 3.0 | 4.0 | 0.00 | 0.00 | 0.00 | 35 | 1010.0 |
| 20260503071251 | 56 | 313 | 2.0 | 4.0 | 0.00 | 0.00 | 0.00 | 35 | 1010.0 |
| 20260503071233 | 56 | 251 | 2.0 | 4.0 | 0.00 | 0.00 | 0.00 | 35 | 1010.0 |
| 20260503071219 | 56 | 304 | 1.0 | 4.0 | 0.00 | 0.00 | 0.00 | 35 | 1011.0 |
| 20260503071211 | 56 | 325 | 3.0 | 4.0 | 0.00 | 0.00 | 0.00 | 35 | 1011.0 |
| 20260503071138 | 56 | 343 | 2.0 | 4.0 | 0.00 | 0.00 | 0.00 | 35 | 1011.0 |
| 20260503071125 | 56 | 295 | 2.0 | 8.0 | 0.00 | 0.00 | 0.00 | 35 | 1010.0 |
| 20260503071105 | 56 | 274 | 3.0 | 8.0 | 0.00 | 0.00 | 0.00 | 35 | 1010.0 |
| 20260503071056 | 56 | 270 | 2.0 | 8.0 | 0.00 | 0.00 | 0.00 | 35 | 1010.0 |
| 20260503071036 | 56 | 317 | 2.0 | 8.0 | 0.00 | 0.00 | 0.00 | 35 | 1010.0 |
| 20260503071030 | 56 | 285 | 2.0 | 8.0 | 0.00 | 0.00 | 0.00 | 35 | 1011.0 |
| 20260503071000 | 56 | 320 | 2.0 | 8.0 | 0.00 | 0.00 | 0.00 | 35 | 1011.0 |
| 20260503070950 | 56 | 280 | 5.0 | 8.0 | 0.00 | 0.00 | 0.00 | 35 | 1011.0 |
| 20260503070921 | 56 | 307 | 3.0 | 7.0 | 0.00 | 0.00 | 0.00 | 35 | 1010.0 |
| 20260503070904 | 56 | 307 | 4.0 | 6.0 | 0.00 | 0.00 | 0.00 | 35 | 1010.0 |
| 20260503070842 | 56 | 296 | 2.0 | 6.0 | 0.00 | 0.00 | 0.00 | 35 | 1010.0 |
| 20260503070833 | 56 | 264 | 4.0 | 6.0 | 0.00 | 0.00 | 0.00 | 35 | 1010.0 |
| 20260503070808 | 56 | 259 | 4.0 | 6.0 | 0.00 | 0.00 | 0.00 | 35 | 1011.0 |
| 20260503070756 | 56 | 305 | 4.0 | 6.0 | 0.00 | 0.00 | 0.00 | 35 | 1011.0 |
| 20260503070737 | 56 | 279 | 5.0 | 6.0 | 0.00 | 0.00 | 0.00 | 35 | 1011.0 |
| 20260503070716 | 56 | 304 | 3.0 | 6.0 | 0.00 | 0.00 | 0.00 | 35 | 1011.0 |
| 20260503070710 | 56 | 246 | 3.0 | 6.0 | 0.00 | 0.00 | 0.00 | 35 | 1011.0 |
| 20260503070640 | 56 | 323 | 3.0 | 6.0 | 0.00 | 0.00 | 0.00 | 35 | 1011.0 |
| 20260503070627 | 56 | 286 | 4.0 | 6.0 | 0.00 | 0.00 | 0.00 | 35 | 1011.0 |
| 20260503070609 | 56 | 287 | 4.0 | 4.0 | 0.00 | 0.00 | 0.00 | 35 | 1011.0 |
| 20260503070553 | 56 | 294 | 4.0 | 6.0 | 0.00 | 0.00 | 0.00 | 35 | 1011.0 |
| 20260503070537 | 56 | 281 | 3.0 | 6.0 | 0.00 | 0.00 | 0.00 | 35 | 1011.0 |
| 20260503070528 | 56 | 282 | 3.0 | 6.0 | 0.00 | 0.00 | 0.00 | 35 | 1011.0 |
| 20260503070508 | 56 | 301 | 3.0 | 6.0 | 0.00 | 0.00 | 0.00 | 35 | 1011.0 |
| 20260503070501 | 56 | 322 | 3.0 | 6.0 | 0.00 | 0.00 | 0.00 | 35 | 1011.0 |
| 20260503070441 | 56 | 290 | 3.0 | 6.0 | 0.00 | 0.00 | 0.00 | 35 | 1011.0 |
| 20260503070419 | 56 | 285 | 4.0 | 6.0 | 0.00 | 0.00 | 0.00 | 35 | 1010.0 |
| 20260503070400 | 56 | 309 | 3.0 | 7.0 | 0.00 | 0.00 | 0.00 | 35 | 1010.0 |
| 20260503070344 | 56 | 271 | 4.0 | 7.0 | 0.00 | 0.00 | 0.00 | 35 | 1010.0 |
| 20260503070330 | 56 | 280 | 4.0 | 7.0 | 0.00 | 0.00 | 0.00 | 35 | 1010.0 |
| 20260503070321 | 56 | 286 | 2.0 | 7.0 | 0.00 | 0.00 | 0.00 | 35 | 1010.0 |
| 20260503070306 | 56 | 292 | 2.0 | 7.0 | 0.00 | 0.00 | 0.00 | 35 | 1010.0 |
| 20260503070257 | 56 | 292 | 2.0 | 7.0 | 0.00 | 0.00 | 0.00 | 35 | 1010.0 |
| 20260503070241 | 56 | 297 | 3.0 | 7.0 | 0.00 | 0.00 | 0.00 | 35 | 1010.0 |
| 20260503070221 | 56 | 289 | 4.0 | 7.0 | 0.00 | 0.00 | 0.00 | 35 | 1011.0 |
| 20260503070202 | 56 | 277 | 4.0 | 7.0 | 0.00 | 0.00 | 0.00 | 35 | 1011.0 |
| 20260503070152 | 56 | 292 | 4.0 | 7.0 | 0.00 | 0.00 | 0.00 | 35 | 1011.0 |
| 20260503070137 | 56 | 306 | 4.0 | 6.0 | 0.00 | 0.00 | 0.00 | 35 | 1011.0 |
| 20260503070128 | 56 | 306 | 4.0 | 6.0 | 0.00 | 0.00 | 0.00 | 35 | 1010.0 |
| 20260503070118 | 56 | 297 | 3.0 | 4.0 | 0.00 | 0.00 | 0.00 | 35 | 1010.0 |
| 20260503060336 | 59 | 286 | 6.0 | 8.0 | 0.00 | 0.00 | 0.00 | 32 | 1010.0 |
| 20260503060314 | 59 | 282 | 4.0 | 8.0 | 0.00 | 0.00 | 0.00 | 32 | 1010.0 |
| 20260503060307 | 59 | 289 | 4.0 | 8.0 | 0.00 | 0.00 | 0.00 | 32 | 1010.0 |
| 20260503060243 | 59 | 282 | 6.0 | 8.0 | 0.00 | 0.00 | 0.00 | 32 | 1010.0 |
| 20260503060216 | 59 | 271 | 4.0 | 8.0 | 0.00 | 0.00 | 0.00 | 32 | 1010.0 |
| 20260503060202 | 59 | 239 | 2.0 | 8.0 | 0.00 | 0.00 | 0.00 | 32 | 1010.0 |
| 20260503060153 | 59 | 239 | 2.0 | 8.0 | 0.00 | 0.00 | 0.00 | 32 | 1010.0 |
| 20260503060144 | 59 | 268 | 2.0 | 8.0 | 0.00 | 0.00 | 0.00 | 32 | 1010.0 |
| 20260503060115 | 59 | 268 | 5.0 | 8.0 | 0.00 | 0.00 | 0.00 | 32 | 1010.0 |
| 20260503060106 | 59 | 265 | 5.0 | 8.0 | 0.00 | 0.00 | 0.00 | 32 | 1010.0 |
| 20260503055122 | 59 | 282 | 6.0 | 9.0 | 0.00 | 0.00 | 0.00 | 33 | 1010.0 |
| 20260503055032 | 59 | 281 | 3.0 | 8.0 | 0.00 | 0.00 | 0.00 | 33 | 1010.0 |
| 20260503055018 | 59 | 254 | 5.0 | 8.0 | 0.00 | 0.00 | 0.00 | 33 | 1010.0 |
| 20260503055000 | 59 | 284 | 5.0 | 8.0 | 0.00 | 0.00 | 0.00 | 33 | 1010.0 |
| 20260503054944 | 59 | 261 | 4.0 | 8.0 | 0.00 | 0.00 | 0.00 | 33 | 1010.0 |
| 20260503054929 | 59 | 250 | 6.0 | 8.0 | 0.00 | 0.00 | 0.00 | 33 | 1010.0 |
| 20260503054920 | 59 | 270 | 3.0 | 7.0 | 0.00 | 0.00 | 0.00 | 33 | 1010.0 |
| 20260503054905 | 59 | 274 | 4.0 | 7.0 | 0.00 | 0.00 | 0.00 | 33 | 1010.0 |
| 20260503054856 | 59 | 274 | 4.0 | 7.0 | 0.00 | 0.00 | 0.00 | 33 | 1010.0 |
| 20260503054841 | 59 | 260 | 4.0 | 7.0 | 0.00 | 0.00 | 0.00 | 33 | 1010.0 |
| 20260503054833 | 59 | 271 | 6.0 | 7.0 | 0.00 | 0.00 | 0.00 | 33 | 1010.0 |
| 20260503054816 | 59 | 232 | 4.0 | 6.0 | 0.00 | 0.00 | 0.00 | 33 | 1010.0 |
| 20260503054801 | 59 | 232 | 4.0 | 8.0 | 0.00 | 0.00 | 0.00 | 33 | 1010.0 |
| 20260503054752 | 59 | 262 | 3.0 | 8.0 | 0.00 | 0.00 | 0.00 | 33 | 1010.0 |
| 20260503054742 | 59 | 273 | 4.0 | 8.0 | 0.00 | 0.00 | 0.00 | 33 | 1010.0 |
| 20260503054706 | 59 | 296 | 3.0 | 8.0 | 0.00 | 0.00 | 0.00 | 33 | 1010.0 |
| 20260503054656 | 59 | 296 | 3.0 | 8.0 | 0.00 | 0.00 | 0.00 | 33 | 1010.0 |
| 20260503054645 | 59 | 240 | 4.0 | 8.0 | 0.00 | 0.00 | 0.00 | 33 | 1010.0 |
| 20260503054611 | 59 | 294 | 3.0 | 7.0 | 0.00 | 0.00 | 0.00 | 33 | 1010.0 |
| 20260503054548 | 59 | 273 | 4.0 | 7.0 | 0.00 | 0.00 | 0.00 | 33 | 1010.0 |
| 20260503054540 | 59 | 273 | 4.0 | 7.0 | 0.00 | 0.00 | 0.00 | 32 | 1010.0 |
| 20260503054523 | 59 | 258 | 4.0 | 7.0 | 0.00 | 0.00 | 0.00 | 32 | 1010.0 |
| 20260503054448 | 59 | 294 | 5.0 | 7.0 | 0.00 | 0.00 | 0.00 | 32 | 1010.0 |
| 20260503054433 | 59 | 279 | 3.0 | 6.0 | 0.00 | 0.00 | 0.00 | 33 | 1010.0 |
| 20260503054425 | 59 | 267 | 2.0 | 6.0 | 0.00 | 0.00 | 0.00 | 33 | 1010.0 |
| 20260503054408 | 59 | 328 | 3.0 | 6.0 | 0.00 | 0.00 | 0.00 | 33 | 1010.0 |
| 20260503054348 | 59 | 256 | 4.0 | 6.0 | 0.00 | 0.00 | 0.00 | 33 | 1010.0 |
| 20260503054328 | 59 | 312 | 4.0 | 7.0 | 0.00 | 0.00 | 0.00 | 33 | 1010.0 |
| 20260503054305 | 59 | 276 | 4.0 | 7.0 | 0.00 | 0.00 | 0.00 | 33 | 1010.0 |
| 20260503054256 | 59 | 270 | 5.0 | 7.0 | 0.00 | 0.00 | 0.00 | 33 | 1010.0 |
| 20260503054232 | 59 | 297 | 2.0 | 7.0 | 0.00 | 0.00 | 0.00 | 33 | 1010.0 |
| 20260503054220 | 59 | 264 | 4.0 | 7.0 | 0.00 | 0.00 | 0.00 | 33 | 1010.0 |
| 20260503054214 | 59 | 284 | 4.0 | 7.0 | 0.00 | 0.00 | 0.00 | 33 | 1010.0 |
| 20260503054144 | 59 | 270 | 4.0 | 7.0 | 0.00 | 0.00 | 0.00 | 33 | 1010.0 |
| 20260503054129 | 59 | 281 | 3.0 | 7.0 | 0.00 | 0.00 | 0.00 | 33 | 1010.0 |
| 20260503054104 | 59 | 261 | 3.0 | 7.0 | 0.00 | 0.00 | 0.00 | 33 | 1010.0 |
| 20260503054040 | 59 | 302 | 3.0 | 8.0 | 0.00 | 0.00 | 0.00 | 33 | 1010.0 |
| 20260503054025 | 59 | 307 | 4.0 | 11.0 | 0.00 | 0.00 | 0.00 | 33 | 1010.0 |
| 20260503054016 | 59 | 256 | 4.0 | 11.0 | 0.00 | 0.00 | 0.00 | 33 | 1010.0 |
| 20260503054000 | 59 | 283 | 4.0 | 11.0 | 0.00 | 0.00 | 0.00 | 33 | 1010.0 |
| 20260503053936 | 59 | 287 | 6.0 | 11.0 | 0.00 | 0.00 | 0.00 | 33 | 1010.0 |
| 20260503053913 | 59 | 285 | 4.0 | 11.0 | 0.00 | 0.00 | 0.00 | 33 | 1010.0 |
| 20260503053856 | 59 | 312 | 6.0 | 11.0 | 0.00 | 0.00 | 0.00 | 33 | 1010.0 |
| 20260503053841 | 59 | 276 | 4.0 | 7.0 | 0.00 | 0.00 | 0.00 | 33 | 1010.0 |
| 20260503053832 | 59 | 290 | 3.0 | 7.0 | 0.00 | 0.00 | 0.00 | 33 | 1010.0 |
| 20260503053820 | 59 | 291 | 5.0 | 7.0 | 0.00 | 0.00 | 0.00 | 33 | 1010.0 |
| 20260503053752 | 59 | 286 | 5.0 | 7.0 | 0.00 | 0.00 | 0.00 | 33 | 1010.0 |
| 20260503053739 | 59 | 271 | 5.0 | 7.0 | 0.00 | 0.00 | 0.00 | 33 | 1010.0 |
| 20260503053720 | 59 | 272 | 4.0 | 7.0 | 0.00 | 0.00 | 0.00 | 33 | 1010.0 |
| 20260503053704 | 59 | 289 | 4.0 | 7.0 | 0.00 | 0.00 | 0.00 | 33 | 1010.0 |
| 20260503053651 | 59 | 263 | 4.0 | 6.0 | 0.00 | 0.00 | 0.00 | 33 | 1010.0 |
| 20260503053616 | 59 | 294 | 3.0 | 6.0 | 0.00 | 0.00 | 0.00 | 33 | 1010.0 |
| 20260503053602 | 59 | 255 | 3.0 | 6.0 | 0.00 | 0.00 | 0.00 | 33 | 1010.0 |
| 20260503053544 | 59 | 265 | 3.0 | 6.0 | 0.00 | 0.00 | 0.00 | 33 | 1010.0 |
| 20260503053529 | 59 | 259 | 4.0 | 6.0 | 0.00 | 0.00 | 0.00 | 33 | 1010.0 |
| 20260503053520 | 59 | 276 | 4.0 | 6.0 | 0.00 | 0.00 | 0.00 | 33 | 1010.0 |
| 20260503053505 | 59 | 269 | 3.0 | 6.0 | 0.00 | 0.00 | 0.00 | 33 | 1010.0 |
| 20260503053456 | 59 | 269 | 3.0 | 6.0 | 0.00 | 0.00 | 0.00 | 33 | 1010.0 |
| 20260503053440 | 59 | 272 | 3.0 | 6.0 | 0.00 | 0.00 | 0.00 | 33 | 1010.0 |
| 20260503053428 | 59 | 255 | 4.0 | 7.0 | 0.00 | 0.00 | 0.00 | 33 | 1010.0 |
| 20260503053408 | 59 | 266 | 3.0 | 7.0 | 0.00 | 0.00 | 0.00 | 33 | 1010.0 |
| 20260503053352 | 59 | 273 | 4.0 | 7.0 | 0.00 | 0.00 | 0.00 | 33 | 1010.0 |
| 20260503053339 | 59 | 263 | 4.0 | 7.0 | 0.00 | 0.00 | 0.00 | 33 | 1010.0 |
| 20260503053313 | 59 | 257 | 5.0 | 7.0 | 0.00 | 0.00 | 0.00 | 33 | 1010.0 |
| 20260503053304 | 59 | 262 | 4.0 | 7.0 | 0.00 | 0.00 | 0.00 | 33 | 1010.0 |
| 20260503053242 | 59 | 257 | 4.0 | 7.0 | 0.00 | 0.00 | 0.00 | 33 | 1010.0 |
| 20260503053232 | 59 | 252 | 4.0 | 6.0 | 0.00 | 0.00 | 0.00 | 33 | 1010.0 |
| 20260503053208 | 59 | 261 | 4.0 | 6.0 | 0.00 | 0.00 | 0.00 | 33 | 1010.0 |
| 20260503053153 | 59 | 256 | 4.0 | 6.0 | 0.00 | 0.00 | 0.00 | 33 | 1010.0 |
| 20260503053144 | 59 | 250 | 4.0 | 6.0 | 0.00 | 0.00 | 0.00 | 33 | 1010.0 |
| 20260503053128 | 59 | 244 | 3.0 | 6.0 | 0.00 | 0.00 | 0.00 | 33 | 1010.0 |
| 20260503053104 | 59 | 256 | 4.0 | 6.0 | 0.00 | 0.00 | 0.00 | 33 | 1010.0 |
| 20260503053050 | 59 | 256 | 4.0 | 6.0 | 0.00 | 0.00 | 0.00 | 33 | 1010.0 |
| 20260503053024 | 59 | 265 | 4.0 | 6.0 | 0.00 | 0.00 | 0.00 | 34 | 1010.0 |
| 20260503053009 | 59 | 267 | 4.0 | 6.0 | 0.00 | 0.00 | 0.00 | 34 | 1010.0 |
| 20260503053000 | 59 | 228 | 3.0 | 6.0 | 0.00 | 0.00 | 0.00 | 34 | 1010.0 |
| 20260503052936 | 59 | 273 | 3.0 | 6.0 | 0.00 | 0.00 | 0.00 | 34 | 1010.0 |
| 20260503052922 | 59 | 257 | 3.0 | 6.0 | 0.00 | 0.00 | 0.00 | 34 | 1010.0 |
| 20260503052904 | 59 | 265 | 3.0 | 6.0 | 0.00 | 0.00 | 0.00 | 34 | 1010.0 |
| 20260503052849 | 59 | 283 | 4.0 | 6.0 | 0.00 | 0.00 | 0.00 | 34 | 1010.0 |
| 20260503052840 | 59 | 261 | 4.0 | 6.0 | 0.00 | 0.00 | 0.00 | 34 | 1010.0 |
| 20260503052827 | 59 | 246 | 4.0 | 7.0 | 0.00 | 0.00 | 0.00 | 33 | 1010.0 |
| 20260503052800 | 59 | 237 | 3.0 | 7.0 | 0.00 | 0.00 | 0.00 | 33 | 1010.0 |
| 20260503052746 | 59 | 271 | 4.0 | 7.0 | 0.00 | 0.00 | 0.00 | 33 | 1010.0 |
| 20260503052739 | 59 | 251 | 4.0 | 7.0 | 0.00 | 0.00 | 0.00 | 33 | 1010.0 |
| 20260503052716 | 59 | 272 | 4.0 | 7.0 | 0.00 | 0.00 | 0.00 | 33 | 1010.0 |
| 20260503052657 | 59 | 266 | 5.0 | 7.0 | 0.00 | 0.00 | 0.00 | 33 | 1010.0 |
| 20260503052648 | 59 | 257 | 5.0 | 7.0 | 0.00 | 0.00 | 0.00 | 33 | 1010.0 |
| 20260503052633 | 59 | 264 | 4.0 | 6.0 | 0.00 | 0.00 | 0.00 | 33 | 1010.0 |
| 20260503052624 | 59 | 264 | 4.0 | 6.0 | 0.00 | 0.00 | 0.00 | 34 | 1010.0 |
| 20260503052606 | 59 | 255 | 3.0 | 4.0 | 0.00 | 0.00 | 0.00 | 34 | 1010.0 |
| 20260503052539 | 59 | 266 | 3.0 | 4.0 | 0.00 | 0.00 | 0.00 | 34 | 1010.0 |
| 20260503052515 | 59 | 256 | 2.0 | 6.0 | 0.00 | 0.00 | 0.00 | 33 | 1010.0 |
| 20260503052508 | 59 | 265 | 3.0 | 6.0 | 0.00 | 0.00 | 0.00 | 33 | 1010.0 |
| 20260503052448 | 59 | 270 | 2.0 | 6.0 | 0.00 | 0.00 | 0.00 | 33 | 1010.0 |
| 20260503052434 | 59 | 265 | 3.0 | 6.0 | 0.00 | 0.00 | 0.00 | 33 | 1010.0 |
| 20260503052408 | 59 | 289 | 2.0 | 6.0 | 0.00 | 0.00 | 0.00 | 33 | 1010.0 |
| 20260503052354 | 59 | 262 | 4.0 | 6.0 | 0.00 | 0.00 | 0.00 | 33 | 1010.0 |
| 20260503052336 | 59 | 271 | 4.0 | 6.0 | 0.00 | 0.00 | 0.00 | 33 | 1010.0 |
| 20260503052320 | 59 | 269 | 3.0 | 4.0 | 0.00 | 0.00 | 0.00 | 33 | 1010.0 |
| 20260503052307 | 59 | 266 | 3.0 | 4.0 | 0.00 | 0.00 | 0.00 | 34 | 1010.0 |
| 20260503052259 | 59 | 273 | 2.0 | 4.0 | 0.00 | 0.00 | 0.00 | 34 | 1010.0 |
| 20260503052240 | 59 | 294 | 3.0 | 4.0 | 0.00 | 0.00 | 0.00 | 34 | 1010.0 |
| 20260503052216 | 59 | 232 | 2.0 | 6.0 | 0.00 | 0.00 | 0.00 | 34 | 1010.0 |
| 20260503052200 | 59 | 276 | 2.0 | 6.0 | 0.00 | 0.00 | 0.00 | 34 | 1010.0 |
| 20260503052147 | 59 | 264 | 2.0 | 6.0 | 0.00 | 0.00 | 0.00 | 34 | 1010.0 |
| 20260503052128 | 59 | 281 | 3.0 | 6.0 | 0.00 | 0.00 | 0.00 | 34 | 1010.0 |
| 20260503052104 | 59 | 272 | 3.0 | 6.0 | 0.00 | 0.00 | 0.00 | 34 | 1010.0 |
| 20260503052051 | 59 | 293 | 4.0 | 6.0 | 0.00 | 0.00 | 0.00 | 34 | 1010.0 |
| 20260503052043 | 59 | 245 | 5.0 | 6.0 | 0.00 | 0.00 | 0.00 | 34 | 1010.0 |
| 20260503052019 | 59 | 282 | 3.0 | 4.0 | 0.00 | 0.00 | 0.00 | 34 | 1010.0 |
| 20260503051952 | 58 | 308 | 2.0 | 4.0 | 0.00 | 0.00 | 0.00 | 34 | 1010.0 |
| 20260503051929 | 58 | 297 | 2.0 | 4.0 | 0.00 | 0.00 | 0.00 | 34 | 1010.0 |
| 20260503051920 | 58 | 277 | 3.0 | 4.0 | 0.00 | 0.00 | 0.00 | 34 | 1010.0 |
| 20260503051904 | 58 | 270 | 3.0 | 4.0 | 0.00 | 0.00 | 0.00 | 34 | 1010.0 |
| 20260503051842 | 58 | 268 | 2.0 | 4.0 | 0.00 | 0.00 | 0.00 | 34 | 1010.0 |
| 20260503051834 | 58 | 280 | 3.0 | 4.0 | 0.00 | 0.00 | 0.00 | 34 | 1010.0 |
| 20260503051809 | 58 | 275 | 3.0 | 7.0 | 0.00 | 0.00 | 0.00 | 34 | 1010.0 |
| 20260503051800 | 58 | 289 | 2.0 | 7.0 | 0.00 | 0.00 | 0.00 | 34 | 1010.0 |
| 20260503051744 | 58 | 292 | 2.0 | 7.0 | 0.00 | 0.00 | 0.00 | 35 | 1010.0 |
| 20260503051712 | 58 | 273 | 2.0 | 7.0 | 0.00 | 0.00 | 0.00 | 35 | 1010.0 |
| 20260503051657 | 58 | 299 | 3.0 | 7.0 | 0.00 | 0.00 | 0.00 | 35 | 1010.0 |
| 20260503051649 | 58 | 258 | 5.0 | 7.0 | 0.00 | 0.00 | 0.00 | 35 | 1010.0 |
| 20260503051633 | 58 | 262 | 3.0 | 6.0 | 0.00 | 0.00 | 0.00 | 35 | 1010.0 |
| 20260503051618 | 58 | 264 | 3.0 | 6.0 | 0.00 | 0.00 | 0.00 | 35 | 1010.0 |
| 20260503051556 | 58 | 268 | 3.0 | 7.0 | 0.00 | 0.00 | 0.00 | 35 | 1010.0 |
| 20260503051549 | 58 | 252 | 4.0 | 7.0 | 0.00 | 0.00 | 0.00 | 36 | 1010.0 |
| 20260503051520 | 58 | 280 | 3.0 | 7.0 | 0.00 | 0.00 | 0.00 | 36 | 1010.0 |
| 20260503051506 | 58 | 270 | 1.0 | 7.0 | 0.00 | 0.00 | 0.00 | 36 | 1010.0 |
| 20260503051459 | 58 | 286 | 2.0 | 7.0 | 0.00 | 0.00 | 0.00 | 36 | 1010.0 |
| 20260503051435 | 58 | 266 | 4.0 | 7.0 | 0.00 | 0.00 | 0.00 | 36 | 1010.0 |
| 20260503051418 | 58 | 267 | 4.0 | 7.0 | 0.00 | 0.00 | 0.00 | 36 | 1010.0 |
| 20260503051344 | 58 | 252 | 2.0 | 6.0 | 0.00 | 0.00 | 0.00 | 36 | 1010.0 |
| 20260503051328 | 58 | 265 | 2.0 | 6.0 | 0.00 | 0.00 | 0.00 | 36 | 1010.0 |
| 20260503051313 | 58 | 292 | 3.0 | 6.0 | 0.00 | 0.00 | 0.00 | 36 | 1010.0 |
| 20260503051304 | 58 | 272 | 4.0 | 6.0 | 0.00 | 0.00 | 0.00 | 36 | 1010.0 |
| 20260503051251 | 58 | 272 | 4.0 | 6.0 | 0.00 | 0.00 | 0.00 | 36 | 1010.0 |
| 20260503051244 | 58 | 256 | 2.0 | 3.0 | 0.00 | 0.00 | 0.00 | 36 | 1010.0 |
| 20260503051217 | 58 | 254 | 2.0 | 3.0 | 0.00 | 0.00 | 0.00 | 36 | 1010.0 |
| 20260503051208 | 58 | 279 | 2.0 | 3.0 | 0.00 | 0.00 | 0.00 | 36 | 1010.0 |
| 20260503051149 | 58 | 265 | 2.0 | 3.0 | 0.00 | 0.00 | 0.00 | 36 | 1010.0 |
| 20260503051142 | 58 | 253 | 2.0 | 3.0 | 0.00 | 0.00 | 0.00 | 36 | 1010.0 |
| 20260503051123 | 58 | 249 | 2.0 | 3.0 | 0.00 | 0.00 | 0.00 | 36 | 1010.0 |
| 20260503051104 | 58 | 272 | 3.0 | 3.0 | 0.00 | 0.00 | 0.00 | 36 | 1010.0 |
| 20260503051041 | 58 | 262 | 2.0 | 4.0 | 0.00 | 0.00 | 0.00 | 36 | 1010.0 |
| 20260503051024 | 57 | 299 | 2.0 | 4.0 | 0.00 | 0.00 | 0.00 | 36 | 1010.0 |
| 20260503051009 | 57 | 250 | 2.0 | 4.0 | 0.00 | 0.00 | 0.00 | 36 | 1010.0 |
| 20260503051000 | 57 | 257 | 2.0 | 4.0 | 0.00 | 0.00 | 0.00 | 36 | 1010.0 |
| 20260503050946 | 57 | 264 | 3.0 | 4.0 | 0.00 | 0.00 | 0.00 | 36 | 1010.0 |
| 20260503050920 | 57 | 270 | 4.0 | 4.0 | 0.00 | 0.00 | 0.00 | 36 | 1010.0 |
| 20260503050906 | 57 | 262 | 2.0 | 3.0 | 0.00 | 0.00 | 0.00 | 36 | 1010.0 |
| 20260503050848 | 57 | 297 | 2.0 | 3.0 | 0.00 | 0.00 | 0.00 | 36 | 1010.0 |
| 20260503050835 | 57 | 262 | 2.0 | 3.0 | 0.00 | 0.00 | 0.00 | 36 | 1010.0 |
| 20260503050810 | 57 | 279 | 2.0 | 3.0 | 0.00 | 0.00 | 0.00 | 36 | 1010.0 |
| 20260503050801 | 57 | 277 | 2.0 | 2.0 | 0.00 | 0.00 | 0.00 | 36 | 1010.0 |
| 20260503050744 | 57 | 285 | 0.0 | 1.0 | 0.00 | 0.00 | 0.00 | 36 | 1010.0 |
| 20260503050729 | 57 | 288 | 1.0 | 1.0 | 0.00 | 0.00 | 0.00 | 36 | 1010.0 |
| 20260503050717 | 57 | 289 | 1.0 | 1.0 | 0.00 | 0.00 | 0.00 | 37 | 1010.0 |
| 20260503050649 | 57 | 289 | 1.0 | 1.0 | 0.00 | 0.00 | 0.00 | 37 | 1010.0 |
| 20260503050633 | 57 | 287 | 1.0 | 1.0 | 0.00 | 0.00 | 0.00 | 37 | 1010.0 |
| 20260503050624 | 57 | 291 | 1.0 | 2.0 | 0.00 | 0.00 | 0.00 | 37 | 1010.0 |
| 20260503050612 | 57 | 279 | 1.0 | 2.0 | 0.00 | 0.00 | 0.00 | 37 | 1010.0 |
| 20260503050553 | 57 | 289 | 1.0 | 2.0 | 0.00 | 0.00 | 0.00 | 37 | 1010.0 |
| 20260503050537 | 57 | 284 | 0.0 | 2.0 | 0.00 | 0.00 | 0.00 | 37 | 1010.0 |
| 20260503050512 | 57 | 280 | 0.0 | 2.0 | 0.00 | 0.00 | 0.00 | 37 | 1010.0 |
| 20260503050500 | 57 | 285 | 1.0 | 2.0 | 0.00 | 0.00 | 0.00 | 37 | 1010.0 |
| 20260503050453 | 57 | 276 | 1.0 | 2.0 | 0.00 | 0.00 | 0.00 | 37 | 1010.0 |
| 20260503050425 | 57 | 297 | 2.0 | 2.0 | 0.00 | 0.00 | 0.00 | 37 | 1010.0 |
| 20260503050410 | 57 | 281 | 1.0 | 2.0 | 0.00 | 0.00 | 0.00 | 37 | 1010.0 |
| 20260503050344 | 57 | 303 | 0.0 | 2.0 | 0.00 | 0.00 | 0.00 | 37 | 1010.0 |
| 20260503050312 | 57 | 303 | 0.0 | 4.0 | 0.00 | 0.00 | 0.00 | 37 | 1010.0 |
| 20260503050258 | 56 | 303 | 0.0 | 6.0 | 0.00 | 0.00 | 0.00 | 38 | 1010.0 |
| 20260503050248 | 56 | 304 | 1.0 | 6.0 | 0.00 | 0.00 | 0.00 | 38 | 1010.0 |
| 20260503050228 | 56 | 302 | 1.0 | 6.0 | 0.00 | 0.00 | 0.00 | 38 | 1010.0 |
| 20260503050209 | 56 | 297 | 2.0 | 6.0 | 0.00 | 0.00 | 0.00 | 38 | 1010.0 |
| 20260503050152 | 56 | 299 | 2.0 | 6.0 | 0.00 | 0.00 | 0.00 | 38 | 1010.0 |
| 20260503050140 | 56 | 275 | 4.0 | 6.0 | 0.00 | 0.00 | 0.00 | 38 | 1010.0 |
| 20260503050121 | 56 | 276 | 4.0 | 4.0 | 0.00 | 0.00 | 0.00 | 38 | 1010.0 |
| 20260503050105 | 56 | 274 | 4.0 | 4.0 | 0.00 | 0.00 | 0.00 | 38 | 1010.0 |
| 20260503050057 | 56 | 279 | 3.0 | 4.0 | 0.00 | 0.00 | 0.00 | 38 | 1010.0 |
| 20260503050035 | 56 | 271 | 2.0 | 3.0 | 0.00 | 0.00 | 0.00 | 38 | 1010.0 |
| 20260503050009 | 56 | 271 | 0.0 | 2.0 | 0.00 | 0.00 | 0.00 | 38 | 1010.0 |
| 20260503050004 | 56 | 271 | 0.0 | 3.0 | 0.00 | 0.00 | 0.00 | 38 | 1010.0 |
| 20260503045938 | 56 | 279 | 0.0 | 3.0 | 0.00 | 0.00 | 0.00 | 38 | 1010.0 |
| 20260503045928 | 56 | 262 | 0.0 | 3.0 | 0.00 | 0.00 | 0.00 | 38 | 1010.0 |
| 20260503045907 | 56 | 289 | 1.0 | 3.0 | 0.00 | 0.00 | 0.00 | 38 | 1010.0 |
| 20260503045846 | 56 | 257 | 2.0 | 3.0 | 0.00 | 0.00 | 0.00 | 38 | 1010.0 |
| 20260503045817 | 56 | 271 | 2.0 | 3.0 | 0.00 | 0.00 | 0.00 | 38 | 1010.0 |
| 20260503045802 | 56 | 273 | 1.0 | 2.0 | 0.00 | 0.00 | 0.00 | 38 | 1010.0 |
| 20260503045756 | 56 | 288 | 2.0 | 2.0 | 0.00 | 0.00 | 0.00 | 38 | 1010.0 |
| 20260503045730 | 56 | 281 | 2.0 | 2.0 | 0.00 | 0.00 | 0.00 | 38 | 1010.0 |
| 20260503045720 | 56 | 305 | 2.0 | 2.0 | 0.00 | 0.00 | 0.00 | 38 | 1010.0 |
| 20260503045705 | 56 | 303 | 1.0 | 1.0 | 0.00 | 0.00 | 0.00 | 38 | 1010.0 |
| 20260503045641 | 56 | 303 | 1.0 | 1.0 | 0.00 | 0.00 | 0.00 | 38 | 1010.0 |
| 20260503045625 | 55 | 303 | 0.0 | 3.0 | 0.00 | 0.00 | 0.00 | 38 | 1010.0 |
| 20260503045605 | 55 | 306 | 0.0 | 3.0 | 0.00 | 0.00 | 0.00 | 38 | 1010.0 |
| 20260503045559 | 55 | 306 | 0.0 | 3.0 | 0.00 | 0.00 | 0.00 | 38 | 1010.0 |
| 20260503045505 | 55 | 306 | 0.0 | 3.0 | 0.00 | 0.00 | 0.00 | 38 | 1010.0 |
| 20260503045453 | 55 | 304 | 2.0 | 3.0 | 0.00 | 0.00 | 0.00 | 38 | 1010.0 |
| 20260503045432 | 55 | 303 | 2.0 | 2.0 | 0.00 | 0.00 | 0.00 | 38 | 1010.0 |
| 20260503045408 | 55 | 290 | 1.0 | 2.0 | 0.00 | 0.00 | 0.00 | 38 | 1010.0 |
| 20260503045338 | 55 | 223 | 0.0 | 1.0 | 0.00 | 0.00 | 0.00 | 38 | 1010.0 |
| 20260503045328 | 55 | 222 | 0.0 | 2.0 | 0.00 | 0.00 | 0.00 | 38 | 1010.0 |
| 20260503045318 | 55 | 221 | 0.0 | 2.0 | 0.00 | 0.00 | 0.00 | 39 | 1010.0 |
| 20260503045248 | 55 | 223 | 0.0 | 2.0 | 0.00 | 0.00 | 0.00 | 39 | 1010.0 |
| 20260503045232 | 55 | 246 | 0.0 | 2.0 | 0.00 | 0.00 | 0.00 | 39 | 1010.0 |
| 20260503045218 | 55 | 260 | 1.0 | 2.0 | 0.00 | 0.00 | 0.00 | 38 | 1010.0 |
| 20260503045208 | 55 | 267 | 1.0 | 2.0 | 0.00 | 0.00 | 0.00 | 38 | 1010.0 |
| 20260503045144 | 55 | 270 | 2.0 | 2.0 | 0.00 | 0.00 | 0.00 | 38 | 1010.0 |
| 20260503045128 | 55 | 263 | 1.0 | 2.0 | 0.00 | 0.00 | 0.00 | 38 | 1010.0 |
| 20260503045115 | 55 | 265 | 2.0 | 2.0 | 0.00 | 0.00 | 0.00 | 38 | 1010.0 |
| 20260503045106 | 55 | 265 | 0.0 | 0.0 | 0.00 | 0.00 | 0.00 | 38 | 1010.0 |
| 20260503045056 | 55 | 265 | 0.0 | 0.0 | 0.00 | 0.00 | 0.00 | 38 | 1010.0 |
| 20260503045041 | 55 | 262 | 0.0 | 0.0 | 0.00 | 0.00 | 0.00 | 38 | 1010.0 |
| 20260503045016 | 55 | 264 | 0.0 | 0.0 | 0.00 | 0.00 | 0.00 | 38 | 1010.0 |
| 20260503045002 | 55 | 242 | 0.0 | 0.0 | 0.00 | 0.00 | 0.00 | 38 | 1010.0 |
| 20260503044920 | 55 | 242 | 0.0 | 0.0 | 0.00 | 0.00 | 0.00 | 38 | 1010.0 |
| 20260503044905 | 55 | 242 | 0.0 | 0.0 | 0.00 | 0.00 | 0.00 | 37 | 1010.0 |
| 20260503044833 | 55 | 242 | 0.0 | 0.0 | 0.00 | 0.00 | 0.00 | 37 | 1010.0 |
| 20260503044803 | 55 | 242 | 0.0 | 1.0 | 0.00 | 0.00 | 0.00 | 37 | 1010.0 |
| 20260503044756 | 55 | 242 | 0.0 | 1.0 | 0.00 | 0.00 | 0.00 | 37 | 1010.0 |
| 20260503044743 | 55 | 243 | 0.0 | 1.0 | 0.00 | 0.00 | 0.00 | 37 | 1010.0 |
| 20260503044648 | 55 | 242 | 1.0 | 1.0 | 0.00 | 0.00 | 0.00 | 37 | 1010.0 |
| 20260503044635 | 55 | 265 | 0.0 | 0.0 | 0.00 | 0.00 | 0.00 | 37 | 1010.0 |
| 20260503044612 | 55 | 262 | 0.0 | 0.0 | 0.00 | 0.00 | 0.00 | 37 | 1010.0 |
| 20260503044605 | 55 | 258 | 0.0 | 0.0 | 0.00 | 0.00 | 0.00 | 37 | 1010.0 |
| 20260503044537 | 55 | 255 | 0.0 | 0.0 | 0.00 | 0.00 | 0.00 | 37 | 1010.0 |
| 20260503044520 | 55 | 254 | 0.0 | 0.0 | 0.00 | 0.00 | 0.00 | 37 | 1010.0 |
| 20260503044505 | 55 | 261 | 0.0 | 0.0 | 0.00 | 0.00 | 0.00 | 37 | 1010.0 |
| 20260503044433 | 55 | 261 | 0.0 | 0.0 | 0.00 | 0.00 | 0.00 | 37 | 1010.0 |
| 20260503044312 | 55 | 261 | 0.0 | 0.0 | 0.00 | 0.00 | 0.00 | 37 | 1010.0 |
| 20260503044257 | 55 | 261 | 0.0 | 0.0 | 0.00 | 0.00 | 0.00 | 37 | 1010.0 |
| 20260503044208 | 55 | 261 | 0.0 | 0.0 | 0.00 | 0.00 | 0.00 | 37 | 1010.0 |
| 20260503044137 | 55 | 261 | 0.0 | 0.0 | 0.00 | 0.00 | 0.00 | 37 | 1010.0 |
| 20260503044113 | 55 | 262 | 0.0 | 0.0 | 0.00 | 0.00 | 0.00 | 37 | 1010.0 |
| 20260503044105 | 55 | 261 | 0.0 | 0.0 | 0.00 | 0.00 | 0.00 | 37 | 1010.0 |
| 20260503044048 | 55 | 271 | 0.0 | 0.0 | 0.00 | 0.00 | 0.00 | 37 | 1010.0 |
| 20260503044036 | 55 | 279 | 0.0 | 0.0 | 0.00 | 0.00 | 0.00 | 36 | 1010.0 |
| 20260503044016 | 55 | 280 | 0.0 | 0.0 | 0.00 | 0.00 | 0.00 | 36 | 1010.0 |
| 20260503044000 | 55 | 281 | 0.0 | 0.0 | 0.00 | 0.00 | 0.00 | 36 | 1010.0 |
| 20260503043907 | 55 | 286 | 0.0 | 0.0 | 0.00 | 0.00 | 0.00 | 36 | 1010.0 |
| 20260503043841 | 55 | 286 | 0.0 | 0.0 | 0.00 | 0.00 | 0.00 | 36 | 1010.0 |
| 20260503043801 | 56 | 286 | 0.0 | 0.0 | 0.00 | 0.00 | 0.00 | 36 | 1010.0 |
| 20260503043712 | 56 | 286 | 0.0 | 0.0 | 0.00 | 0.00 | 0.00 | 36 | 1010.0 |
| 20260503043649 | 56 | 286 | 0.0 | 0.0 | 0.00 | 0.00 | 0.00 | 36 | 1010.0 |
| 20260503043608 | 56 | 286 | 0.0 | 0.0 | 0.00 | 0.00 | 0.00 | 36 | 1010.0 |
| 20260503043504 | 56 | 286 | 0.0 | 0.0 | 0.00 | 0.00 | 0.00 | 36 | 1010.0 |
| 20260503043400 | 56 | 286 | 0.0 | 0.0 | 0.00 | 0.00 | 0.00 | 36 | 1010.0 |
| 20260503043305 | 56 | 286 | 0.0 | 0.0 | 0.00 | 0.00 | 0.00 | 36 | 1010.0 |
| 20260503043242 | 56 | 286 | 0.0 | 0.0 | 0.00 | 0.00 | 0.00 | 36 | 1010.0 |
| 20260503043200 | 56 | 286 | 0.0 | 0.0 | 0.00 | 0.00 | 0.00 | 36 | 1010.0 |
| 20260503043104 | 56 | 286 | 0.0 | 0.0 | 0.00 | 0.00 | 0.00 | 36 | 1010.0 |
| 20260503043019 | 56 | 286 | 0.0 | 0.0 | 0.00 | 0.00 | 0.00 | 36 | 1010.0 |
| 20260503042923 | 56 | 286 | 0.0 | 0.0 | 0.00 | 0.00 | 0.00 | 35 | 1010.0 |
| 20260503042808 | 56 | 286 | 0.0 | 0.0 | 0.00 | 0.00 | 0.00 | 35 | 1010.0 |
| 20260503042744 | 56 | 286 | 0.0 | 0.0 | 0.00 | 0.00 | 0.00 | 35 | 1010.0 |
| 20260503042704 | 56 | 286 | 0.0 | 0.0 | 0.00 | 0.00 | 0.00 | 35 | 1010.0 |
| 20260503042649 | 56 | 286 | 0.0 | 0.0 | 0.00 | 0.00 | 0.00 | 35 | 1010.0 |
| 20260503042600 | 57 | 286 | 0.0 | 0.0 | 0.00 | 0.00 | 0.00 | 35 | 1010.0 |
| 20260503042513 | 57 | 286 | 0.0 | 0.0 | 0.00 | 0.00 | 0.00 | 35 | 1010.0 |
| 20260503042409 | 57 | 286 | 0.0 | 0.0 | 0.00 | 0.00 | 0.00 | 35 | 1010.0 |
| 20260503042307 | 57 | 286 | 0.0 | 0.0 | 0.00 | 0.00 | 0.00 | 35 | 1010.0 |
| 20260503042201 | 57 | 286 | 0.0 | 0.0 | 0.00 | 0.00 | 0.00 | 35 | 1010.0 |
| 20260503042139 | 57 | 286 | 0.0 | 0.0 | 0.00 | 0.00 | 0.00 | 35 | 1010.0 |
| 20260503042105 | 57 | 286 | 0.0 | 0.0 | 0.00 | 0.00 | 0.00 | 35 | 1010.0 |
| 20260503042001 | 57 | 286 | 0.0 | 0.0 | 0.00 | 0.00 | 0.00 | 35 | 1010.0 |
| 20260503041936 | 57 | 286 | 0.0 | 0.0 | 0.00 | 0.00 | 0.00 | 35 | 1010.0 |
| 20260503041912 | 57 | 287 | 0.0 | 0.0 | 0.00 | 0.00 | 0.00 | 35 | 1010.0 |
| 20260503041818 | 57 | 287 | 0.0 | 0.0 | 0.00 | 0.00 | 0.00 | 35 | 1010.0 |
| 20260503041809 | 58 | 287 | 0.0 | 0.0 | 0.00 | 0.00 | 0.00 | 35 | 1010.0 |
| 20260503041800 | 58 | 288 | 0.0 | 0.0 | 0.00 | 0.00 | 0.00 | 35 | 1010.0 |
| 20260503041704 | 58 | 288 | 0.0 | 0.0 | 0.00 | 0.00 | 0.00 | 35 | 1010.0 |
| 20260503041636 | 58 | 288 | 0.0 | 0.0 | 0.00 | 0.00 | 0.00 | 35 | 1010.0 |
| 20260503041612 | 58 | 288 | 0.0 | 1.0 | 0.00 | 0.00 | 0.00 | 35 | 1010.0 |
| 20260503041604 | 58 | 288 | 0.0 | 2.0 | 0.00 | 0.00 | 0.00 | 35 | 1010.0 |
| 20260503041515 | 58 | 288 | 0.0 | 2.0 | 0.00 | 0.00 | 0.00 | 35 | 1010.0 |
| 20260503041456 | 58 | 289 | 1.0 | 2.0 | 0.00 | 0.00 | 0.00 | 35 | 1010.0 |
| 20260503041433 | 58 | 290 | 1.0 | 2.0 | 0.00 | 0.00 | 0.00 | 35 | 1010.0 |
| 20260503041424 | 58 | 293 | 1.0 | 2.0 | 0.00 | 0.00 | 0.00 | 35 | 1010.0 |
| 20260503041400 | 58 | 293 | 1.0 | 1.0 | 0.00 | 0.00 | 0.00 | 35 | 1010.0 |
| 20260503041346 | 58 | 296 | 1.0 | 1.0 | 0.00 | 0.00 | 0.00 | 35 | 1010.0 |
| 20260503041328 | 58 | 296 | 0.0 | 1.0 | 0.00 | 0.00 | 0.00 | 35 | 1010.0 |
| 20260503041304 | 58 | 296 | 0.0 | 0.0 | 0.00 | 0.00 | 0.00 | 35 | 1010.0 |
| 20260503041231 | 58 | 296 | 0.0 | 0.0 | 0.00 | 0.00 | 0.00 | 35 | 1010.0 |
| 20260503041202 | 58 | 296 | 0.0 | 1.0 | 0.00 | 0.00 | 0.00 | 35 | 1010.0 |
| 20260503041105 | 58 | 296 | 0.0 | 1.0 | 0.00 | 0.00 | 0.00 | 35 | 1010.0 |
| 20260503041010 | 58 | 296 | 0.0 | 1.0 | 0.00 | 0.00 | 0.00 | 35 | 1010.0 |
| 20260503040938 | 58 | 296 | 1.0 | 1.0 | 0.00 | 0.00 | 0.00 | 35 | 1010.0 |
| 20260503040834 | 58 | 296 | 0.0 | 1.0 | 0.00 | 0.00 | 0.00 | 35 | 1010.0 |
| 20260503040801 | 58 | 296 | 1.0 | 1.0 | 0.00 | 0.00 | 0.00 | 35 | 1010.0 |
| 20260503040752 | 58 | 296 | 0.0 | 1.0 | 0.00 | 0.00 | 0.00 | 35 | 1010.0 |
| 20260503040737 | 58 | 293 | 0.0 | 0.0 | 0.00 | 0.00 | 0.00 | 35 | 1010.0 |
| 20260503040705 | 58 | 293 | 0.0 | 1.0 | 0.00 | 0.00 | 0.00 | 35 | 1010.0 |
| 20260503040632 | 58 | 293 | 0.0 | 1.0 | 0.00 | 0.00 | 0.00 | 35 | 1010.0 |
| 20260503040617 | 58 | 275 | 0.0 | 1.0 | 0.00 | 0.00 | 0.00 | 35 | 1010.0 |
| 20260503040608 | 58 | 273 | 0.0 | 1.0 | 0.00 | 0.00 | 0.00 | 35 | 1010.0 |
| 20260503040552 | 58 | 261 | 0.0 | 1.0 | 0.00 | 0.00 | 0.00 | 35 | 1010.0 |
| 20260503040528 | 58 | 260 | 0.0 | 1.0 | 0.00 | 0.00 | 0.00 | 35 | 1010.0 |
| 20260503040515 | 59 | 248 | 0.0 | 0.0 | 0.00 | 0.00 | 0.00 | 35 | 1010.0 |
| 20260503040400 | 59 | 248 | 0.0 | 0.0 | 0.00 | 0.00 | 0.00 | 35 | 1010.0 |
| 20260503040316 | 59 | 248 | 0.0 | 0.0 | 0.00 | 0.00 | 0.00 | 35 | 1010.0 |
| 20260503040242 | 59 | 248 | 0.0 | 0.0 | 0.00 | 0.00 | 0.00 | 35 | 1010.0 |
| 20260503040209 | 59 | 248 | 0.0 | 0.0 | 0.00 | 0.00 | 0.00 | 35 | 1010.0 |
| 20260503040133 | 59 | 248 | 0.0 | 0.0 | 0.00 | 0.00 | 0.00 | 35 | 1010.0 |
| 20260503040059 | 59 | 248 | 0.0 | 0.0 | 0.00 | 0.00 | 0.00 | 35 | 1010.0 |
| 20260503040029 | 59 | 248 | 0.0 | 0.0 | 0.00 | 0.00 | 0.00 | 35 | 1010.0 |
| 20260503035912 | 59 | 248 | 0.0 | 0.0 | 0.00 | 0.00 | 0.00 | 35 | 1010.0 |
| 20260503035802 | 59 | 248 | 0.0 | 0.0 | 0.00 | 0.00 | 0.00 | 35 | 1010.0 |
| 20260503035756 | 59 | 248 | 0.0 | 0.0 | 0.00 | 0.00 | 0.00 | 34 | 1010.0 |
| 20260503035700 | 59 | 247 | 0.0 | 0.0 | 0.00 | 0.00 | 0.00 | 34 | 1010.0 |
| 20260503035632 | 59 | 247 | 0.0 | 0.0 | 0.00 | 0.00 | 0.00 | 34 | 1010.0 |
| 20260503035612 | 59 | 248 | 0.0 | 0.0 | 0.00 | 0.00 | 0.00 | 34 | 1010.0 |
| 20260503035537 | 59 | 248 | 0.0 | 0.0 | 0.00 | 0.00 | 0.00 | 34 | 1010.0 |
| 20260503035512 | 59 | 247 | 0.0 | 0.0 | 0.00 | 0.00 | 0.00 | 34 | 1010.0 |
| 20260503035408 | 59 | 247 | 0.0 | 0.0 | 0.00 | 0.00 | 0.00 | 34 | 1010.0 |
| 20260503035344 | 59 | 247 | 0.0 | 0.0 | 0.00 | 0.00 | 0.00 | 34 | 1010.0 |
| 20260503035313 | 60 | 247 | 0.0 | 0.0 | 0.00 | 0.00 | 0.00 | 33 | 1010.0 |
| 20260503035249 | 60 | 247 | 0.0 | 0.0 | 0.00 | 0.00 | 0.00 | 33 | 1010.0 |
| 20260503035236 | 60 | 248 | 0.0 | 0.0 | 0.00 | 0.00 | 0.00 | 33 | 1010.0 |
| 20260503035201 | 60 | 247 | 0.0 | 0.0 | 0.00 | 0.00 | 0.00 | 33 | 1010.0 |
| 20260503035112 | 60 | 247 | 0.0 | 0.0 | 0.00 | 0.00 | 0.00 | 33 | 1010.0 |
| 20260503035056 | 60 | 247 | 0.0 | 0.0 | 0.00 | 0.00 | 0.00 | 33 | 1010.0 |
| 20260503035009 | 60 | 248 | 0.0 | 0.0 | 0.00 | 0.00 | 0.00 | 33 | 1010.0 |
| 20260503034907 | 60 | 248 | 0.0 | 0.0 | 0.00 | 0.00 | 0.00 | 33 | 1010.0 |
| 20260503034836 | 60 | 248 | 0.0 | 0.0 | 0.00 | 0.00 | 0.00 | 33 | 1010.0 |
| 20260503034806 | 60 | 248 | 0.0 | 0.0 | 0.00 | 0.00 | 0.00 | 34 | 1010.0 |
| 20260503034732 | 60 | 248 | 0.0 | 0.0 | 0.00 | 0.00 | 0.00 | 34 | 1010.0 |
| 20260503034713 | 60 | 247 | 0.0 | 0.0 | 0.00 | 0.00 | 0.00 | 34 | 1010.0 |
| 20260503034602 | 60 | 247 | 0.0 | 0.0 | 0.00 | 0.00 | 0.00 | 34 | 1010.0 |
| 20260503034507 | 60 | 247 | 0.0 | 0.0 | 0.00 | 0.00 | 0.00 | 34 | 1010.0 |
| 20260503034404 | 60 | 247 | 0.0 | 0.0 | 0.00 | 0.00 | 0.00 | 34 | 1010.0 |
| 20260503034345 | 60 | 247 | 0.0 | 0.0 | 0.00 | 0.00 | 0.00 | 34 | 1010.0 |
| 20260503034306 | 60 | 247 | 0.0 | 0.0 | 0.00 | 0.00 | 0.00 | 34 | 1010.0 |
| 20260503034243 | 60 | 247 | 0.0 | 0.0 | 0.00 | 0.00 | 0.00 | 33 | 1010.0 |
| 20260503034214 | 60 | 246 | 0.0 | 0.0 | 0.00 | 0.00 | 0.00 | 33 | 1010.0 |
| 20260503034104 | 60 | 246 | 0.0 | 0.0 | 0.00 | 0.00 | 0.00 | 34 | 1010.0 |
| 20260503034024 | 60 | 246 | 0.0 | 0.0 | 0.00 | 0.00 | 0.00 | 34 | 1010.0 |
| 20260503034011 | 60 | 245 | 0.0 | 0.0 | 0.00 | 0.00 | 0.00 | 34 | 1010.0 |
| 20260503033904 | 60 | 245 | 0.0 | 0.0 | 0.00 | 0.00 | 0.00 | 34 | 1010.0 |
| 20260503033850 | 60 | 245 | 0.0 | 0.0 | 0.00 | 0.00 | 0.00 | 34 | 1010.0 |
| 20260503033812 | 60 | 245 | 0.0 | 0.0 | 0.00 | 0.00 | 0.00 | 32 | 1010.0 |
| 20260503033738 | 60 | 245 | 0.0 | 0.0 | 0.00 | 0.00 | 0.00 | 32 | 1010.0 |
| 20260503033705 | 60 | 245 | 0.0 | 0.0 | 0.00 | 0.00 | 0.00 | 32 | 1010.0 |
| 20260503033643 | 60 | 245 | 0.0 | 0.0 | 0.00 | 0.00 | 0.00 | 32 | 1010.0 |
| 20260503033600 | 61 | 245 | 0.0 | 0.0 | 0.00 | 0.00 | 0.00 | 32 | 1010.0 |
| 20260503033515 | 61 | 245 | 0.0 | 0.0 | 0.00 | 0.00 | 0.00 | 32 | 1010.0 |
| 20260503033403 | 61 | 245 | 0.0 | 0.0 | 0.00 | 0.00 | 0.00 | 32 | 1010.0 |
| 20260503033312 | 61 | 245 | 0.0 | 0.0 | 0.00 | 0.00 | 0.00 | 32 | 1010.0 |
| 20260503033203 | 61 | 245 | 0.0 | 0.0 | 0.00 | 0.00 | 0.00 | 32 | 1010.0 |
| 20260503033120 | 61 | 245 | 0.0 | 0.0 | 0.00 | 0.00 | 0.00 | 32 | 1010.0 |
| 20260503033109 | 61 | 245 | 0.0 | 0.0 | 0.00 | 0.00 | 0.00 | 31 | 1010.0 |
| 20260503033004 | 61 | 245 | 0.0 | 0.0 | 0.00 | 0.00 | 0.00 | 31 | 1010.0 |
| 20260503032914 | 61 | 245 | 0.0 | 0.0 | 0.00 | 0.00 | 0.00 | 31 | 1010.0 |
| 20260503032905 | 61 | 245 | 0.0 | 0.0 | 0.00 | 0.00 | 0.00 | 30 | 1010.0 |
| 20260503032800 | 61 | 245 | 0.0 | 0.0 | 0.00 | 0.00 | 0.00 | 30 | 1010.0 |
| 20260503032717 | 61 | 245 | 0.0 | 0.0 | 0.00 | 0.00 | 0.00 | 30 | 1010.0 |
| 20260503032601 | 62 | 245 | 0.0 | 0.0 | 0.00 | 0.00 | 0.00 | 30 | 1010.0 |
| 20260503032517 | 62 | 245 | 0.0 | 0.0 | 0.00 | 0.00 | 0.00 | 30 | 1010.0 |
| 20260503032443 | 62 | 245 | 0.0 | 0.0 | 0.00 | 0.00 | 0.00 | 30 | 1010.0 |
| 20260503032400 | 62 | 245 | 0.0 | 0.0 | 0.00 | 0.00 | 0.00 | 30 | 1010.0 |
| 20260503032305 | 62 | 245 | 0.0 | 0.0 | 0.00 | 0.00 | 0.00 | 30 | 1010.0 |
| 20260503032242 | 62 | 245 | 0.0 | 0.0 | 0.00 | 0.00 | 0.00 | 30 | 1010.0 |
| 20260503032200 | 62 | 245 | 0.0 | 0.0 | 0.00 | 0.00 | 0.00 | 30 | 1010.0 |
| 20260503032148 | 62 | 245 | 0.0 | 0.0 | 0.00 | 0.00 | 0.00 | 30 | 1010.0 |
| 20260503032143 | 62 | 245 | 0.0 | 0.0 | 0.00 | 0.00 | 0.00 | 29 | 1010.0 |
| 20260503032112 | 62 | 245 | 0.0 | 0.0 | 0.00 | 0.00 | 0.00 | 29 | 1010.0 |
| 20260503032028 | 62 | 245 | 0.0 | 0.0 | 0.00 | 0.00 | 0.00 | 29 | 1010.0 |
| 20260503032001 | 62 | 245 | 0.0 | 0.0 | 0.00 | 0.00 | 0.00 | 29 | 1010.0 |
| 20260503031941 | 62 | 245 | 0.0 | 0.0 | 0.00 | 0.00 | 0.00 | 29 | 1010.0 |
| 20260503031906 | 62 | 245 | 0.0 | 0.0 | 0.00 | 0.00 | 0.00 | 29 | 1010.0 |
| 20260503031800 | 62 | 245 | 0.0 | 0.0 | 0.00 | 0.00 | 0.00 | 29 | 1010.0 |
| 20260503031743 | 62 | 245 | 0.0 | 0.0 | 0.00 | 0.00 | 0.00 | 29 | 1010.0 |
| 20260503031726 | 63 | 245 | 0.0 | 0.0 | 0.00 | 0.00 | 0.00 | 29 | 1010.0 |
| 20260503031635 | 63 | 245 | 0.0 | 0.0 | 0.00 | 0.00 | 0.00 | 29 | 1010.0 |
| 20260503031600 | 63 | 245 | 0.0 | 0.0 | 0.00 | 0.00 | 0.00 | 29 | 1010.0 |
| 20260503031549 | 63 | 245 | 0.0 | 0.0 | 0.00 | 0.00 | 0.00 | 29 | 1010.0 |
| 20260503031512 | 63 | 245 | 0.0 | 0.0 | 0.00 | 0.00 | 0.00 | 29 | 1010.0 |
| 20260503031409 | 63 | 245 | 0.0 | 0.0 | 0.00 | 0.00 | 0.00 | 29 | 1010.0 |
| 20260503031304 | 63 | 245 | 0.0 | 0.0 | 0.00 | 0.00 | 0.00 | 29 | 1010.0 |
| 20260503031209 | 63 | 245 | 0.0 | 0.0 | 0.00 | 0.00 | 0.00 | 29 | 1010.0 |
| 20260503031200 | 63 | 245 | 0.0 | 0.0 | 0.00 | 0.00 | 0.00 | 28 | 1010.0 |
| 20260503031104 | 63 | 245 | 0.0 | 0.0 | 0.00 | 0.00 | 0.00 | 28 | 1010.0 |
| 20260503031001 | 63 | 245 | 0.0 | 0.0 | 0.00 | 0.00 | 0.00 | 28 | 1010.0 |
| 20260503030904 | 63 | 245 | 0.0 | 0.0 | 0.00 | 0.00 | 0.00 | 28 | 1010.0 |
| 20260503030823 | 64 | 245 | 0.0 | 0.0 | 0.00 | 0.00 | 0.00 | 28 | 1010.0 |
| 20260503030754 | 64 | 245 | 0.0 | 0.0 | 0.00 | 0.00 | 0.00 | 28 | 1010.0 |
| 20260503030705 | 64 | 245 | 0.0 | 0.0 | 0.00 | 0.00 | 0.00 | 28 | 1010.0 |
| 20260503030656 | 64 | 245 | 0.0 | 0.0 | 0.00 | 0.00 | 0.00 | 28 | 1010.0 |
| 20260503030600 | 64 | 245 | 0.0 | 0.0 | 0.00 | 0.00 | 0.00 | 28 | 1010.0 |
| 20260503030506 | 64 | 245 | 0.0 | 0.0 | 0.00 | 0.00 | 0.00 | 28 | 1010.0 |
| 20260503030448 | 64 | 245 | 0.0 | 0.0 | 0.00 | 0.00 | 0.00 | 28 | 1010.0 |
| 20260503030401 | 64 | 245 | 0.0 | 0.0 | 0.00 | 0.00 | 0.00 | 27 | 1010.0 |
| 20260503030313 | 64 | 245 | 0.0 | 0.0 | 0.00 | 0.00 | 0.00 | 27 | 1010.0 |
| 20260503030202 | 64 | 245 | 0.0 | 0.0 | 0.00 | 0.00 | 0.00 | 27 | 1010.0 |
| 20260503030106 | 64 | 246 | 0.0 | 0.0 | 0.00 | 0.00 | 0.00 | 27 | 1010.0 |
| 20260503030038 | 64 | 246 | 0.0 | 0.0 | 0.00 | 0.00 | 0.00 | 27 | 1010.0 |
| 20260503030009 | 65 | 246 | 0.0 | 0.0 | 0.00 | 0.00 | 0.00 | 27 | 1010.0 |
| 20260503025944 | 65 | 246 | 0.0 | 0.0 | 0.00 | 0.00 | 0.00 | 27 | 1010.0 |
| 20260503025908 | 65 | 246 | 0.0 | 0.0 | 0.00 | 0.00 | 0.00 | 27 | 1010.0 |
| 20260503025808 | 65 | 246 | 0.0 | 0.0 | 0.00 | 0.00 | 0.00 | 27 | 1010.0 |
| 20260503025704 | 65 | 246 | 0.0 | 0.0 | 0.00 | 0.00 | 0.00 | 27 | 1010.0 |
| 20260503025600 | 65 | 246 | 0.0 | 0.0 | 0.00 | 0.00 | 0.00 | 27 | 1010.0 |
| 20260503025505 | 65 | 246 | 0.0 | 0.0 | 0.00 | 0.00 | 0.00 | 27 | 1010.0 |
| 20260503025416 | 65 | 246 | 0.0 | 0.0 | 0.00 | 0.00 | 0.00 | 26 | 1010.0 |
| 20260503025401 | 65 | 246 | 0.0 | 0.0 | 0.00 | 0.00 | 0.00 | 26 | 1010.0 |
| 20260503025313 | 65 | 246 | 0.0 | 0.0 | 0.00 | 0.00 | 0.00 | 26 | 1010.0 |
| 20260503025259 | 65 | 246 | 0.0 | 0.0 | 0.00 | 0.00 | 0.00 | 26 | 1010.0 |
| 20260503025209 | 65 | 247 | 0.0 | 0.0 | 0.00 | 0.00 | 0.00 | 26 | 1010.0 |
| 20260503025200 | 65 | 247 | 0.0 | 1.0 | 0.00 | 0.00 | 0.00 | 26 | 1010.0 |
| 20260503025115 | 66 | 247 | 0.0 | 1.0 | 0.00 | 0.00 | 0.00 | 26 | 1010.0 |
| 20260503025040 | 66 | 247 | 0.0 | 1.0 | 0.00 | 0.00 | 0.00 | 26 | 1010.0 |
| 20260503025010 | 66 | 246 | 0.0 | 1.0 | 0.00 | 0.00 | 0.00 | 26 | 1010.0 |
| 20260503025001 | 66 | 233 | 0.0 | 0.0 | 0.00 | 0.00 | 0.00 | 26 | 1010.0 |
| 20260503024916 | 66 | 233 | 0.0 | 0.0 | 0.00 | 0.00 | 0.00 | 26 | 1010.0 |
| 20260503024856 | 66 | 233 | 0.0 | 0.0 | 0.00 | 0.00 | 0.00 | 26 | 1010.0 |
| 20260503024802 | 66 | 233 | 0.0 | 0.0 | 0.00 | 0.00 | 0.00 | 26 | 1010.0 |
| 20260503024744 | 66 | 233 | 0.0 | 0.0 | 0.00 | 0.00 | 0.00 | 26 | 1010.0 |
| 20260503024704 | 66 | 238 | 0.0 | 2.0 | 0.00 | 0.00 | 0.00 | 26 | 1010.0 |
| 20260503024608 | 66 | 238 | 0.0 | 2.0 | 0.00 | 0.00 | 0.00 | 26 | 1010.0 |
| 20260503024544 | 66 | 249 | 1.0 | 2.0 | 0.00 | 0.00 | 0.00 | 26 | 1010.0 |
| 20260503024529 | 66 | 246 | 1.0 | 1.0 | 0.00 | 0.00 | 0.00 | 26 | 1010.0 |
| 20260503024520 | 66 | 258 | 0.0 | 1.0 | 0.00 | 0.00 | 0.00 | 26 | 1010.0 |
| 20260503024504 | 66 | 258 | 0.0 | 1.0 | 0.00 | 0.00 | 0.00 | 26 | 1010.0 |
| 20260503024442 | 66 | 258 | 0.0 | 1.0 | 0.00 | 0.00 | 0.00 | 26 | 1010.0 |
| 20260503024432 | 66 | 258 | 1.0 | 1.0 | 0.00 | 0.00 | 0.00 | 26 | 1010.0 |
| 20260503024419 | 66 | 260 | 0.0 | 0.0 | 0.00 | 0.00 | 0.00 | 26 | 1010.0 |
| 20260503024346 | 66 | 260 | 0.0 | 0.0 | 0.00 | 0.00 | 0.00 | 26 | 1010.0 |
| 20260503024311 | 66 | 260 | 0.0 | 1.0 | 0.00 | 0.00 | 0.00 | 26 | 1010.0 |
| 20260503024224 | 66 | 260 | 0.0 | 1.0 | 0.00 | 0.00 | 0.00 | 26 | 1010.0 |
| 20260503024208 | 67 | 260 | 0.0 | 1.0 | 0.00 | 0.00 | 0.00 | 26 | 1010.0 |
| 20260503024159 | 67 | 260 | 0.0 | 2.0 | 0.00 | 0.00 | 0.00 | 26 | 1010.0 |
| 20260503024140 | 67 | 261 | 1.0 | 2.0 | 0.00 | 0.00 | 0.00 | 26 | 1010.0 |
| 20260503024122 | 67 | 267 | 0.0 | 2.0 | 0.00 | 0.00 | 0.00 | 26 | 1010.0 |